<?xml version="1.0" encoding="UTF-8"?>
<gpx xmlns="http://www.topografix.com/GPX/1/1" xmlns:xsi="http://www.w3.org/2001/XMLSchema-instance" version="1.1" xsi:schemaLocation="http://www.topografix.com/GPX/1/1 http://www.topografix.com/GPX/1/1/gpx.xsd">
  <metadata>
    <name>Weymouth Middle Distance Triathlon</name>
  </metadata>
  <trk>
    <name>Weymouth Middle Distance Triathlon</name>
    <trkseg>
      <trkpt lat="50.623872" lon="-2.450224">
        <ele>6.802649</ele>
        <time>2021-06-27T07:38:00.000Z</time>
      </trkpt>
      <trkpt lat="50.623826" lon="-2.450282">
        <ele>6.802649</ele>
        <time>2021-06-27T07:38:01.000Z</time>
      </trkpt>
      <trkpt lat="50.623627" lon="-2.45062">
        <ele>6.802648</ele>
        <time>2021-06-27T07:38:04.000Z</time>
      </trkpt>
      <trkpt lat="50.623425" lon="-2.450808">
        <ele>6.80265</ele>
        <time>2021-06-27T07:38:07.000Z</time>
      </trkpt>
      <trkpt lat="50.623309" lon="-2.450901">
        <ele>6.802661</ele>
        <time>2021-06-27T07:38:08.000Z</time>
      </trkpt>
      <trkpt lat="50.623238" lon="-2.45068">
        <ele>6.802664</ele>
        <time>2021-06-27T07:38:10.000Z</time>
      </trkpt>
      <trkpt lat="50.623181" lon="-2.450524">
        <ele>6.846828</ele>
        <time>2021-06-27T07:38:11.000Z</time>
      </trkpt>
      <trkpt lat="50.623041" lon="-2.449843">
        <ele>7.071354</ele>
        <time>2021-06-27T07:38:16.000Z</time>
      </trkpt>
      <trkpt lat="50.623087" lon="-2.448718">
        <ele>7.427224</ele>
        <time>2021-06-27T07:38:24.000Z</time>
      </trkpt>
      <trkpt lat="50.623061" lon="-2.448608">
        <ele>7.464022</ele>
        <time>2021-06-27T07:38:25.000Z</time>
      </trkpt>
      <trkpt lat="50.623115" lon="-2.448464">
        <ele>7.520133</ele>
        <time>2021-06-27T07:38:26.000Z</time>
      </trkpt>
      <trkpt lat="50.623292" lon="-2.448021">
        <ele>7.686323</ele>
        <time>2021-06-27T07:38:30.000Z</time>
      </trkpt>
      <trkpt lat="50.623185" lon="-2.447207">
        <ele>7.405695</ele>
        <time>2021-06-27T07:38:36.000Z</time>
      </trkpt>
      <trkpt lat="50.623139" lon="-2.44701">
        <ele>7.326719</ele>
        <time>2021-06-27T07:38:37.000Z</time>
      </trkpt>
      <trkpt lat="50.623125" lon="-2.446939">
        <ele>7.299059</ele>
        <time>2021-06-27T07:38:38.000Z</time>
      </trkpt>
      <trkpt lat="50.623046" lon="-2.446686">
        <ele>7.194309</ele>
        <time>2021-06-27T07:38:40.000Z</time>
      </trkpt>
      <trkpt lat="50.622958" lon="-2.446409">
        <ele>7.081837</ele>
        <time>2021-06-27T07:38:42.000Z</time>
      </trkpt>
      <trkpt lat="50.623617" lon="-2.445698">
        <ele>6.567148</ele>
        <time>2021-06-27T07:38:51.000Z</time>
      </trkpt>
      <trkpt lat="50.624134" lon="-2.445118">
        <ele>5.747737</ele>
        <time>2021-06-27T07:38:58.000Z</time>
      </trkpt>
      <trkpt lat="50.624291" lon="-2.444933">
        <ele>5.500966</ele>
        <time>2021-06-27T07:39:00.000Z</time>
      </trkpt>
      <trkpt lat="50.624427" lon="-2.444712">
        <ele>5.23477</ele>
        <time>2021-06-27T07:39:02.000Z</time>
      </trkpt>
      <trkpt lat="50.624707" lon="-2.444279">
        <ele>4.723493</ele>
        <time>2021-06-27T07:39:06.000Z</time>
      </trkpt>
      <trkpt lat="50.625007" lon="-2.443782">
        <ele>4.168131</ele>
        <time>2021-06-27T07:39:11.000Z</time>
      </trkpt>
      <trkpt lat="50.625269" lon="-2.443362">
        <ele>3.690549</ele>
        <time>2021-06-27T07:39:15.000Z</time>
      </trkpt>
      <trkpt lat="50.625403" lon="-2.443128">
        <ele>3.444202</ele>
        <time>2021-06-27T07:39:17.000Z</time>
      </trkpt>
      <trkpt lat="50.625548" lon="-2.442919">
        <ele>3.198443</ele>
        <time>2021-06-27T07:39:19.000Z</time>
      </trkpt>
      <trkpt lat="50.625635" lon="-2.442767">
        <ele>3.032782</ele>
        <time>2021-06-27T07:39:20.000Z</time>
      </trkpt>
      <trkpt lat="50.625904" lon="-2.442423">
        <ele>2.602386</ele>
        <time>2021-06-27T07:39:24.000Z</time>
      </trkpt>
      <trkpt lat="50.62635" lon="-2.441869">
        <ele>1.983973</ele>
        <time>2021-06-27T07:39:30.000Z</time>
      </trkpt>
      <trkpt lat="50.626559" lon="-2.441593">
        <ele>1.874342</ele>
        <time>2021-06-27T07:39:33.000Z</time>
      </trkpt>
      <trkpt lat="50.626771" lon="-2.441305">
        <ele>1.762028</ele>
        <time>2021-06-27T07:39:36.000Z</time>
      </trkpt>
      <trkpt lat="50.628167" lon="-2.439502">
        <ele>1.241241</ele>
        <time>2021-06-27T07:39:56.000Z</time>
      </trkpt>
      <trkpt lat="50.62822" lon="-2.439427">
        <ele>1.232958</ele>
        <time>2021-06-27T07:39:57.000Z</time>
      </trkpt>
      <trkpt lat="50.628753" lon="-2.438687">
        <ele>1.156333</ele>
        <time>2021-06-27T07:40:05.000Z</time>
      </trkpt>
      <trkpt lat="50.629215" lon="-2.438016">
        <ele>1.137563</ele>
        <time>2021-06-27T07:40:12.000Z</time>
      </trkpt>
      <trkpt lat="50.629334" lon="-2.437807">
        <ele>1.149421</ele>
        <time>2021-06-27T07:40:14.000Z</time>
      </trkpt>
      <trkpt lat="50.629822" lon="-2.437021">
        <ele>1.194039</ele>
        <time>2021-06-27T07:40:22.000Z</time>
      </trkpt>
      <trkpt lat="50.630137" lon="-2.436494">
        <ele>1.222882</ele>
        <time>2021-06-27T07:40:27.000Z</time>
      </trkpt>
      <trkpt lat="50.631283" lon="-2.434446">
        <ele>1.43334</ele>
        <time>2021-06-27T07:40:46.000Z</time>
      </trkpt>
      <trkpt lat="50.632224" lon="-2.432847">
        <ele>2.167455</ele>
        <time>2021-06-27T07:41:01.000Z</time>
      </trkpt>
      <trkpt lat="50.632789" lon="-2.431861">
        <ele>2.814452</ele>
        <time>2021-06-27T07:41:10.000Z</time>
      </trkpt>
      <trkpt lat="50.632865" lon="-2.431746">
        <ele>2.945713</ele>
        <time>2021-06-27T07:41:11.000Z</time>
      </trkpt>
      <trkpt lat="50.632956" lon="-2.431604">
        <ele>3.096789</ele>
        <time>2021-06-27T07:41:12.000Z</time>
      </trkpt>
      <trkpt lat="50.633014" lon="-2.431512">
        <ele>3.205364</ele>
        <time>2021-06-27T07:41:13.000Z</time>
      </trkpt>
      <trkpt lat="50.633143" lon="-2.431384">
        <ele>3.404271</ele>
        <time>2021-06-27T07:41:15.000Z</time>
      </trkpt>
      <trkpt lat="50.633224" lon="-2.431339">
        <ele>3.521067</ele>
        <time>2021-06-27T07:41:16.000Z</time>
      </trkpt>
      <trkpt lat="50.633337" lon="-2.431323">
        <ele>3.669116</ele>
        <time>2021-06-27T07:41:17.000Z</time>
      </trkpt>
      <trkpt lat="50.633615" lon="-2.431338">
        <ele>4.0146</ele>
        <time>2021-06-27T07:41:20.000Z</time>
      </trkpt>
      <trkpt lat="50.633653" lon="-2.431339">
        <ele>4.080196</ele>
        <time>2021-06-27T07:41:20.000Z</time>
      </trkpt>
      <trkpt lat="50.63372" lon="-2.431363">
        <ele>4.15539</ele>
        <time>2021-06-27T07:41:21.000Z</time>
      </trkpt>
      <trkpt lat="50.633837" lon="-2.431388">
        <ele>4.318486</ele>
        <time>2021-06-27T07:41:22.000Z</time>
      </trkpt>
      <trkpt lat="50.633994" lon="-2.431411">
        <ele>4.501336</ele>
        <time>2021-06-27T07:41:24.000Z</time>
      </trkpt>
      <trkpt lat="50.634195" lon="-2.431462">
        <ele>4.768497</ele>
        <time>2021-06-27T07:41:26.000Z</time>
      </trkpt>
      <trkpt lat="50.634294" lon="-2.431492">
        <ele>4.893606</ele>
        <time>2021-06-27T07:41:27.000Z</time>
      </trkpt>
      <trkpt lat="50.634313" lon="-2.431507">
        <ele>4.941147</ele>
        <time>2021-06-27T07:41:27.000Z</time>
      </trkpt>
      <trkpt lat="50.634543" lon="-2.431591">
        <ele>5.322362</ele>
        <time>2021-06-27T07:41:30.000Z</time>
      </trkpt>
      <trkpt lat="50.634993" lon="-2.431914">
        <ele>6.134862</ele>
        <time>2021-06-27T07:41:35.000Z</time>
      </trkpt>
      <trkpt lat="50.635056" lon="-2.431982">
        <ele>6.24016</ele>
        <time>2021-06-27T07:41:36.000Z</time>
      </trkpt>
      <trkpt lat="50.635235" lon="-2.432187">
        <ele>6.590329</ele>
        <time>2021-06-27T07:41:38.000Z</time>
      </trkpt>
      <trkpt lat="50.635244" lon="-2.432197">
        <ele>6.620172</ele>
        <time>2021-06-27T07:41:38.000Z</time>
      </trkpt>
      <trkpt lat="50.635379" lon="-2.432382">
        <ele>6.915888</ele>
        <time>2021-06-27T07:41:40.000Z</time>
      </trkpt>
      <trkpt lat="50.635451" lon="-2.432463">
        <ele>7.05493</ele>
        <time>2021-06-27T07:41:41.000Z</time>
      </trkpt>
      <trkpt lat="50.63555" lon="-2.432587">
        <ele>7.246461</ele>
        <time>2021-06-27T07:41:42.000Z</time>
      </trkpt>
      <trkpt lat="50.635765" lon="-2.432801">
        <ele>7.653324</ele>
        <time>2021-06-27T07:41:45.000Z</time>
      </trkpt>
      <trkpt lat="50.635783" lon="-2.432815">
        <ele>7.693492</ele>
        <time>2021-06-27T07:41:45.000Z</time>
      </trkpt>
      <trkpt lat="50.636147" lon="-2.433091">
        <ele>8.734797</ele>
        <time>2021-06-27T07:41:49.000Z</time>
      </trkpt>
      <trkpt lat="50.636337" lon="-2.433116">
        <ele>9.197659</ele>
        <time>2021-06-27T07:41:51.000Z</time>
      </trkpt>
      <trkpt lat="50.636442" lon="-2.433101">
        <ele>9.499582</ele>
        <time>2021-06-27T07:41:52.000Z</time>
      </trkpt>
      <trkpt lat="50.637241" lon="-2.432959">
        <ele>11.61593</ele>
        <time>2021-06-27T07:42:01.000Z</time>
      </trkpt>
      <trkpt lat="50.637523" lon="-2.432861">
        <ele>12.375529</ele>
        <time>2021-06-27T07:42:04.000Z</time>
      </trkpt>
      <trkpt lat="50.637932" lon="-2.432662">
        <ele>13.209141</ele>
        <time>2021-06-27T07:42:09.000Z</time>
      </trkpt>
      <trkpt lat="50.638086" lon="-2.432604">
        <ele>13.497366</ele>
        <time>2021-06-27T07:42:11.000Z</time>
      </trkpt>
      <trkpt lat="50.638424" lon="-2.43246">
        <ele>14.132363</ele>
        <time>2021-06-27T07:42:15.000Z</time>
      </trkpt>
      <trkpt lat="50.63869" lon="-2.432386">
        <ele>14.602332</ele>
        <time>2021-06-27T07:42:18.000Z</time>
      </trkpt>
      <trkpt lat="50.638962" lon="-2.432293">
        <ele>15.103065</ele>
        <time>2021-06-27T07:42:21.000Z</time>
      </trkpt>
      <trkpt lat="50.639509" lon="-2.432158">
        <ele>15.930898</ele>
        <time>2021-06-27T07:42:27.000Z</time>
      </trkpt>
      <trkpt lat="50.639689" lon="-2.432116">
        <ele>16.089131</ele>
        <time>2021-06-27T07:42:29.000Z</time>
      </trkpt>
      <trkpt lat="50.640371" lon="-2.431939">
        <ele>16.707486</ele>
        <time>2021-06-27T07:42:37.000Z</time>
      </trkpt>
      <trkpt lat="50.640607" lon="-2.431847">
        <ele>16.920855</ele>
        <time>2021-06-27T07:42:40.000Z</time>
      </trkpt>
      <trkpt lat="50.640724" lon="-2.431813">
        <ele>17.019847</ele>
        <time>2021-06-27T07:42:41.000Z</time>
      </trkpt>
      <trkpt lat="50.640811" lon="-2.431779">
        <ele>17.09436</ele>
        <time>2021-06-27T07:42:42.000Z</time>
      </trkpt>
      <trkpt lat="50.641125" lon="-2.431697">
        <ele>17.373028</ele>
        <time>2021-06-27T07:42:46.000Z</time>
      </trkpt>
      <trkpt lat="50.641378" lon="-2.431619">
        <ele>17.453234</ele>
        <time>2021-06-27T07:42:49.000Z</time>
      </trkpt>
      <trkpt lat="50.641767" lon="-2.43144">
        <ele>17.591453</ele>
        <time>2021-06-27T07:42:54.000Z</time>
      </trkpt>
      <trkpt lat="50.642123" lon="-2.43132">
        <ele>17.709762</ele>
        <time>2021-06-27T07:42:58.000Z</time>
      </trkpt>
      <trkpt lat="50.642417" lon="-2.431158">
        <ele>17.812482</ele>
        <time>2021-06-27T07:43:01.000Z</time>
      </trkpt>
      <trkpt lat="50.642982" lon="-2.430778">
        <ele>17.857449</ele>
        <time>2021-06-27T07:43:08.000Z</time>
      </trkpt>
      <trkpt lat="50.643585" lon="-2.430276">
        <ele>17.449277</ele>
        <time>2021-06-27T07:43:16.000Z</time>
      </trkpt>
      <trkpt lat="50.64379" lon="-2.430109">
        <ele>17.31215</ele>
        <time>2021-06-27T07:43:19.000Z</time>
      </trkpt>
      <trkpt lat="50.643816" lon="-2.430146">
        <ele>17.286432</ele>
        <time>2021-06-27T07:43:19.000Z</time>
      </trkpt>
      <trkpt lat="50.643859" lon="-2.430178">
        <ele>17.260324</ele>
        <time>2021-06-27T07:43:20.000Z</time>
      </trkpt>
      <trkpt lat="50.643945" lon="-2.430167">
        <ele>17.208914</ele>
        <time>2021-06-27T07:43:21.000Z</time>
      </trkpt>
      <trkpt lat="50.643985" lon="-2.430128">
        <ele>17.18246</ele>
        <time>2021-06-27T07:43:22.000Z</time>
      </trkpt>
      <trkpt lat="50.644057" lon="-2.430451">
        <ele>17.05439</ele>
        <time>2021-06-27T07:43:24.000Z</time>
      </trkpt>
      <trkpt lat="50.64408" lon="-2.430589">
        <ele>17.004165</ele>
        <time>2021-06-27T07:43:25.000Z</time>
      </trkpt>
      <trkpt lat="50.644236" lon="-2.431806">
        <ele>17.004278</ele>
        <time>2021-06-27T07:43:34.000Z</time>
      </trkpt>
      <trkpt lat="50.644389" lon="-2.433128">
        <ele>17.154857</ele>
        <time>2021-06-27T07:43:43.000Z</time>
      </trkpt>
      <trkpt lat="50.64448" lon="-2.433997">
        <ele>17.601492</ele>
        <time>2021-06-27T07:43:49.000Z</time>
      </trkpt>
      <trkpt lat="50.644628" lon="-2.435562">
        <ele>19.361999</ele>
        <time>2021-06-27T07:44:00.000Z</time>
      </trkpt>
      <trkpt lat="50.64464" lon="-2.435868">
        <ele>19.705092</ele>
        <time>2021-06-27T07:44:02.000Z</time>
      </trkpt>
      <trkpt lat="50.644649" lon="-2.436365">
        <ele>20.243678</ele>
        <time>2021-06-27T07:44:06.000Z</time>
      </trkpt>
      <trkpt lat="50.644697" lon="-2.437362">
        <ele>21.469999</ele>
        <time>2021-06-27T07:44:13.000Z</time>
      </trkpt>
      <trkpt lat="50.644732" lon="-2.43777">
        <ele>21.96558</ele>
        <time>2021-06-27T07:44:16.000Z</time>
      </trkpt>
      <trkpt lat="50.644806" lon="-2.43849">
        <ele>22.881205</ele>
        <time>2021-06-27T07:44:21.000Z</time>
      </trkpt>
      <trkpt lat="50.644898" lon="-2.439266">
        <ele>23.855333</ele>
        <time>2021-06-27T07:44:27.000Z</time>
      </trkpt>
      <trkpt lat="50.645007" lon="-2.440222">
        <ele>24.873567</ele>
        <time>2021-06-27T07:44:34.000Z</time>
      </trkpt>
      <trkpt lat="50.645144" lon="-2.44138">
        <ele>26.102042</ele>
        <time>2021-06-27T07:44:42.000Z</time>
      </trkpt>
      <trkpt lat="50.645203" lon="-2.44174">
        <ele>26.494685</ele>
        <time>2021-06-27T07:44:45.000Z</time>
      </trkpt>
      <trkpt lat="50.645267" lon="-2.442157">
        <ele>26.942886</ele>
        <time>2021-06-27T07:44:48.000Z</time>
      </trkpt>
      <trkpt lat="50.645357" lon="-2.442578">
        <ele>27.4417</ele>
        <time>2021-06-27T07:44:51.000Z</time>
      </trkpt>
      <trkpt lat="50.645443" lon="-2.442852">
        <ele>27.755393</ele>
        <time>2021-06-27T07:44:53.000Z</time>
      </trkpt>
      <trkpt lat="50.645514" lon="-2.443141">
        <ele>28.101926</ele>
        <time>2021-06-27T07:44:55.000Z</time>
      </trkpt>
      <trkpt lat="50.645603" lon="-2.443415">
        <ele>28.450431</ele>
        <time>2021-06-27T07:44:57.000Z</time>
      </trkpt>
      <trkpt lat="50.645758" lon="-2.443882">
        <ele>29.009886</ele>
        <time>2021-06-27T07:45:01.000Z</time>
      </trkpt>
      <trkpt lat="50.645912" lon="-2.444512">
        <ele>29.742658</ele>
        <time>2021-06-27T07:45:06.000Z</time>
      </trkpt>
      <trkpt lat="50.646016" lon="-2.445003">
        <ele>30.21359</ele>
        <time>2021-06-27T07:45:10.000Z</time>
      </trkpt>
      <trkpt lat="50.646223" lon="-2.446308">
        <ele>31.294627</ele>
        <time>2021-06-27T07:45:19.000Z</time>
      </trkpt>
      <trkpt lat="50.646396" lon="-2.447379">
        <ele>32.180354</ele>
        <time>2021-06-27T07:45:27.000Z</time>
      </trkpt>
      <trkpt lat="50.646426" lon="-2.447529">
        <ele>32.206102</ele>
        <time>2021-06-27T07:45:28.000Z</time>
      </trkpt>
      <trkpt lat="50.646524" lon="-2.447922">
        <ele>32.191511</ele>
        <time>2021-06-27T07:45:31.000Z</time>
      </trkpt>
      <trkpt lat="50.646702" lon="-2.448732">
        <ele>32.161764</ele>
        <time>2021-06-27T07:45:37.000Z</time>
      </trkpt>
      <trkpt lat="50.647043" lon="-2.449576">
        <ele>32.127506</ele>
        <time>2021-06-27T07:45:44.000Z</time>
      </trkpt>
      <trkpt lat="50.647903" lon="-2.451531">
        <ele>30.799207</ele>
        <time>2021-06-27T07:46:01.000Z</time>
      </trkpt>
      <trkpt lat="50.648069" lon="-2.451872">
        <ele>30.505236</ele>
        <time>2021-06-27T07:46:04.000Z</time>
      </trkpt>
      <trkpt lat="50.648152" lon="-2.452165">
        <ele>30.298076</ele>
        <time>2021-06-27T07:46:06.000Z</time>
      </trkpt>
      <trkpt lat="50.648401" lon="-2.453026">
        <ele>29.559436</ele>
        <time>2021-06-27T07:46:13.000Z</time>
      </trkpt>
      <trkpt lat="50.648479" lon="-2.453298">
        <ele>29.320392</ele>
        <time>2021-06-27T07:46:15.000Z</time>
      </trkpt>
      <trkpt lat="50.648773" lon="-2.454557">
        <ele>28.25865</ele>
        <time>2021-06-27T07:46:24.000Z</time>
      </trkpt>
      <trkpt lat="50.648879" lon="-2.454897">
        <ele>27.955124</ele>
        <time>2021-06-27T07:46:27.000Z</time>
      </trkpt>
      <trkpt lat="50.649005" lon="-2.455251">
        <ele>27.711595</ele>
        <time>2021-06-27T07:46:30.000Z</time>
      </trkpt>
      <trkpt lat="50.649264" lon="-2.455851">
        <ele>27.268922</ele>
        <time>2021-06-27T07:46:35.000Z</time>
      </trkpt>
      <trkpt lat="50.649567" lon="-2.45635">
        <ele>26.853135</ele>
        <time>2021-06-27T07:46:40.000Z</time>
      </trkpt>
      <trkpt lat="50.64986" lon="-2.456773">
        <ele>26.463975</ele>
        <time>2021-06-27T07:46:44.000Z</time>
      </trkpt>
      <trkpt lat="50.650377" lon="-2.457327">
        <ele>25.886052</ele>
        <time>2021-06-27T07:46:51.000Z</time>
      </trkpt>
      <trkpt lat="50.650533" lon="-2.45745">
        <ele>25.709507</ele>
        <time>2021-06-27T07:46:53.000Z</time>
      </trkpt>
      <trkpt lat="50.650547" lon="-2.45745">
        <ele>25.705367</ele>
        <time>2021-06-27T07:46:53.000Z</time>
      </trkpt>
      <trkpt lat="50.650688" lon="-2.457546">
        <ele>25.553645</ele>
        <time>2021-06-27T07:46:55.000Z</time>
      </trkpt>
      <trkpt lat="50.650838" lon="-2.457587">
        <ele>25.426895</ele>
        <time>2021-06-27T07:46:57.000Z</time>
      </trkpt>
      <trkpt lat="50.650946" lon="-2.457606">
        <ele>25.325206</ele>
        <time>2021-06-27T07:46:58.000Z</time>
      </trkpt>
      <trkpt lat="50.651026" lon="-2.457626">
        <ele>25.2429</ele>
        <time>2021-06-27T07:46:59.000Z</time>
      </trkpt>
      <trkpt lat="50.651202" lon="-2.45776">
        <ele>25.063642</ele>
        <time>2021-06-27T07:47:01.000Z</time>
      </trkpt>
      <trkpt lat="50.651282" lon="-2.457859">
        <ele>24.971103</ele>
        <time>2021-06-27T07:47:02.000Z</time>
      </trkpt>
      <trkpt lat="50.651294" lon="-2.457924">
        <ele>24.937723</ele>
        <time>2021-06-27T07:47:02.000Z</time>
      </trkpt>
      <trkpt lat="50.651334" lon="-2.458208">
        <ele>24.76681</ele>
        <time>2021-06-27T07:47:04.000Z</time>
      </trkpt>
      <trkpt lat="50.651395" lon="-2.458679">
        <ele>24.467578</ele>
        <time>2021-06-27T07:47:07.000Z</time>
      </trkpt>
      <trkpt lat="50.651491" lon="-2.459786">
        <ele>23.677092</ele>
        <time>2021-06-27T07:47:15.000Z</time>
      </trkpt>
      <trkpt lat="50.651517" lon="-2.460362">
        <ele>23.272891</ele>
        <time>2021-06-27T07:47:19.000Z</time>
      </trkpt>
      <trkpt lat="50.651514" lon="-2.460545">
        <ele>23.146375</ele>
        <time>2021-06-27T07:47:20.000Z</time>
      </trkpt>
      <trkpt lat="50.651527" lon="-2.461084">
        <ele>22.770135</ele>
        <time>2021-06-27T07:47:24.000Z</time>
      </trkpt>
      <trkpt lat="50.651526" lon="-2.461145">
        <ele>22.733773</ele>
        <time>2021-06-27T07:47:24.000Z</time>
      </trkpt>
      <trkpt lat="50.651543" lon="-2.461684">
        <ele>22.640435</ele>
        <time>2021-06-27T07:47:28.000Z</time>
      </trkpt>
      <trkpt lat="50.65156" lon="-2.462415">
        <ele>22.816679</ele>
        <time>2021-06-27T07:47:33.000Z</time>
      </trkpt>
      <trkpt lat="50.651561" lon="-2.463126">
        <ele>22.992097</ele>
        <time>2021-06-27T07:47:38.000Z</time>
      </trkpt>
      <trkpt lat="50.651602" lon="-2.464111">
        <ele>23.229219</ele>
        <time>2021-06-27T07:47:45.000Z</time>
      </trkpt>
      <trkpt lat="50.651722" lon="-2.46543">
        <ele>25.652645</ele>
        <time>2021-06-27T07:47:54.000Z</time>
      </trkpt>
      <trkpt lat="50.651732" lon="-2.465807">
        <ele>26.404071</ele>
        <time>2021-06-27T07:47:57.000Z</time>
      </trkpt>
      <trkpt lat="50.651761" lon="-2.466278">
        <ele>27.30885</ele>
        <time>2021-06-27T07:48:00.000Z</time>
      </trkpt>
      <trkpt lat="50.651726" lon="-2.466946">
        <ele>28.628428</ele>
        <time>2021-06-27T07:48:05.000Z</time>
      </trkpt>
      <trkpt lat="50.651688" lon="-2.467783">
        <ele>29.724817</ele>
        <time>2021-06-27T07:48:11.000Z</time>
      </trkpt>
      <trkpt lat="50.651608" lon="-2.468345">
        <ele>30.408142</ele>
        <time>2021-06-27T07:48:15.000Z</time>
      </trkpt>
      <trkpt lat="50.651442" lon="-2.469574">
        <ele>31.952526</ele>
        <time>2021-06-27T07:48:24.000Z</time>
      </trkpt>
      <trkpt lat="50.651398" lon="-2.469907">
        <ele>32.342351</ele>
        <time>2021-06-27T07:48:26.000Z</time>
      </trkpt>
      <trkpt lat="50.651369" lon="-2.470562">
        <ele>32.983375</ele>
        <time>2021-06-27T07:48:31.000Z</time>
      </trkpt>
      <trkpt lat="50.651717" lon="-2.470502">
        <ele>33.529744</ele>
        <time>2021-06-27T07:48:35.000Z</time>
      </trkpt>
      <trkpt lat="50.652542" lon="-2.470336">
        <ele>34.829521</ele>
        <time>2021-06-27T07:48:44.000Z</time>
      </trkpt>
      <trkpt lat="50.652821" lon="-2.470264">
        <ele>35.322356</ele>
        <time>2021-06-27T07:48:47.000Z</time>
      </trkpt>
      <trkpt lat="50.653559" lon="-2.469938">
        <ele>36.827523</ele>
        <time>2021-06-27T07:48:56.000Z</time>
      </trkpt>
      <trkpt lat="50.65434" lon="-2.469641">
        <ele>38.417812</ele>
        <time>2021-06-27T07:49:05.000Z</time>
      </trkpt>
      <trkpt lat="50.654643" lon="-2.469519">
        <ele>38.8946</ele>
        <time>2021-06-27T07:49:08.000Z</time>
      </trkpt>
      <trkpt lat="50.654825" lon="-2.469431">
        <ele>39.179249</ele>
        <time>2021-06-27T07:49:10.000Z</time>
      </trkpt>
      <trkpt lat="50.655041" lon="-2.469353">
        <ele>39.481423</ele>
        <time>2021-06-27T07:49:12.000Z</time>
      </trkpt>
      <trkpt lat="50.655448" lon="-2.469152">
        <ele>40.090367</ele>
        <time>2021-06-27T07:49:17.000Z</time>
      </trkpt>
      <trkpt lat="50.655949" lon="-2.46897">
        <ele>40.82129</ele>
        <time>2021-06-27T07:49:23.000Z</time>
      </trkpt>
      <trkpt lat="50.656816" lon="-2.468665">
        <ele>41.44216</ele>
        <time>2021-06-27T07:49:33.000Z</time>
      </trkpt>
      <trkpt lat="50.657409" lon="-2.468457">
        <ele>41.729788</ele>
        <time>2021-06-27T07:49:40.000Z</time>
      </trkpt>
      <trkpt lat="50.657766" lon="-2.468356">
        <ele>41.891612</ele>
        <time>2021-06-27T07:49:44.000Z</time>
      </trkpt>
      <trkpt lat="50.657824" lon="-2.468364">
        <ele>41.925025</ele>
        <time>2021-06-27T07:49:45.000Z</time>
      </trkpt>
      <trkpt lat="50.657949" lon="-2.468354">
        <ele>41.982187</ele>
        <time>2021-06-27T07:49:46.000Z</time>
      </trkpt>
      <trkpt lat="50.658157" lon="-2.468382">
        <ele>42.113077</ele>
        <time>2021-06-27T07:49:48.000Z</time>
      </trkpt>
      <trkpt lat="50.658423" lon="-2.468394">
        <ele>42.269596</ele>
        <time>2021-06-27T07:49:51.000Z</time>
      </trkpt>
      <trkpt lat="50.658891" lon="-2.468342">
        <ele>42.54719</ele>
        <time>2021-06-27T07:49:56.000Z</time>
      </trkpt>
      <trkpt lat="50.659277" lon="-2.468305">
        <ele>42.786912</ele>
        <time>2021-06-27T07:50:00.000Z</time>
      </trkpt>
      <trkpt lat="50.659354" lon="-2.468294">
        <ele>42.830904</ele>
        <time>2021-06-27T07:50:01.000Z</time>
      </trkpt>
      <trkpt lat="50.659772" lon="-2.468259">
        <ele>43.092968</ele>
        <time>2021-06-27T07:50:06.000Z</time>
      </trkpt>
      <trkpt lat="50.660378" lon="-2.468195">
        <ele>43.761678</ele>
        <time>2021-06-27T07:50:13.000Z</time>
      </trkpt>
      <trkpt lat="50.662269" lon="-2.468151">
        <ele>46.715702</ele>
        <time>2021-06-27T07:50:34.000Z</time>
      </trkpt>
      <trkpt lat="50.662548" lon="-2.468127">
        <ele>47.347226</ele>
        <time>2021-06-27T07:50:37.000Z</time>
      </trkpt>
      <trkpt lat="50.662783" lon="-2.468036">
        <ele>47.898916</ele>
        <time>2021-06-27T07:50:40.000Z</time>
      </trkpt>
      <trkpt lat="50.662856" lon="-2.467971">
        <ele>48.108255</ele>
        <time>2021-06-27T07:50:41.000Z</time>
      </trkpt>
      <trkpt lat="50.662938" lon="-2.467907">
        <ele>48.305431</ele>
        <time>2021-06-27T07:50:42.000Z</time>
      </trkpt>
      <trkpt lat="50.663131" lon="-2.467702">
        <ele>48.840671</ele>
        <time>2021-06-27T07:50:45.000Z</time>
      </trkpt>
      <trkpt lat="50.664261" lon="-2.465681">
        <ele>55.888967</ele>
        <time>2021-06-27T07:51:04.000Z</time>
      </trkpt>
      <trkpt lat="50.664662" lon="-2.464353">
        <ele>60.124147</ele>
        <time>2021-06-27T07:51:14.000Z</time>
      </trkpt>
      <trkpt lat="50.664758" lon="-2.463793">
        <ele>61.87466</ele>
        <time>2021-06-27T07:51:18.000Z</time>
      </trkpt>
      <trkpt lat="50.664823" lon="-2.463135">
        <ele>63.837361</ele>
        <time>2021-06-27T07:51:23.000Z</time>
      </trkpt>
      <trkpt lat="50.664816" lon="-2.46305">
        <ele>64.13805</ele>
        <time>2021-06-27T07:51:24.000Z</time>
      </trkpt>
      <trkpt lat="50.664835" lon="-2.462952">
        <ele>64.441701</ele>
        <time>2021-06-27T07:51:25.000Z</time>
      </trkpt>
      <trkpt lat="50.664869" lon="-2.462613">
        <ele>65.563122</ele>
        <time>2021-06-27T07:51:27.000Z</time>
      </trkpt>
      <trkpt lat="50.665147" lon="-2.462556">
        <ele>67.394999</ele>
        <time>2021-06-27T07:51:30.000Z</time>
      </trkpt>
      <trkpt lat="50.665414" lon="-2.46259">
        <ele>69.255416</ele>
        <time>2021-06-27T07:51:33.000Z</time>
      </trkpt>
      <trkpt lat="50.665592" lon="-2.462787">
        <ele>70.726797</ele>
        <time>2021-06-27T07:51:35.000Z</time>
      </trkpt>
      <trkpt lat="50.66565" lon="-2.462908">
        <ele>71.325474</ele>
        <time>2021-06-27T07:51:36.000Z</time>
      </trkpt>
      <trkpt lat="50.665666" lon="-2.463126">
        <ele>72.259596</ele>
        <time>2021-06-27T07:51:38.000Z</time>
      </trkpt>
      <trkpt lat="50.665656" lon="-2.463174">
        <ele>72.477832</ele>
        <time>2021-06-27T07:51:38.000Z</time>
      </trkpt>
      <trkpt lat="50.665543" lon="-2.463701">
        <ele>74.82211</ele>
        <time>2021-06-27T07:51:42.000Z</time>
      </trkpt>
      <trkpt lat="50.665541" lon="-2.463879">
        <ele>75.576773</ele>
        <time>2021-06-27T07:51:43.000Z</time>
      </trkpt>
      <trkpt lat="50.665675" lon="-2.464776">
        <ele>80.118115</ele>
        <time>2021-06-27T07:51:50.000Z</time>
      </trkpt>
      <trkpt lat="50.665739" lon="-2.465024">
        <ele>81.561848</ele>
        <time>2021-06-27T07:51:52.000Z</time>
      </trkpt>
      <trkpt lat="50.665772" lon="-2.465182">
        <ele>82.432841</ele>
        <time>2021-06-27T07:51:53.000Z</time>
      </trkpt>
      <trkpt lat="50.665853" lon="-2.465503">
        <ele>84.374931</ele>
        <time>2021-06-27T07:51:55.000Z</time>
      </trkpt>
      <trkpt lat="50.665927" lon="-2.465754">
        <ele>85.872729</ele>
        <time>2021-06-27T07:51:57.000Z</time>
      </trkpt>
      <trkpt lat="50.665991" lon="-2.465923">
        <ele>86.956708</ele>
        <time>2021-06-27T07:51:58.000Z</time>
      </trkpt>
      <trkpt lat="50.666199" lon="-2.466229">
        <ele>89.36216</ele>
        <time>2021-06-27T07:52:01.000Z</time>
      </trkpt>
      <trkpt lat="50.666397" lon="-2.466428">
        <ele>91.456521</ele>
        <time>2021-06-27T07:52:04.000Z</time>
      </trkpt>
      <trkpt lat="50.666956" lon="-2.466778">
        <ele>96.616744</ele>
        <time>2021-06-27T07:52:11.000Z</time>
      </trkpt>
      <trkpt lat="50.667097" lon="-2.466827">
        <ele>97.848961</ele>
        <time>2021-06-27T07:52:13.000Z</time>
      </trkpt>
      <trkpt lat="50.667121" lon="-2.466839">
        <ele>98.146495</ele>
        <time>2021-06-27T07:52:13.000Z</time>
      </trkpt>
      <trkpt lat="50.668172" lon="-2.467297">
        <ele>107.573865</ele>
        <time>2021-06-27T07:52:25.000Z</time>
      </trkpt>
      <trkpt lat="50.670848" lon="-2.466978">
        <ele>128.439422</ele>
        <time>2021-06-27T07:52:55.000Z</time>
      </trkpt>
      <trkpt lat="50.672036" lon="-2.466911">
        <ele>136.340271</ele>
        <time>2021-06-27T07:53:08.000Z</time>
      </trkpt>
      <trkpt lat="50.672016" lon="-2.466755">
        <ele>136.798441</ele>
        <time>2021-06-27T07:53:09.000Z</time>
      </trkpt>
      <trkpt lat="50.67205" lon="-2.466124">
        <ele>138.820275</ele>
        <time>2021-06-27T07:53:13.000Z</time>
      </trkpt>
      <trkpt lat="50.672094" lon="-2.465883">
        <ele>139.601271</ele>
        <time>2021-06-27T07:53:15.000Z</time>
      </trkpt>
      <trkpt lat="50.672189" lon="-2.46547">
        <ele>140.984025</ele>
        <time>2021-06-27T07:53:18.000Z</time>
      </trkpt>
      <trkpt lat="50.672158" lon="-2.465429">
        <ele>141.185619</ele>
        <time>2021-06-27T07:53:18.000Z</time>
      </trkpt>
      <trkpt lat="50.672195" lon="-2.465242">
        <ele>141.839338</ele>
        <time>2021-06-27T07:53:19.000Z</time>
      </trkpt>
      <trkpt lat="50.672246" lon="-2.464893">
        <ele>142.943636</ele>
        <time>2021-06-27T07:53:22.000Z</time>
      </trkpt>
      <trkpt lat="50.672169" lon="-2.464045">
        <ele>145.263857</ele>
        <time>2021-06-27T07:53:28.000Z</time>
      </trkpt>
      <trkpt lat="50.672175" lon="-2.463895">
        <ele>145.622087</ele>
        <time>2021-06-27T07:53:29.000Z</time>
      </trkpt>
      <trkpt lat="50.672185" lon="-2.463848">
        <ele>145.73077</ele>
        <time>2021-06-27T07:53:29.000Z</time>
      </trkpt>
      <trkpt lat="50.672164" lon="-2.46352">
        <ele>146.466935</ele>
        <time>2021-06-27T07:53:31.000Z</time>
      </trkpt>
      <trkpt lat="50.671844" lon="-2.458182">
        <ele>156.899151</ele>
        <time>2021-06-27T07:54:09.000Z</time>
      </trkpt>
      <trkpt lat="50.671733" lon="-2.457637">
        <ele>157.300631</ele>
        <time>2021-06-27T07:54:13.000Z</time>
      </trkpt>
      <trkpt lat="50.671224" lon="-2.456411">
        <ele>158.331764</ele>
        <time>2021-06-27T07:54:23.000Z</time>
      </trkpt>
      <trkpt lat="50.671116" lon="-2.456139">
        <ele>158.29537</ele>
        <time>2021-06-27T07:54:25.000Z</time>
      </trkpt>
      <trkpt lat="50.671063" lon="-2.455946">
        <ele>158.009546</ele>
        <time>2021-06-27T07:54:26.000Z</time>
      </trkpt>
      <trkpt lat="50.671046" lon="-2.455704">
        <ele>157.691573</ele>
        <time>2021-06-27T07:54:28.000Z</time>
      </trkpt>
      <trkpt lat="50.671036" lon="-2.455317">
        <ele>157.147639</ele>
        <time>2021-06-27T07:54:31.000Z</time>
      </trkpt>
      <trkpt lat="50.671038" lon="-2.455026">
        <ele>156.746442</ele>
        <time>2021-06-27T07:54:33.000Z</time>
      </trkpt>
      <trkpt lat="50.670948" lon="-2.453984">
        <ele>155.285298</ele>
        <time>2021-06-27T07:54:40.000Z</time>
      </trkpt>
      <trkpt lat="50.670695" lon="-2.452466">
        <ele>152.130116</ele>
        <time>2021-06-27T07:54:51.000Z</time>
      </trkpt>
      <trkpt lat="50.67056" lon="-2.451399">
        <ele>149.635116</ele>
        <time>2021-06-27T07:54:59.000Z</time>
      </trkpt>
      <trkpt lat="50.67052" lon="-2.451224">
        <ele>149.2434</ele>
        <time>2021-06-27T07:55:00.000Z</time>
      </trkpt>
      <trkpt lat="50.670451" lon="-2.450237">
        <ele>147.114652</ele>
        <time>2021-06-27T07:55:07.000Z</time>
      </trkpt>
      <trkpt lat="50.670223" lon="-2.448195">
        <ele>143.183668</ele>
        <time>2021-06-27T07:55:22.000Z</time>
      </trkpt>
      <trkpt lat="50.67021" lon="-2.446689">
        <ele>142.570313</ele>
        <time>2021-06-27T07:55:33.000Z</time>
      </trkpt>
      <trkpt lat="50.670143" lon="-2.445834">
        <ele>142.553357</ele>
        <time>2021-06-27T07:55:39.000Z</time>
      </trkpt>
      <trkpt lat="50.669952" lon="-2.44485">
        <ele>142.937787</ele>
        <time>2021-06-27T07:55:46.000Z</time>
      </trkpt>
      <trkpt lat="50.66991" lon="-2.444599">
        <ele>143.359742</ele>
        <time>2021-06-27T07:55:48.000Z</time>
      </trkpt>
      <trkpt lat="50.66976" lon="-2.444174">
        <ele>144.119235</ele>
        <time>2021-06-27T07:55:51.000Z</time>
      </trkpt>
      <trkpt lat="50.669687" lon="-2.443982">
        <ele>144.461622</ele>
        <time>2021-06-27T07:55:53.000Z</time>
      </trkpt>
      <trkpt lat="50.669616" lon="-2.443757">
        <ele>144.867702</ele>
        <time>2021-06-27T07:55:55.000Z</time>
      </trkpt>
      <trkpt lat="50.669023" lon="-2.442146">
        <ele>147.301985</ele>
        <time>2021-06-27T07:56:08.000Z</time>
      </trkpt>
      <trkpt lat="50.668805" lon="-2.441382">
        <ele>147.79059</ele>
        <time>2021-06-27T07:56:14.000Z</time>
      </trkpt>
      <trkpt lat="50.668483" lon="-2.439727">
        <ele>148.588784</ele>
        <time>2021-06-27T07:56:26.000Z</time>
      </trkpt>
      <trkpt lat="50.668343" lon="-2.439074">
        <ele>148.291198</ele>
        <time>2021-06-27T07:56:31.000Z</time>
      </trkpt>
      <trkpt lat="50.668323" lon="-2.438961">
        <ele>148.244669</ele>
        <time>2021-06-27T07:56:32.000Z</time>
      </trkpt>
      <trkpt lat="50.668239" lon="-2.43848">
        <ele>148.028486</ele>
        <time>2021-06-27T07:56:36.000Z</time>
      </trkpt>
      <trkpt lat="50.668038" lon="-2.436973">
        <ele>147.250897</ele>
        <time>2021-06-27T07:56:47.000Z</time>
      </trkpt>
      <trkpt lat="50.667896" lon="-2.435614">
        <ele>146.002216</ele>
        <time>2021-06-27T07:56:57.000Z</time>
      </trkpt>
      <trkpt lat="50.667421" lon="-2.429099">
        <ele>139.497256</ele>
        <time>2021-06-27T07:57:43.000Z</time>
      </trkpt>
      <trkpt lat="50.667398" lon="-2.429012">
        <ele>139.406725</ele>
        <time>2021-06-27T07:57:44.000Z</time>
      </trkpt>
      <trkpt lat="50.667361" lon="-2.428448">
        <ele>139.134027</ele>
        <time>2021-06-27T07:57:48.000Z</time>
      </trkpt>
      <trkpt lat="50.66721" lon="-2.427416">
        <ele>139.01575</ele>
        <time>2021-06-27T07:57:55.000Z</time>
      </trkpt>
      <trkpt lat="50.667172" lon="-2.427153">
        <ele>138.984812</ele>
        <time>2021-06-27T07:57:57.000Z</time>
      </trkpt>
      <trkpt lat="50.66681" lon="-2.425864">
        <ele>138.932302</ele>
        <time>2021-06-27T07:58:07.000Z</time>
      </trkpt>
      <trkpt lat="50.666243" lon="-2.423902">
        <ele>139.717319</ele>
        <time>2021-06-27T07:58:22.000Z</time>
      </trkpt>
      <trkpt lat="50.666182" lon="-2.423476">
        <ele>139.875847</ele>
        <time>2021-06-27T07:58:25.000Z</time>
      </trkpt>
      <trkpt lat="50.666186" lon="-2.423093">
        <ele>139.903503</ele>
        <time>2021-06-27T07:58:28.000Z</time>
      </trkpt>
      <trkpt lat="50.666547" lon="-2.420369">
        <ele>139.745743</ele>
        <time>2021-06-27T07:58:48.000Z</time>
      </trkpt>
      <trkpt lat="50.667102" lon="-2.417073">
        <ele>136.236062</ele>
        <time>2021-06-27T07:59:12.000Z</time>
      </trkpt>
      <trkpt lat="50.667108" lon="-2.417024">
        <ele>136.171441</ele>
        <time>2021-06-27T07:59:12.000Z</time>
      </trkpt>
      <trkpt lat="50.667187" lon="-2.416657">
        <ele>135.647227</ele>
        <time>2021-06-27T07:59:15.000Z</time>
      </trkpt>
      <trkpt lat="50.667394" lon="-2.415803">
        <ele>134.405291</ele>
        <time>2021-06-27T07:59:21.000Z</time>
      </trkpt>
      <trkpt lat="50.667602" lon="-2.414939">
        <ele>133.131572</ele>
        <time>2021-06-27T07:59:28.000Z</time>
      </trkpt>
      <trkpt lat="50.668681" lon="-2.410633">
        <ele>126.104886</ele>
        <time>2021-06-27T08:00:01.000Z</time>
      </trkpt>
      <trkpt lat="50.668918" lon="-2.409658">
        <ele>123.852854</ele>
        <time>2021-06-27T08:00:08.000Z</time>
      </trkpt>
      <trkpt lat="50.668997" lon="-2.409206">
        <ele>122.39918</ele>
        <time>2021-06-27T08:00:11.000Z</time>
      </trkpt>
      <trkpt lat="50.669437" lon="-2.406884">
        <ele>114.475828</ele>
        <time>2021-06-27T08:00:28.000Z</time>
      </trkpt>
      <trkpt lat="50.670093" lon="-2.404099">
        <ele>103.231428</ele>
        <time>2021-06-27T08:00:49.000Z</time>
      </trkpt>
      <trkpt lat="50.670318" lon="-2.403383">
        <ele>100.423677</ele>
        <time>2021-06-27T08:00:55.000Z</time>
      </trkpt>
      <trkpt lat="50.670662" lon="-2.402914">
        <ele>97.833125</ele>
        <time>2021-06-27T08:01:00.000Z</time>
      </trkpt>
      <trkpt lat="50.671707" lon="-2.401729">
        <ele>90.907765</ele>
        <time>2021-06-27T08:01:14.000Z</time>
      </trkpt>
      <trkpt lat="50.671796" lon="-2.401599">
        <ele>90.263478</ele>
        <time>2021-06-27T08:01:15.000Z</time>
      </trkpt>
      <trkpt lat="50.671879" lon="-2.401492">
        <ele>89.737057</ele>
        <time>2021-06-27T08:01:16.000Z</time>
      </trkpt>
      <trkpt lat="50.672163" lon="-2.400594">
        <ele>86.367547</ele>
        <time>2021-06-27T08:01:23.000Z</time>
      </trkpt>
      <trkpt lat="50.6723" lon="-2.400018">
        <ele>84.284194</ele>
        <time>2021-06-27T08:01:27.000Z</time>
      </trkpt>
      <trkpt lat="50.672459" lon="-2.399455">
        <ele>82.143284</ele>
        <time>2021-06-27T08:01:31.000Z</time>
      </trkpt>
      <trkpt lat="50.672673" lon="-2.399027">
        <ele>80.295828</ele>
        <time>2021-06-27T08:01:35.000Z</time>
      </trkpt>
      <trkpt lat="50.673183" lon="-2.398456">
        <ele>76.937804</ele>
        <time>2021-06-27T08:01:42.000Z</time>
      </trkpt>
      <trkpt lat="50.673533" lon="-2.397889">
        <ele>74.533067</ele>
        <time>2021-06-27T08:01:48.000Z</time>
      </trkpt>
      <trkpt lat="50.674729" lon="-2.3947">
        <ele>65.373533</ele>
        <time>2021-06-27T08:02:14.000Z</time>
      </trkpt>
      <trkpt lat="50.674954" lon="-2.394042">
        <ele>63.914065</ele>
        <time>2021-06-27T08:02:19.000Z</time>
      </trkpt>
      <trkpt lat="50.674992" lon="-2.393905">
        <ele>63.64733</ele>
        <time>2021-06-27T08:02:20.000Z</time>
      </trkpt>
      <trkpt lat="50.675067" lon="-2.393621">
        <ele>63.04943</ele>
        <time>2021-06-27T08:02:22.000Z</time>
      </trkpt>
      <trkpt lat="50.675269" lon="-2.393009">
        <ele>62.408469</ele>
        <time>2021-06-27T08:02:27.000Z</time>
      </trkpt>
      <trkpt lat="50.675408" lon="-2.392519">
        <ele>62.347634</ele>
        <time>2021-06-27T08:02:31.000Z</time>
      </trkpt>
      <trkpt lat="50.675499" lon="-2.39219">
        <ele>62.307718</ele>
        <time>2021-06-27T08:02:34.000Z</time>
      </trkpt>
      <trkpt lat="50.675618" lon="-2.391804">
        <ele>62.259604</ele>
        <time>2021-06-27T08:02:37.000Z</time>
      </trkpt>
      <trkpt lat="50.675659" lon="-2.391477">
        <ele>62.222701</ele>
        <time>2021-06-27T08:02:39.000Z</time>
      </trkpt>
      <trkpt lat="50.675675" lon="-2.391376">
        <ele>62.212077</ele>
        <time>2021-06-27T08:02:40.000Z</time>
      </trkpt>
      <trkpt lat="50.675663" lon="-2.39134">
        <ele>62.207229</ele>
        <time>2021-06-27T08:02:40.000Z</time>
      </trkpt>
      <trkpt lat="50.675612" lon="-2.39113">
        <ele>62.182315</ele>
        <time>2021-06-27T08:02:42.000Z</time>
      </trkpt>
      <trkpt lat="50.67558" lon="-2.391029">
        <ele>62.169399</ele>
        <time>2021-06-27T08:02:43.000Z</time>
      </trkpt>
      <trkpt lat="50.675481" lon="-2.3908">
        <ele>62.136653</ele>
        <time>2021-06-27T08:02:45.000Z</time>
      </trkpt>
      <trkpt lat="50.675291" lon="-2.390247">
        <ele>61.644715</ele>
        <time>2021-06-27T08:02:49.000Z</time>
      </trkpt>
      <trkpt lat="50.675305" lon="-2.390137">
        <ele>61.540247</ele>
        <time>2021-06-27T08:02:50.000Z</time>
      </trkpt>
      <trkpt lat="50.675306" lon="-2.390055">
        <ele>61.470138</ele>
        <time>2021-06-27T08:02:51.000Z</time>
      </trkpt>
      <trkpt lat="50.676285" lon="-2.388166">
        <ele>58.999392</ele>
        <time>2021-06-27T08:03:08.000Z</time>
      </trkpt>
      <trkpt lat="50.676377" lon="-2.387884">
        <ele>58.336828</ele>
        <time>2021-06-27T08:03:10.000Z</time>
      </trkpt>
      <trkpt lat="50.676494" lon="-2.387511">
        <ele>57.482383</ele>
        <time>2021-06-27T08:03:13.000Z</time>
      </trkpt>
      <trkpt lat="50.676635" lon="-2.387122">
        <ele>56.561494</ele>
        <time>2021-06-27T08:03:16.000Z</time>
      </trkpt>
      <trkpt lat="50.676727" lon="-2.386839">
        <ele>55.919526</ele>
        <time>2021-06-27T08:03:18.000Z</time>
      </trkpt>
      <trkpt lat="50.677013" lon="-2.386299">
        <ele>54.478364</ele>
        <time>2021-06-27T08:03:23.000Z</time>
      </trkpt>
      <trkpt lat="50.677165" lon="-2.385983">
        <ele>53.83289</ele>
        <time>2021-06-27T08:03:26.000Z</time>
      </trkpt>
      <trkpt lat="50.677208" lon="-2.385918">
        <ele>53.755074</ele>
        <time>2021-06-27T08:03:27.000Z</time>
      </trkpt>
      <trkpt lat="50.677383" lon="-2.385565">
        <ele>53.335046</ele>
        <time>2021-06-27T08:03:30.000Z</time>
      </trkpt>
      <trkpt lat="50.677554" lon="-2.385293">
        <ele>52.983379</ele>
        <time>2021-06-27T08:03:33.000Z</time>
      </trkpt>
      <trkpt lat="50.677613" lon="-2.385179">
        <ele>52.838168</ele>
        <time>2021-06-27T08:03:34.000Z</time>
      </trkpt>
      <trkpt lat="50.677656" lon="-2.385067">
        <ele>52.713608</ele>
        <time>2021-06-27T08:03:35.000Z</time>
      </trkpt>
      <trkpt lat="50.67769" lon="-2.384925">
        <ele>52.591128</ele>
        <time>2021-06-27T08:03:36.000Z</time>
      </trkpt>
      <trkpt lat="50.677743" lon="-2.384636">
        <ele>52.304675</ele>
        <time>2021-06-27T08:03:38.000Z</time>
      </trkpt>
      <trkpt lat="50.677795" lon="-2.38413">
        <ele>51.834414</ele>
        <time>2021-06-27T08:03:42.000Z</time>
      </trkpt>
      <trkpt lat="50.677884" lon="-2.383931">
        <ele>51.607938</ele>
        <time>2021-06-27T08:03:44.000Z</time>
      </trkpt>
      <trkpt lat="50.677992" lon="-2.383775">
        <ele>51.384446</ele>
        <time>2021-06-27T08:03:46.000Z</time>
      </trkpt>
      <trkpt lat="50.678128" lon="-2.384196">
        <ele>51.728317</ele>
        <time>2021-06-27T08:03:49.000Z</time>
      </trkpt>
      <trkpt lat="50.67812" lon="-2.384195">
        <ele>51.728315</ele>
        <time>2021-06-27T08:03:49.000Z</time>
      </trkpt>
      <trkpt lat="50.678199" lon="-2.384532">
        <ele>52.054312</ele>
        <time>2021-06-27T08:03:52.000Z</time>
      </trkpt>
      <trkpt lat="50.678239" lon="-2.384743">
        <ele>52.258284</ele>
        <time>2021-06-27T08:03:54.000Z</time>
      </trkpt>
      <trkpt lat="50.678286" lon="-2.385066">
        <ele>52.562946</ele>
        <time>2021-06-27T08:03:56.000Z</time>
      </trkpt>
      <trkpt lat="50.678293" lon="-2.385203">
        <ele>52.681699</ele>
        <time>2021-06-27T08:03:57.000Z</time>
      </trkpt>
      <trkpt lat="50.678377" lon="-2.385445">
        <ele>52.935638</ele>
        <time>2021-06-27T08:03:59.000Z</time>
      </trkpt>
      <trkpt lat="50.678532" lon="-2.385797">
        <ele>53.333474</ele>
        <time>2021-06-27T08:04:02.000Z</time>
      </trkpt>
      <trkpt lat="50.678747" lon="-2.386144">
        <ele>53.761937</ele>
        <time>2021-06-27T08:04:05.000Z</time>
      </trkpt>
      <trkpt lat="50.679036" lon="-2.386606">
        <ele>54.503632</ele>
        <time>2021-06-27T08:04:10.000Z</time>
      </trkpt>
      <trkpt lat="50.679212" lon="-2.386928">
        <ele>54.99633</ele>
        <time>2021-06-27T08:04:13.000Z</time>
      </trkpt>
      <trkpt lat="50.679394" lon="-2.387352">
        <ele>55.598798</ele>
        <time>2021-06-27T08:04:17.000Z</time>
      </trkpt>
      <trkpt lat="50.679731" lon="-2.388482">
        <ele>57.070983</ele>
        <time>2021-06-27T08:04:26.000Z</time>
      </trkpt>
      <trkpt lat="50.679955" lon="-2.389051">
        <ele>57.300599</ele>
        <time>2021-06-27T08:04:31.000Z</time>
      </trkpt>
      <trkpt lat="50.680117" lon="-2.389443">
        <ele>57.303077</ele>
        <time>2021-06-27T08:04:34.000Z</time>
      </trkpt>
      <trkpt lat="50.680425" lon="-2.390257">
        <ele>57.308161</ele>
        <time>2021-06-27T08:04:41.000Z</time>
      </trkpt>
      <trkpt lat="50.681093" lon="-2.392509">
        <ele>57.750962</ele>
        <time>2021-06-27T08:04:59.000Z</time>
      </trkpt>
      <trkpt lat="50.681152" lon="-2.392721">
        <ele>57.816261</ele>
        <time>2021-06-27T08:05:01.000Z</time>
      </trkpt>
      <trkpt lat="50.681378" lon="-2.393615">
        <ele>58.088145</ele>
        <time>2021-06-27T08:05:08.000Z</time>
      </trkpt>
      <trkpt lat="50.681547" lon="-2.394037">
        <ele>59.247361</ele>
        <time>2021-06-27T08:05:12.000Z</time>
      </trkpt>
      <trkpt lat="50.681764" lon="-2.394497">
        <ele>60.814268</ele>
        <time>2021-06-27T08:05:16.000Z</time>
      </trkpt>
      <trkpt lat="50.682397" lon="-2.39511">
        <ele>64.125002</ele>
        <time>2021-06-27T08:05:24.000Z</time>
      </trkpt>
      <trkpt lat="50.682856" lon="-2.39552">
        <ele>66.472785</ele>
        <time>2021-06-27T08:05:30.000Z</time>
      </trkpt>
      <trkpt lat="50.683034" lon="-2.395703">
        <ele>67.418881</ele>
        <time>2021-06-27T08:05:32.000Z</time>
      </trkpt>
      <trkpt lat="50.683595" lon="-2.396363">
        <ele>70.501397</ele>
        <time>2021-06-27T08:05:40.000Z</time>
      </trkpt>
      <trkpt lat="50.684148" lon="-2.396855">
        <ele>73.315573</ele>
        <time>2021-06-27T08:05:47.000Z</time>
      </trkpt>
      <trkpt lat="50.688389" lon="-2.399327">
        <ele>78.899195</ele>
        <time>2021-06-27T08:06:37.000Z</time>
      </trkpt>
      <trkpt lat="50.690173" lon="-2.400586">
        <ele>70.963255</ele>
        <time>2021-06-27T08:06:59.000Z</time>
      </trkpt>
      <trkpt lat="50.690927" lon="-2.401067">
        <ele>66.132876</ele>
        <time>2021-06-27T08:07:08.000Z</time>
      </trkpt>
      <trkpt lat="50.691322" lon="-2.401356">
        <ele>64.382962</ele>
        <time>2021-06-27T08:07:13.000Z</time>
      </trkpt>
      <trkpt lat="50.692071" lon="-2.401919">
        <ele>61.25191</ele>
        <time>2021-06-27T08:07:22.000Z</time>
      </trkpt>
      <trkpt lat="50.692612" lon="-2.402552">
        <ele>59.100242</ele>
        <time>2021-06-27T08:07:29.000Z</time>
      </trkpt>
      <trkpt lat="50.692642" lon="-2.40261">
        <ele>59.213655</ele>
        <time>2021-06-27T08:07:30.000Z</time>
      </trkpt>
      <trkpt lat="50.693098" lon="-2.403154">
        <ele>60.273774</ele>
        <time>2021-06-27T08:07:36.000Z</time>
      </trkpt>
      <trkpt lat="50.693317" lon="-2.40333">
        <ele>60.7342</ele>
        <time>2021-06-27T08:07:39.000Z</time>
      </trkpt>
      <trkpt lat="50.693835" lon="-2.403422">
        <ele>61.704425</ele>
        <time>2021-06-27T08:07:45.000Z</time>
      </trkpt>
      <trkpt lat="50.694167" lon="-2.403404">
        <ele>62.307993</ele>
        <time>2021-06-27T08:07:49.000Z</time>
      </trkpt>
      <trkpt lat="50.694823" lon="-2.403331">
        <ele>65.836917</ele>
        <time>2021-06-27T08:07:56.000Z</time>
      </trkpt>
      <trkpt lat="50.696193" lon="-2.403137">
        <ele>72.479168</ele>
        <time>2021-06-27T08:08:11.000Z</time>
      </trkpt>
      <trkpt lat="50.696469" lon="-2.40326">
        <ele>73.011447</ele>
        <time>2021-06-27T08:08:14.000Z</time>
      </trkpt>
      <trkpt lat="50.696779" lon="-2.40358">
        <ele>73.734652</ele>
        <time>2021-06-27T08:08:18.000Z</time>
      </trkpt>
      <trkpt lat="50.697011" lon="-2.403955">
        <ele>74.359875</ele>
        <time>2021-06-27T08:08:22.000Z</time>
      </trkpt>
      <trkpt lat="50.697234" lon="-2.404769">
        <ele>75.412626</ele>
        <time>2021-06-27T08:08:28.000Z</time>
      </trkpt>
      <trkpt lat="50.69744" lon="-2.405764">
        <ele>72.37612</ele>
        <time>2021-06-27T08:08:35.000Z</time>
      </trkpt>
      <trkpt lat="50.697888" lon="-2.40819">
        <ele>64.408542</ele>
        <time>2021-06-27T08:08:53.000Z</time>
      </trkpt>
      <trkpt lat="50.698168" lon="-2.4093">
        <ele>60.380322</ele>
        <time>2021-06-27T08:09:01.000Z</time>
      </trkpt>
      <trkpt lat="50.69838" lon="-2.409709">
        <ele>58.640951</ele>
        <time>2021-06-27T08:09:05.000Z</time>
      </trkpt>
      <trkpt lat="50.698433" lon="-2.409798">
        <ele>58.24737</ele>
        <time>2021-06-27T08:09:06.000Z</time>
      </trkpt>
      <trkpt lat="50.698741" lon="-2.410248">
        <ele>57.048064</ele>
        <time>2021-06-27T08:09:11.000Z</time>
      </trkpt>
      <trkpt lat="50.699759" lon="-2.411484">
        <ele>56.148858</ele>
        <time>2021-06-27T08:09:25.000Z</time>
      </trkpt>
      <trkpt lat="50.700835" lon="-2.412453">
        <ele>58.433312</ele>
        <time>2021-06-27T08:09:39.000Z</time>
      </trkpt>
      <trkpt lat="50.700859" lon="-2.412462">
        <ele>58.481505</ele>
        <time>2021-06-27T08:09:39.000Z</time>
      </trkpt>
      <trkpt lat="50.701311" lon="-2.412688">
        <ele>59.733727</ele>
        <time>2021-06-27T08:09:44.000Z</time>
      </trkpt>
      <trkpt lat="50.701868" lon="-2.413115">
        <ele>60.587545</ele>
        <time>2021-06-27T08:09:51.000Z</time>
      </trkpt>
      <trkpt lat="50.702551" lon="-2.413724">
        <ele>60.530624</ele>
        <time>2021-06-27T08:10:00.000Z</time>
      </trkpt>
      <trkpt lat="50.702784" lon="-2.413983">
        <ele>60.510414</ele>
        <time>2021-06-27T08:10:03.000Z</time>
      </trkpt>
      <trkpt lat="50.703407" lon="-2.41471">
        <ele>59.793277</ele>
        <time>2021-06-27T08:10:12.000Z</time>
      </trkpt>
      <trkpt lat="50.704317" lon="-2.415291">
        <ele>57.72925</ele>
        <time>2021-06-27T08:10:23.000Z</time>
      </trkpt>
      <trkpt lat="50.704638" lon="-2.41546">
        <ele>56.990753</ele>
        <time>2021-06-27T08:10:27.000Z</time>
      </trkpt>
      <trkpt lat="50.70504" lon="-2.415672">
        <ele>56.640884</ele>
        <time>2021-06-27T08:10:32.000Z</time>
      </trkpt>
      <trkpt lat="50.705247" lon="-2.415728">
        <ele>56.613335</ele>
        <time>2021-06-27T08:10:34.000Z</time>
      </trkpt>
      <trkpt lat="50.705334" lon="-2.415822">
        <ele>56.599453</ele>
        <time>2021-06-27T08:10:35.000Z</time>
      </trkpt>
      <trkpt lat="50.705454" lon="-2.415953">
        <ele>56.579607</ele>
        <time>2021-06-27T08:10:37.000Z</time>
      </trkpt>
      <trkpt lat="50.705453" lon="-2.415959">
        <ele>56.578996</ele>
        <time>2021-06-27T08:10:37.000Z</time>
      </trkpt>
      <trkpt lat="50.705487" lon="-2.415987">
        <ele>56.574052</ele>
        <time>2021-06-27T08:10:37.000Z</time>
      </trkpt>
      <trkpt lat="50.705535" lon="-2.415991">
        <ele>56.569028</ele>
        <time>2021-06-27T08:10:38.000Z</time>
      </trkpt>
      <trkpt lat="50.705559" lon="-2.41599">
        <ele>56.564121</ele>
        <time>2021-06-27T08:10:38.000Z</time>
      </trkpt>
      <trkpt lat="50.705607" lon="-2.415946">
        <ele>56.559135</ele>
        <time>2021-06-27T08:10:39.000Z</time>
      </trkpt>
      <trkpt lat="50.705629" lon="-2.4159">
        <ele>56.554186</ele>
        <time>2021-06-27T08:10:39.000Z</time>
      </trkpt>
      <trkpt lat="50.705628" lon="-2.41586">
        <ele>56.550349</ele>
        <time>2021-06-27T08:10:39.000Z</time>
      </trkpt>
      <trkpt lat="50.705647" lon="-2.415819">
        <ele>56.546556</ele>
        <time>2021-06-27T08:10:39.000Z</time>
      </trkpt>
      <trkpt lat="50.705658" lon="-2.415525">
        <ele>56.521527</ele>
        <time>2021-06-27T08:10:41.000Z</time>
      </trkpt>
      <trkpt lat="50.705735" lon="-2.415157">
        <ele>56.490242</ele>
        <time>2021-06-27T08:10:44.000Z</time>
      </trkpt>
      <trkpt lat="50.705871" lon="-2.413892">
        <ele>56.551924</ele>
        <time>2021-06-27T08:10:53.000Z</time>
      </trkpt>
      <trkpt lat="50.705887" lon="-2.413071">
        <ele>56.688585</ele>
        <time>2021-06-27T08:10:59.000Z</time>
      </trkpt>
      <trkpt lat="50.70585" lon="-2.410963">
        <ele>57.778895</ele>
        <time>2021-06-27T08:11:14.000Z</time>
      </trkpt>
      <trkpt lat="50.705781" lon="-2.408601">
        <ele>60.565397</ele>
        <time>2021-06-27T08:11:31.000Z</time>
      </trkpt>
      <trkpt lat="50.705735" lon="-2.406072">
        <ele>64.379156</ele>
        <time>2021-06-27T08:11:49.000Z</time>
      </trkpt>
      <trkpt lat="50.705757" lon="-2.404774">
        <ele>63.968983</ele>
        <time>2021-06-27T08:11:58.000Z</time>
      </trkpt>
      <trkpt lat="50.705797" lon="-2.40416">
        <ele>63.758292</ele>
        <time>2021-06-27T08:12:02.000Z</time>
      </trkpt>
      <trkpt lat="50.705839" lon="-2.40308">
        <ele>63.18854</ele>
        <time>2021-06-27T08:12:10.000Z</time>
      </trkpt>
      <trkpt lat="50.705885" lon="-2.401402">
        <ele>59.876162</ele>
        <time>2021-06-27T08:12:22.000Z</time>
      </trkpt>
      <trkpt lat="50.705829" lon="-2.400698">
        <ele>58.50725</ele>
        <time>2021-06-27T08:12:27.000Z</time>
      </trkpt>
      <trkpt lat="50.705792" lon="-2.400336">
        <ele>57.793529</ele>
        <time>2021-06-27T08:12:30.000Z</time>
      </trkpt>
      <trkpt lat="50.705814" lon="-2.400325">
        <ele>57.66648</ele>
        <time>2021-06-27T08:12:30.000Z</time>
      </trkpt>
      <trkpt lat="50.705943" lon="-2.400257">
        <ele>57.256417</ele>
        <time>2021-06-27T08:12:32.000Z</time>
      </trkpt>
      <trkpt lat="50.706048" lon="-2.400126">
        <ele>56.828637</ele>
        <time>2021-06-27T08:12:33.000Z</time>
      </trkpt>
      <trkpt lat="50.706231" lon="-2.39987">
        <ele>56.048702</ele>
        <time>2021-06-27T08:12:36.000Z</time>
      </trkpt>
      <trkpt lat="50.706332" lon="-2.399684">
        <ele>55.555095</ele>
        <time>2021-06-27T08:12:38.000Z</time>
      </trkpt>
      <trkpt lat="50.706876" lon="-2.398527">
        <ele>52.633853</ele>
        <time>2021-06-27T08:12:48.000Z</time>
      </trkpt>
      <trkpt lat="50.706991" lon="-2.398339">
        <ele>52.151169</ele>
        <time>2021-06-27T08:12:50.000Z</time>
      </trkpt>
      <trkpt lat="50.707094" lon="-2.398172">
        <ele>51.854967</ele>
        <time>2021-06-27T08:12:52.000Z</time>
      </trkpt>
      <trkpt lat="50.707101" lon="-2.398132">
        <ele>51.792889</ele>
        <time>2021-06-27T08:12:52.000Z</time>
      </trkpt>
      <trkpt lat="50.707445" lon="-2.397627">
        <ele>50.879859</ele>
        <time>2021-06-27T08:12:57.000Z</time>
      </trkpt>
      <trkpt lat="50.707763" lon="-2.397195">
        <ele>50.033072</ele>
        <time>2021-06-27T08:13:02.000Z</time>
      </trkpt>
      <trkpt lat="50.70878" lon="-2.396494">
        <ele>48.448939</ele>
        <time>2021-06-27T08:13:14.000Z</time>
      </trkpt>
      <trkpt lat="50.709193" lon="-2.396109">
        <ele>48.277477</ele>
        <time>2021-06-27T08:13:19.000Z</time>
      </trkpt>
      <trkpt lat="50.709219" lon="-2.396037">
        <ele>48.256085</ele>
        <time>2021-06-27T08:13:20.000Z</time>
      </trkpt>
      <trkpt lat="50.709363" lon="-2.39604">
        <ele>48.205272</ele>
        <time>2021-06-27T08:13:22.000Z</time>
      </trkpt>
      <trkpt lat="50.710531" lon="-2.395984">
        <ele>47.919867</ele>
        <time>2021-06-27T08:13:35.000Z</time>
      </trkpt>
      <trkpt lat="50.711727" lon="-2.395936">
        <ele>47.872242</ele>
        <time>2021-06-27T08:13:48.000Z</time>
      </trkpt>
      <trkpt lat="50.712631" lon="-2.395805">
        <ele>47.854804</ele>
        <time>2021-06-27T08:13:58.000Z</time>
      </trkpt>
      <trkpt lat="50.712951" lon="-2.396216">
        <ele>47.848682</ele>
        <time>2021-06-27T08:14:03.000Z</time>
      </trkpt>
      <trkpt lat="50.713159" lon="-2.396516">
        <ele>47.844759</ele>
        <time>2021-06-27T08:14:06.000Z</time>
      </trkpt>
      <trkpt lat="50.713622" lon="-2.397237">
        <ele>47.984917</ele>
        <time>2021-06-27T08:14:13.000Z</time>
      </trkpt>
      <trkpt lat="50.713755" lon="-2.397389">
        <ele>48.068589</ele>
        <time>2021-06-27T08:14:15.000Z</time>
      </trkpt>
      <trkpt lat="50.71438" lon="-2.397298">
        <ele>48.398776</ele>
        <time>2021-06-27T08:14:22.000Z</time>
      </trkpt>
      <trkpt lat="50.715163" lon="-2.397174">
        <ele>48.881596</ele>
        <time>2021-06-27T08:14:31.000Z</time>
      </trkpt>
      <trkpt lat="50.71521" lon="-2.397166">
        <ele>48.951608</ele>
        <time>2021-06-27T08:14:32.000Z</time>
      </trkpt>
      <trkpt lat="50.715392" lon="-2.397128">
        <ele>49.284689</ele>
        <time>2021-06-27T08:14:34.000Z</time>
      </trkpt>
      <trkpt lat="50.715962" lon="-2.396895">
        <ele>50.337378</ele>
        <time>2021-06-27T08:14:41.000Z</time>
      </trkpt>
      <trkpt lat="50.71642" lon="-2.396807">
        <ele>51.16752</ele>
        <time>2021-06-27T08:14:46.000Z</time>
      </trkpt>
      <trkpt lat="50.716833" lon="-2.3968">
        <ele>51.91928</ele>
        <time>2021-06-27T08:14:51.000Z</time>
      </trkpt>
      <trkpt lat="50.718125" lon="-2.396368">
        <ele>54.698325</ele>
        <time>2021-06-27T08:15:06.000Z</time>
      </trkpt>
      <trkpt lat="50.719475" lon="-2.395933">
        <ele>57.435323</ele>
        <time>2021-06-27T08:15:21.000Z</time>
      </trkpt>
      <trkpt lat="50.721867" lon="-2.395145">
        <ele>62.736331</ele>
        <time>2021-06-27T08:15:48.000Z</time>
      </trkpt>
      <trkpt lat="50.722472" lon="-2.394864">
        <ele>64.617011</ele>
        <time>2021-06-27T08:15:55.000Z</time>
      </trkpt>
      <trkpt lat="50.723962" lon="-2.394083">
        <ele>70.252351</ele>
        <time>2021-06-27T08:16:12.000Z</time>
      </trkpt>
      <trkpt lat="50.724288" lon="-2.393984">
        <ele>71.448013</ele>
        <time>2021-06-27T08:16:16.000Z</time>
      </trkpt>
      <trkpt lat="50.724796" lon="-2.39384">
        <ele>73.223514</ele>
        <time>2021-06-27T08:16:22.000Z</time>
      </trkpt>
      <trkpt lat="50.726642" lon="-2.393258">
        <ele>79.165327</ele>
        <time>2021-06-27T08:16:43.000Z</time>
      </trkpt>
      <trkpt lat="50.728117" lon="-2.392947">
        <ele>82.627749</ele>
        <time>2021-06-27T08:17:00.000Z</time>
      </trkpt>
      <trkpt lat="50.728418" lon="-2.39289">
        <ele>83.200687</ele>
        <time>2021-06-27T08:17:03.000Z</time>
      </trkpt>
      <trkpt lat="50.728431" lon="-2.392884">
        <ele>83.219528</ele>
        <time>2021-06-27T08:17:03.000Z</time>
      </trkpt>
      <trkpt lat="50.728712" lon="-2.392873">
        <ele>83.767022</ele>
        <time>2021-06-27T08:17:06.000Z</time>
      </trkpt>
      <trkpt lat="50.728784" lon="-2.392862">
        <ele>83.905309</ele>
        <time>2021-06-27T08:17:07.000Z</time>
      </trkpt>
      <trkpt lat="50.728868" lon="-2.39285">
        <ele>84.049202</ele>
        <time>2021-06-27T08:17:08.000Z</time>
      </trkpt>
      <trkpt lat="50.729144" lon="-2.392859">
        <ele>84.575875</ele>
        <time>2021-06-27T08:17:11.000Z</time>
      </trkpt>
      <trkpt lat="50.729568" lon="-2.392863">
        <ele>85.383066</ele>
        <time>2021-06-27T08:17:16.000Z</time>
      </trkpt>
      <trkpt lat="50.730329" lon="-2.392836">
        <ele>86.871814</ele>
        <time>2021-06-27T08:17:24.000Z</time>
      </trkpt>
      <trkpt lat="50.730754" lon="-2.392676">
        <ele>87.741546</ele>
        <time>2021-06-27T08:17:29.000Z</time>
      </trkpt>
      <trkpt lat="50.730861" lon="-2.392618">
        <ele>87.94781</ele>
        <time>2021-06-27T08:17:30.000Z</time>
      </trkpt>
      <trkpt lat="50.730955" lon="-2.392568">
        <ele>88.13906</ele>
        <time>2021-06-27T08:17:31.000Z</time>
      </trkpt>
      <trkpt lat="50.731245" lon="-2.392305">
        <ele>88.565699</ele>
        <time>2021-06-27T08:17:35.000Z</time>
      </trkpt>
      <trkpt lat="50.731508" lon="-2.392207">
        <ele>88.912897</ele>
        <time>2021-06-27T08:17:38.000Z</time>
      </trkpt>
      <trkpt lat="50.73199" lon="-2.392227">
        <ele>89.538353</ele>
        <time>2021-06-27T08:17:43.000Z</time>
      </trkpt>
      <trkpt lat="50.732974" lon="-2.392065">
        <ele>89.676841</ele>
        <time>2021-06-27T08:17:54.000Z</time>
      </trkpt>
      <trkpt lat="50.73391" lon="-2.39216">
        <ele>86.991491</ele>
        <time>2021-06-27T08:18:04.000Z</time>
      </trkpt>
      <trkpt lat="50.734139" lon="-2.392045">
        <ele>86.34275</ele>
        <time>2021-06-27T08:18:07.000Z</time>
      </trkpt>
      <trkpt lat="50.734455" lon="-2.391784">
        <ele>85.342949</ele>
        <time>2021-06-27T08:18:11.000Z</time>
      </trkpt>
      <trkpt lat="50.734647" lon="-2.391477">
        <ele>84.655759</ele>
        <time>2021-06-27T08:18:14.000Z</time>
      </trkpt>
      <trkpt lat="50.734745" lon="-2.391593">
        <ele>84.336007</ele>
        <time>2021-06-27T08:18:15.000Z</time>
      </trkpt>
      <trkpt lat="50.734894" lon="-2.391709">
        <ele>83.925011</ele>
        <time>2021-06-27T08:18:17.000Z</time>
      </trkpt>
      <trkpt lat="50.735376" lon="-2.392077">
        <ele>82.536892</ele>
        <time>2021-06-27T08:18:23.000Z</time>
      </trkpt>
      <trkpt lat="50.735507" lon="-2.39212">
        <ele>82.226543</ele>
        <time>2021-06-27T08:18:24.000Z</time>
      </trkpt>
      <trkpt lat="50.73576" lon="-2.391981">
        <ele>81.532248</ele>
        <time>2021-06-27T08:18:27.000Z</time>
      </trkpt>
      <trkpt lat="50.735876" lon="-2.391695">
        <ele>81.001177</ele>
        <time>2021-06-27T08:18:29.000Z</time>
      </trkpt>
      <trkpt lat="50.7359" lon="-2.39057">
        <ele>81.919004</ele>
        <time>2021-06-27T08:18:37.000Z</time>
      </trkpt>
      <trkpt lat="50.735858" lon="-2.390479">
        <ele>82.06651</ele>
        <time>2021-06-27T08:18:38.000Z</time>
      </trkpt>
      <trkpt lat="50.735941" lon="-2.390273">
        <ele>82.360579</ele>
        <time>2021-06-27T08:18:40.000Z</time>
      </trkpt>
      <trkpt lat="50.736046" lon="-2.390027">
        <ele>82.708231</ele>
        <time>2021-06-27T08:18:42.000Z</time>
      </trkpt>
      <trkpt lat="50.737696" lon="-2.385112">
        <ele>92.02704</ele>
        <time>2021-06-27T08:19:21.000Z</time>
      </trkpt>
      <trkpt lat="50.738033" lon="-2.384276">
        <ele>94.050947</ele>
        <time>2021-06-27T08:19:28.000Z</time>
      </trkpt>
      <trkpt lat="50.738141" lon="-2.384009">
        <ele>94.68774</ele>
        <time>2021-06-27T08:19:30.000Z</time>
      </trkpt>
      <trkpt lat="50.73942" lon="-2.381753">
        <ele>104.555235</ele>
        <time>2021-06-27T08:19:51.000Z</time>
      </trkpt>
      <trkpt lat="50.740389" lon="-2.379966">
        <ele>114.108396</ele>
        <time>2021-06-27T08:20:08.000Z</time>
      </trkpt>
      <trkpt lat="50.741277" lon="-2.378475">
        <ele>119.698288</ele>
        <time>2021-06-27T08:20:22.000Z</time>
      </trkpt>
      <trkpt lat="50.742062" lon="-2.377335">
        <ele>120.971708</ele>
        <time>2021-06-27T08:20:34.000Z</time>
      </trkpt>
      <trkpt lat="50.743496" lon="-2.375233">
        <ele>111.47684</ele>
        <time>2021-06-27T08:20:56.000Z</time>
      </trkpt>
      <trkpt lat="50.743896" lon="-2.374548">
        <ele>107.24188</ele>
        <time>2021-06-27T08:21:03.000Z</time>
      </trkpt>
      <trkpt lat="50.744115" lon="-2.374031">
        <ele>104.327799</ele>
        <time>2021-06-27T08:21:07.000Z</time>
      </trkpt>
      <trkpt lat="50.744491" lon="-2.372564">
        <ele>97.803614</ele>
        <time>2021-06-27T08:21:18.000Z</time>
      </trkpt>
      <trkpt lat="50.744557" lon="-2.371974">
        <ele>95.477763</ele>
        <time>2021-06-27T08:21:22.000Z</time>
      </trkpt>
      <trkpt lat="50.744563" lon="-2.370304">
        <ele>90.135523</ele>
        <time>2021-06-27T08:21:34.000Z</time>
      </trkpt>
      <trkpt lat="50.744514" lon="-2.369474">
        <ele>88.749917</ele>
        <time>2021-06-27T08:21:40.000Z</time>
      </trkpt>
      <trkpt lat="50.744468" lon="-2.36857">
        <ele>87.215753</ele>
        <time>2021-06-27T08:21:46.000Z</time>
      </trkpt>
      <trkpt lat="50.744531" lon="-2.367329">
        <ele>86.228264</ele>
        <time>2021-06-27T08:21:55.000Z</time>
      </trkpt>
      <trkpt lat="50.744531" lon="-2.366499">
        <ele>86.141167</ele>
        <time>2021-06-27T08:22:01.000Z</time>
      </trkpt>
      <trkpt lat="50.744628" lon="-2.366453">
        <ele>86.123493</ele>
        <time>2021-06-27T08:22:02.000Z</time>
      </trkpt>
      <trkpt lat="50.744767" lon="-2.36629">
        <ele>86.094765</ele>
        <time>2021-06-27T08:22:04.000Z</time>
      </trkpt>
      <trkpt lat="50.744897" lon="-2.365731">
        <ele>86.032683</ele>
        <time>2021-06-27T08:22:08.000Z</time>
      </trkpt>
      <trkpt lat="50.744924" lon="-2.365487">
        <ele>86.0068</ele>
        <time>2021-06-27T08:22:10.000Z</time>
      </trkpt>
      <trkpt lat="50.744854" lon="-2.365345">
        <ele>85.951375</ele>
        <time>2021-06-27T08:22:11.000Z</time>
      </trkpt>
      <trkpt lat="50.744358" lon="-2.364853">
        <ele>85.64494</ele>
        <time>2021-06-27T08:22:18.000Z</time>
      </trkpt>
      <trkpt lat="50.744102" lon="-2.364513">
        <ele>85.476507</ele>
        <time>2021-06-27T08:22:22.000Z</time>
      </trkpt>
      <trkpt lat="50.744052" lon="-2.364304">
        <ele>85.399684</ele>
        <time>2021-06-27T08:22:24.000Z</time>
      </trkpt>
      <trkpt lat="50.744045" lon="-2.363773">
        <ele>85.226571</ele>
        <time>2021-06-27T08:22:28.000Z</time>
      </trkpt>
      <trkpt lat="50.744168" lon="-2.363329">
        <ele>85.057165</ele>
        <time>2021-06-27T08:22:31.000Z</time>
      </trkpt>
      <trkpt lat="50.744287" lon="-2.363165">
        <ele>84.511687</ele>
        <time>2021-06-27T08:22:33.000Z</time>
      </trkpt>
      <trkpt lat="50.744328" lon="-2.363218">
        <ele>84.307238</ele>
        <time>2021-06-27T08:22:34.000Z</time>
      </trkpt>
      <trkpt lat="50.74449" lon="-2.363253">
        <ele>83.716756</ele>
        <time>2021-06-27T08:22:36.000Z</time>
      </trkpt>
      <trkpt lat="50.744537" lon="-2.363203">
        <ele>83.527065</ele>
        <time>2021-06-27T08:22:37.000Z</time>
      </trkpt>
      <trkpt lat="50.744564" lon="-2.363128">
        <ele>83.321766</ele>
        <time>2021-06-27T08:22:38.000Z</time>
      </trkpt>
      <trkpt lat="50.74456" lon="-2.362853">
        <ele>82.732056</ele>
        <time>2021-06-27T08:22:40.000Z</time>
      </trkpt>
      <trkpt lat="50.744504" lon="-2.362794">
        <ele>82.498251</ele>
        <time>2021-06-27T08:22:41.000Z</time>
      </trkpt>
      <trkpt lat="50.744704" lon="-2.362384">
        <ele>81.34929</ele>
        <time>2021-06-27T08:22:45.000Z</time>
      </trkpt>
      <trkpt lat="50.745621" lon="-2.361127">
        <ele>76.834585</ele>
        <time>2021-06-27T08:22:59.000Z</time>
      </trkpt>
      <trkpt lat="50.746182" lon="-2.360138">
        <ele>73.387158</ele>
        <time>2021-06-27T08:23:08.000Z</time>
      </trkpt>
      <trkpt lat="50.746398" lon="-2.359712">
        <ele>72.010422</ele>
        <time>2021-06-27T08:23:12.000Z</time>
      </trkpt>
      <trkpt lat="50.746882" lon="-2.358203">
        <ele>69.4546</ele>
        <time>2021-06-27T08:23:24.000Z</time>
      </trkpt>
      <trkpt lat="50.747058" lon="-2.357634">
        <ele>68.640366</ele>
        <time>2021-06-27T08:23:28.000Z</time>
      </trkpt>
      <trkpt lat="50.747218" lon="-2.357047">
        <ele>67.77721</ele>
        <time>2021-06-27T08:23:32.000Z</time>
      </trkpt>
      <trkpt lat="50.74777" lon="-2.355395">
        <ele>68.193452</ele>
        <time>2021-06-27T08:23:45.000Z</time>
      </trkpt>
      <trkpt lat="50.747851" lon="-2.355137">
        <ele>68.281134</ele>
        <time>2021-06-27T08:23:47.000Z</time>
      </trkpt>
      <trkpt lat="50.748243" lon="-2.353913">
        <ele>68.69929</ele>
        <time>2021-06-27T08:23:57.000Z</time>
      </trkpt>
      <trkpt lat="50.7486" lon="-2.352685">
        <ele>69.065213</ele>
        <time>2021-06-27T08:24:07.000Z</time>
      </trkpt>
      <trkpt lat="50.748706" lon="-2.352011">
        <ele>69.256643</ele>
        <time>2021-06-27T08:24:12.000Z</time>
      </trkpt>
      <trkpt lat="50.748813" lon="-2.35125">
        <ele>69.014674</ele>
        <time>2021-06-27T08:24:17.000Z</time>
      </trkpt>
      <trkpt lat="50.748832" lon="-2.350787">
        <ele>68.755468</ele>
        <time>2021-06-27T08:24:20.000Z</time>
      </trkpt>
      <trkpt lat="50.748833" lon="-2.350748">
        <ele>68.734448</ele>
        <time>2021-06-27T08:24:20.000Z</time>
      </trkpt>
      <trkpt lat="50.748852" lon="-2.350322">
        <ele>68.498863</ele>
        <time>2021-06-27T08:24:23.000Z</time>
      </trkpt>
      <trkpt lat="50.748833" lon="-2.349836">
        <ele>68.234462</ele>
        <time>2021-06-27T08:24:26.000Z</time>
      </trkpt>
      <trkpt lat="50.748827" lon="-2.349749">
        <ele>68.189778</ele>
        <time>2021-06-27T08:24:27.000Z</time>
      </trkpt>
      <trkpt lat="50.748811" lon="-2.349465">
        <ele>68.028148</ele>
        <time>2021-06-27T08:24:29.000Z</time>
      </trkpt>
      <trkpt lat="50.748775" lon="-2.349219">
        <ele>67.891659</ele>
        <time>2021-06-27T08:24:31.000Z</time>
      </trkpt>
      <trkpt lat="50.748626" lon="-2.348201">
        <ele>67.270649</ele>
        <time>2021-06-27T08:24:38.000Z</time>
      </trkpt>
      <trkpt lat="50.748578" lon="-2.347968">
        <ele>67.126474</ele>
        <time>2021-06-27T08:24:40.000Z</time>
      </trkpt>
      <trkpt lat="50.748459" lon="-2.347258">
        <ele>66.691989</ele>
        <time>2021-06-27T08:24:45.000Z</time>
      </trkpt>
      <trkpt lat="50.748363" lon="-2.346902">
        <ele>66.453866</ele>
        <time>2021-06-27T08:24:48.000Z</time>
      </trkpt>
      <trkpt lat="50.748276" lon="-2.346532">
        <ele>66.218109</ele>
        <time>2021-06-27T08:24:51.000Z</time>
      </trkpt>
      <trkpt lat="50.748249" lon="-2.346414">
        <ele>66.139211</ele>
        <time>2021-06-27T08:24:52.000Z</time>
      </trkpt>
      <trkpt lat="50.748252" lon="-2.346419">
        <ele>66.139197</ele>
        <time>2021-06-27T08:24:52.000Z</time>
      </trkpt>
      <trkpt lat="50.748145" lon="-2.346034">
        <ele>65.949514</ele>
        <time>2021-06-27T08:24:55.000Z</time>
      </trkpt>
      <trkpt lat="50.748029" lon="-2.345731">
        <ele>65.814915</ele>
        <time>2021-06-27T08:24:57.000Z</time>
      </trkpt>
      <trkpt lat="50.748003" lon="-2.345646">
        <ele>65.773181</ele>
        <time>2021-06-27T08:24:58.000Z</time>
      </trkpt>
      <trkpt lat="50.747942" lon="-2.345524">
        <ele>65.71402</ele>
        <time>2021-06-27T08:24:59.000Z</time>
      </trkpt>
      <trkpt lat="50.747609" lon="-2.344929">
        <ele>65.418415</ele>
        <time>2021-06-27T08:25:05.000Z</time>
      </trkpt>
      <trkpt lat="50.747453" lon="-2.344658">
        <ele>65.276058</ele>
        <time>2021-06-27T08:25:08.000Z</time>
      </trkpt>
      <trkpt lat="50.747224" lon="-2.34423">
        <ele>65.066698</ele>
        <time>2021-06-27T08:25:12.000Z</time>
      </trkpt>
      <trkpt lat="50.746939" lon="-2.343654">
        <ele>65.025571</ele>
        <time>2021-06-27T08:25:17.000Z</time>
      </trkpt>
      <trkpt lat="50.7467" lon="-2.34325">
        <ele>65.094483</ele>
        <time>2021-06-27T08:25:21.000Z</time>
      </trkpt>
      <trkpt lat="50.746582" lon="-2.342925">
        <ele>65.140556</ele>
        <time>2021-06-27T08:25:24.000Z</time>
      </trkpt>
      <trkpt lat="50.746552" lon="-2.342813">
        <ele>65.157728</ele>
        <time>2021-06-27T08:25:25.000Z</time>
      </trkpt>
      <trkpt lat="50.746518" lon="-2.342702">
        <ele>65.172593</ele>
        <time>2021-06-27T08:25:26.000Z</time>
      </trkpt>
      <trkpt lat="50.7465" lon="-2.342501">
        <ele>65.19845</ele>
        <time>2021-06-27T08:25:27.000Z</time>
      </trkpt>
      <trkpt lat="50.746509" lon="-2.342448">
        <ele>65.205541</ele>
        <time>2021-06-27T08:25:27.000Z</time>
      </trkpt>
      <trkpt lat="50.746524" lon="-2.341732">
        <ele>65.294996</ele>
        <time>2021-06-27T08:25:32.000Z</time>
      </trkpt>
      <trkpt lat="50.74691" lon="-2.339142">
        <ele>65.249789</ele>
        <time>2021-06-27T08:25:51.000Z</time>
      </trkpt>
      <trkpt lat="50.747147" lon="-2.337785">
        <ele>64.697383</ele>
        <time>2021-06-27T08:26:01.000Z</time>
      </trkpt>
      <trkpt lat="50.747258" lon="-2.337108">
        <ele>64.324547</ele>
        <time>2021-06-27T08:26:06.000Z</time>
      </trkpt>
      <trkpt lat="50.747362" lon="-2.336518">
        <ele>63.989313</ele>
        <time>2021-06-27T08:26:10.000Z</time>
      </trkpt>
      <trkpt lat="50.747648" lon="-2.334945">
        <ele>63.061907</ele>
        <time>2021-06-27T08:26:22.000Z</time>
      </trkpt>
      <trkpt lat="50.747727" lon="-2.334194">
        <ele>62.632085</ele>
        <time>2021-06-27T08:26:27.000Z</time>
      </trkpt>
      <trkpt lat="50.747806" lon="-2.332643">
        <ele>61.744385</ele>
        <time>2021-06-27T08:26:38.000Z</time>
      </trkpt>
      <trkpt lat="50.747735" lon="-2.331949">
        <ele>61.362324</ele>
        <time>2021-06-27T08:26:43.000Z</time>
      </trkpt>
      <trkpt lat="50.747606" lon="-2.331377">
        <ele>61.026323</ele>
        <time>2021-06-27T08:26:47.000Z</time>
      </trkpt>
      <trkpt lat="50.746769" lon="-2.328212">
        <ele>58.220464</ele>
        <time>2021-06-27T08:27:11.000Z</time>
      </trkpt>
      <trkpt lat="50.746707" lon="-2.327946">
        <ele>57.947187</ele>
        <time>2021-06-27T08:27:13.000Z</time>
      </trkpt>
      <trkpt lat="50.746676" lon="-2.327557">
        <ele>57.36929</ele>
        <time>2021-06-27T08:27:16.000Z</time>
      </trkpt>
      <trkpt lat="50.746672" lon="-2.326206">
        <ele>55.130833</ele>
        <time>2021-06-27T08:27:26.000Z</time>
      </trkpt>
      <trkpt lat="50.746668" lon="-2.326068">
        <ele>54.918383</ele>
        <time>2021-06-27T08:27:27.000Z</time>
      </trkpt>
      <trkpt lat="50.746688" lon="-2.324058">
        <ele>51.937854</ele>
        <time>2021-06-27T08:27:41.000Z</time>
      </trkpt>
      <trkpt lat="50.746695" lon="-2.323865">
        <ele>51.687894</ele>
        <time>2021-06-27T08:27:42.000Z</time>
      </trkpt>
      <trkpt lat="50.7467" lon="-2.323829">
        <ele>51.641153</ele>
        <time>2021-06-27T08:27:42.000Z</time>
      </trkpt>
      <trkpt lat="50.746727" lon="-2.323566">
        <ele>51.303184</ele>
        <time>2021-06-27T08:27:44.000Z</time>
      </trkpt>
      <trkpt lat="50.74688" lon="-2.322456">
        <ele>49.835244</ele>
        <time>2021-06-27T08:27:52.000Z</time>
      </trkpt>
      <trkpt lat="50.746932" lon="-2.322143">
        <ele>49.493669</ele>
        <time>2021-06-27T08:27:54.000Z</time>
      </trkpt>
      <trkpt lat="50.747324" lon="-2.319838">
        <ele>49.089233</ele>
        <time>2021-06-27T08:28:11.000Z</time>
      </trkpt>
      <trkpt lat="50.747382" lon="-2.319101">
        <ele>48.955639</ele>
        <time>2021-06-27T08:28:16.000Z</time>
      </trkpt>
      <trkpt lat="50.747434" lon="-2.317936">
        <ele>48.727571</ele>
        <time>2021-06-27T08:28:24.000Z</time>
      </trkpt>
      <trkpt lat="50.747479" lon="-2.317207">
        <ele>48.583524</ele>
        <time>2021-06-27T08:28:29.000Z</time>
      </trkpt>
      <trkpt lat="50.748005" lon="-2.315897">
        <ele>48.345435</ele>
        <time>2021-06-27T08:28:40.000Z</time>
      </trkpt>
      <trkpt lat="50.748275" lon="-2.315365">
        <ele>48.26157</ele>
        <time>2021-06-27T08:28:45.000Z</time>
      </trkpt>
      <trkpt lat="50.748455" lon="-2.315032">
        <ele>48.204246</ele>
        <time>2021-06-27T08:28:48.000Z</time>
      </trkpt>
      <trkpt lat="50.748886" lon="-2.314254">
        <ele>48.092468</ele>
        <time>2021-06-27T08:28:55.000Z</time>
      </trkpt>
      <trkpt lat="50.749014" lon="-2.313898">
        <ele>48.07146</ele>
        <time>2021-06-27T08:28:58.000Z</time>
      </trkpt>
      <trkpt lat="50.749626" lon="-2.310484">
        <ele>47.797829</ele>
        <time>2021-06-27T08:29:23.000Z</time>
      </trkpt>
      <trkpt lat="50.749849" lon="-2.308039">
        <ele>47.711939</ele>
        <time>2021-06-27T08:29:40.000Z</time>
      </trkpt>
      <trkpt lat="50.750044" lon="-2.304953">
        <ele>48.318414</ele>
        <time>2021-06-27T08:30:02.000Z</time>
      </trkpt>
      <trkpt lat="50.750079" lon="-2.3029">
        <ele>49.202392</ele>
        <time>2021-06-27T08:30:16.000Z</time>
      </trkpt>
      <trkpt lat="50.750057" lon="-2.302106">
        <ele>49.713361</ele>
        <time>2021-06-27T08:30:22.000Z</time>
      </trkpt>
      <trkpt lat="50.750054" lon="-2.301886">
        <ele>49.867923</ele>
        <time>2021-06-27T08:30:24.000Z</time>
      </trkpt>
      <trkpt lat="50.75004" lon="-2.3007">
        <ele>50.6283</ele>
        <time>2021-06-27T08:30:32.000Z</time>
      </trkpt>
      <trkpt lat="50.749964" lon="-2.299516">
        <ele>50.421257</ele>
        <time>2021-06-27T08:30:40.000Z</time>
      </trkpt>
      <trkpt lat="50.749946" lon="-2.299251">
        <ele>50.343237</ele>
        <time>2021-06-27T08:30:42.000Z</time>
      </trkpt>
      <trkpt lat="50.749906" lon="-2.298726">
        <ele>50.192554</ele>
        <time>2021-06-27T08:30:46.000Z</time>
      </trkpt>
      <trkpt lat="50.74991" lon="-2.298521">
        <ele>50.12752</ele>
        <time>2021-06-27T08:30:47.000Z</time>
      </trkpt>
      <trkpt lat="50.749883" lon="-2.297947">
        <ele>49.960985</ele>
        <time>2021-06-27T08:30:51.000Z</time>
      </trkpt>
      <trkpt lat="50.749868" lon="-2.297654">
        <ele>49.825423</ele>
        <time>2021-06-27T08:30:53.000Z</time>
      </trkpt>
      <trkpt lat="50.749853" lon="-2.297579">
        <ele>49.727892</ele>
        <time>2021-06-27T08:30:54.000Z</time>
      </trkpt>
      <trkpt lat="50.749816" lon="-2.297409">
        <ele>49.528472</ele>
        <time>2021-06-27T08:30:55.000Z</time>
      </trkpt>
      <trkpt lat="50.749724" lon="-2.297155">
        <ele>49.190903</ele>
        <time>2021-06-27T08:30:57.000Z</time>
      </trkpt>
      <trkpt lat="50.749523" lon="-2.29643">
        <ele>48.272509</ele>
        <time>2021-06-27T08:31:03.000Z</time>
      </trkpt>
      <trkpt lat="50.749451" lon="-2.296161">
        <ele>47.942986</ele>
        <time>2021-06-27T08:31:05.000Z</time>
      </trkpt>
      <trkpt lat="50.749426" lon="-2.295946">
        <ele>47.682139</ele>
        <time>2021-06-27T08:31:07.000Z</time>
      </trkpt>
      <trkpt lat="50.749407" lon="-2.29552">
        <ele>47.198325</ele>
        <time>2021-06-27T08:31:10.000Z</time>
      </trkpt>
      <trkpt lat="50.749501" lon="-2.294626">
        <ele>46.294104</ele>
        <time>2021-06-27T08:31:16.000Z</time>
      </trkpt>
      <trkpt lat="50.749451" lon="-2.294246">
        <ele>45.988359</ele>
        <time>2021-06-27T08:31:19.000Z</time>
      </trkpt>
      <trkpt lat="50.749328" lon="-2.293821">
        <ele>45.604038</ele>
        <time>2021-06-27T08:31:22.000Z</time>
      </trkpt>
      <trkpt lat="50.749078" lon="-2.292964">
        <ele>44.828855</ele>
        <time>2021-06-27T08:31:29.000Z</time>
      </trkpt>
      <trkpt lat="50.749015" lon="-2.292637">
        <ele>44.560882</ele>
        <time>2021-06-27T08:31:31.000Z</time>
      </trkpt>
      <trkpt lat="50.748914" lon="-2.292176">
        <ele>44.28959</ele>
        <time>2021-06-27T08:31:34.000Z</time>
      </trkpt>
      <trkpt lat="50.74884" lon="-2.291853">
        <ele>44.240277</ele>
        <time>2021-06-27T08:31:36.000Z</time>
      </trkpt>
      <trkpt lat="50.748824" lon="-2.291799">
        <ele>44.231683</ele>
        <time>2021-06-27T08:31:36.000Z</time>
      </trkpt>
      <trkpt lat="50.748815" lon="-2.291746">
        <ele>44.226363</ele>
        <time>2021-06-27T08:31:36.000Z</time>
      </trkpt>
      <trkpt lat="50.748568" lon="-2.289986">
        <ele>43.972774</ele>
        <time>2021-06-27T08:31:49.000Z</time>
      </trkpt>
      <trkpt lat="50.748544" lon="-2.289318">
        <ele>44.168159</ele>
        <time>2021-06-27T08:31:54.000Z</time>
      </trkpt>
      <trkpt lat="50.748603" lon="-2.288491">
        <ele>44.900618</ele>
        <time>2021-06-27T08:32:00.000Z</time>
      </trkpt>
      <trkpt lat="50.748709" lon="-2.287551">
        <ele>45.745898</ele>
        <time>2021-06-27T08:32:07.000Z</time>
      </trkpt>
      <trkpt lat="50.74877" lon="-2.286861">
        <ele>46.352495</ele>
        <time>2021-06-27T08:32:12.000Z</time>
      </trkpt>
      <trkpt lat="50.748775" lon="-2.286596">
        <ele>46.686184</ele>
        <time>2021-06-27T08:32:14.000Z</time>
      </trkpt>
      <trkpt lat="50.748789" lon="-2.286433">
        <ele>46.899856</ele>
        <time>2021-06-27T08:32:15.000Z</time>
      </trkpt>
      <trkpt lat="50.748875" lon="-2.285736">
        <ele>47.849977</ele>
        <time>2021-06-27T08:32:20.000Z</time>
      </trkpt>
      <trkpt lat="50.748889" lon="-2.28553">
        <ele>48.130207</ele>
        <time>2021-06-27T08:32:21.000Z</time>
      </trkpt>
      <trkpt lat="50.748948" lon="-2.285212">
        <ele>48.574755</ele>
        <time>2021-06-27T08:32:23.000Z</time>
      </trkpt>
      <trkpt lat="50.749005" lon="-2.284829">
        <ele>49.132456</ele>
        <time>2021-06-27T08:32:26.000Z</time>
      </trkpt>
      <trkpt lat="50.749014" lon="-2.284772">
        <ele>49.206054</ele>
        <time>2021-06-27T08:32:26.000Z</time>
      </trkpt>
      <trkpt lat="50.74907" lon="-2.284552">
        <ele>49.511921</ele>
        <time>2021-06-27T08:32:28.000Z</time>
      </trkpt>
      <trkpt lat="50.749123" lon="-2.284344">
        <ele>49.833215</ele>
        <time>2021-06-27T08:32:30.000Z</time>
      </trkpt>
      <trkpt lat="50.749241" lon="-2.283863">
        <ele>50.559774</ele>
        <time>2021-06-27T08:32:34.000Z</time>
      </trkpt>
      <trkpt lat="50.749721" lon="-2.281634">
        <ele>54.153187</ele>
        <time>2021-06-27T08:32:51.000Z</time>
      </trkpt>
      <trkpt lat="50.749803" lon="-2.28108">
        <ele>55.079786</ele>
        <time>2021-06-27T08:32:55.000Z</time>
      </trkpt>
      <trkpt lat="50.749865" lon="-2.28051">
        <ele>56.13369</ele>
        <time>2021-06-27T08:32:59.000Z</time>
      </trkpt>
      <trkpt lat="50.750147" lon="-2.275365">
        <ele>66.196315</ele>
        <time>2021-06-27T08:33:35.000Z</time>
      </trkpt>
      <trkpt lat="50.750324" lon="-2.274179">
        <ele>68.986201</ele>
        <time>2021-06-27T08:33:44.000Z</time>
      </trkpt>
      <trkpt lat="50.750644" lon="-2.272602">
        <ele>72.325202</ele>
        <time>2021-06-27T08:33:56.000Z</time>
      </trkpt>
      <trkpt lat="50.750741" lon="-2.27221">
        <ele>72.651194</ele>
        <time>2021-06-27T08:33:59.000Z</time>
      </trkpt>
      <trkpt lat="50.750838" lon="-2.271851">
        <ele>72.957279</ele>
        <time>2021-06-27T08:34:02.000Z</time>
      </trkpt>
      <trkpt lat="50.751516" lon="-2.270092">
        <ele>74.055823</ele>
        <time>2021-06-27T08:34:16.000Z</time>
      </trkpt>
      <trkpt lat="50.751635" lon="-2.269729">
        <ele>73.80697</ele>
        <time>2021-06-27T08:34:19.000Z</time>
      </trkpt>
      <trkpt lat="50.751749" lon="-2.269277">
        <ele>73.512928</ele>
        <time>2021-06-27T08:34:22.000Z</time>
      </trkpt>
      <trkpt lat="50.751889" lon="-2.268579">
        <ele>73.073549</ele>
        <time>2021-06-27T08:34:27.000Z</time>
      </trkpt>
      <trkpt lat="50.751978" lon="-2.267767">
        <ele>72.565893</ele>
        <time>2021-06-27T08:34:33.000Z</time>
      </trkpt>
      <trkpt lat="50.751984" lon="-2.266469">
        <ele>71.47211</ele>
        <time>2021-06-27T08:34:42.000Z</time>
      </trkpt>
      <trkpt lat="50.751907" lon="-2.265392">
        <ele>70.547445</ele>
        <time>2021-06-27T08:34:50.000Z</time>
      </trkpt>
      <trkpt lat="50.751823" lon="-2.264586">
        <ele>69.39713</ele>
        <time>2021-06-27T08:34:56.000Z</time>
      </trkpt>
      <trkpt lat="50.751456" lon="-2.264759">
        <ele>68.049576</ele>
        <time>2021-06-27T08:35:00.000Z</time>
      </trkpt>
      <trkpt lat="50.751081" lon="-2.265099">
        <ele>66.496814</ele>
        <time>2021-06-27T08:35:05.000Z</time>
      </trkpt>
      <trkpt lat="50.750484" lon="-2.265994">
        <ele>63.497855</ele>
        <time>2021-06-27T08:35:14.000Z</time>
      </trkpt>
      <trkpt lat="50.749952" lon="-2.267193">
        <ele>58.894063</ele>
        <time>2021-06-27T08:35:24.000Z</time>
      </trkpt>
      <trkpt lat="50.749501" lon="-2.267812">
        <ele>55.876166</ele>
        <time>2021-06-27T08:35:31.000Z</time>
      </trkpt>
      <trkpt lat="50.749123" lon="-2.268083">
        <ele>53.963752</ele>
        <time>2021-06-27T08:35:36.000Z</time>
      </trkpt>
      <trkpt lat="50.747592" lon="-2.268857">
        <ele>47.308456</ele>
        <time>2021-06-27T08:35:54.000Z</time>
      </trkpt>
      <trkpt lat="50.747263" lon="-2.269143">
        <ele>46.152626</ele>
        <time>2021-06-27T08:35:58.000Z</time>
      </trkpt>
      <trkpt lat="50.74539" lon="-2.271502">
        <ele>39.890773</ele>
        <time>2021-06-27T08:36:25.000Z</time>
      </trkpt>
      <trkpt lat="50.745376" lon="-2.2715">
        <ele>39.890772</ele>
        <time>2021-06-27T08:36:25.000Z</time>
      </trkpt>
      <trkpt lat="50.745385" lon="-2.271498">
        <ele>39.890782</ele>
        <time>2021-06-27T08:36:25.000Z</time>
      </trkpt>
      <trkpt lat="50.745214" lon="-2.271711">
        <ele>39.471144</ele>
        <time>2021-06-27T08:36:27.000Z</time>
      </trkpt>
      <trkpt lat="50.745024" lon="-2.272026">
        <ele>38.936033</ele>
        <time>2021-06-27T08:36:30.000Z</time>
      </trkpt>
      <trkpt lat="50.744866" lon="-2.272444">
        <ele>38.301463</ele>
        <time>2021-06-27T08:36:33.000Z</time>
      </trkpt>
      <trkpt lat="50.744679" lon="-2.272804">
        <ele>38.465604</ele>
        <time>2021-06-27T08:36:36.000Z</time>
      </trkpt>
      <trkpt lat="50.744406" lon="-2.273278">
        <ele>38.746602</ele>
        <time>2021-06-27T08:36:41.000Z</time>
      </trkpt>
      <trkpt lat="50.74428" lon="-2.273328">
        <ele>38.833671</ele>
        <time>2021-06-27T08:36:42.000Z</time>
      </trkpt>
      <trkpt lat="50.744332" lon="-2.27344">
        <ele>38.900962</ele>
        <time>2021-06-27T08:36:43.000Z</time>
      </trkpt>
      <trkpt lat="50.744253" lon="-2.273981">
        <ele>39.146254</ele>
        <time>2021-06-27T08:36:47.000Z</time>
      </trkpt>
      <trkpt lat="50.744218" lon="-2.274161">
        <ele>39.231812</ele>
        <time>2021-06-27T08:36:48.000Z</time>
      </trkpt>
      <trkpt lat="50.744009" lon="-2.274532">
        <ele>39.449804</ele>
        <time>2021-06-27T08:36:51.000Z</time>
      </trkpt>
      <trkpt lat="50.743559" lon="-2.275364">
        <ele>40.882485</ele>
        <time>2021-06-27T08:36:59.000Z</time>
      </trkpt>
      <trkpt lat="50.74332" lon="-2.27564">
        <ele>41.590453</ele>
        <time>2021-06-27T08:37:02.000Z</time>
      </trkpt>
      <trkpt lat="50.743074" lon="-2.275865">
        <ele>42.247553</ele>
        <time>2021-06-27T08:37:05.000Z</time>
      </trkpt>
      <trkpt lat="50.742761" lon="-2.276149">
        <ele>43.117049</ele>
        <time>2021-06-27T08:37:09.000Z</time>
      </trkpt>
      <trkpt lat="50.742635" lon="-2.27625">
        <ele>43.461923</ele>
        <time>2021-06-27T08:37:11.000Z</time>
      </trkpt>
      <trkpt lat="50.742406" lon="-2.276294">
        <ele>44.005392</ele>
        <time>2021-06-27T08:37:14.000Z</time>
      </trkpt>
      <trkpt lat="50.741852" lon="-2.276218">
        <ele>45.532025</ele>
        <time>2021-06-27T08:37:20.000Z</time>
      </trkpt>
      <trkpt lat="50.741787" lon="-2.276192">
        <ele>45.695954</ele>
        <time>2021-06-27T08:37:21.000Z</time>
      </trkpt>
      <trkpt lat="50.741744" lon="-2.276086">
        <ele>45.949517</ele>
        <time>2021-06-27T08:37:22.000Z</time>
      </trkpt>
      <trkpt lat="50.741627" lon="-2.275452">
        <ele>47.048244</ele>
        <time>2021-06-27T08:37:27.000Z</time>
      </trkpt>
      <trkpt lat="50.741519" lon="-2.275178">
        <ele>47.618269</ele>
        <time>2021-06-27T08:37:29.000Z</time>
      </trkpt>
      <trkpt lat="50.741501" lon="-2.275147">
        <ele>47.707251</ele>
        <time>2021-06-27T08:37:29.000Z</time>
      </trkpt>
      <trkpt lat="50.74143" lon="-2.275049">
        <ele>47.93081</ele>
        <time>2021-06-27T08:37:30.000Z</time>
      </trkpt>
      <trkpt lat="50.740972" lon="-2.274568">
        <ele>49.651424</ele>
        <time>2021-06-27T08:37:36.000Z</time>
      </trkpt>
      <trkpt lat="50.74072" lon="-2.274027">
        <ele>51.06916</ele>
        <time>2021-06-27T08:37:41.000Z</time>
      </trkpt>
      <trkpt lat="50.740566" lon="-2.273498">
        <ele>52.320734</ele>
        <time>2021-06-27T08:37:45.000Z</time>
      </trkpt>
      <trkpt lat="50.74042" lon="-2.272992">
        <ele>53.549983</ele>
        <time>2021-06-27T08:37:49.000Z</time>
      </trkpt>
      <trkpt lat="50.740165" lon="-2.272316">
        <ele>55.175735</ele>
        <time>2021-06-27T08:37:55.000Z</time>
      </trkpt>
      <trkpt lat="50.740033" lon="-2.272298">
        <ele>55.592036</ele>
        <time>2021-06-27T08:37:56.000Z</time>
      </trkpt>
      <trkpt lat="50.739699" lon="-2.272243">
        <ele>56.623754</ele>
        <time>2021-06-27T08:38:00.000Z</time>
      </trkpt>
      <trkpt lat="50.738572" lon="-2.272378">
        <ele>60.059318</ele>
        <time>2021-06-27T08:38:13.000Z</time>
      </trkpt>
      <trkpt lat="50.737917" lon="-2.272637">
        <ele>62.022759</ele>
        <time>2021-06-27T08:38:21.000Z</time>
      </trkpt>
      <trkpt lat="50.737635" lon="-2.272846">
        <ele>62.929965</ele>
        <time>2021-06-27T08:38:24.000Z</time>
      </trkpt>
      <trkpt lat="50.737203" lon="-2.27377">
        <ele>65.032536</ele>
        <time>2021-06-27T08:38:32.000Z</time>
      </trkpt>
      <trkpt lat="50.736318" lon="-2.275114">
        <ele>70.995405</ele>
        <time>2021-06-27T08:38:46.000Z</time>
      </trkpt>
      <trkpt lat="50.736042" lon="-2.275259">
        <ele>72.519843</ele>
        <time>2021-06-27T08:38:49.000Z</time>
      </trkpt>
      <trkpt lat="50.735453" lon="-2.275911">
        <ele>76.221527</ele>
        <time>2021-06-27T08:38:57.000Z</time>
      </trkpt>
      <trkpt lat="50.735181" lon="-2.276143">
        <ele>77.741766</ele>
        <time>2021-06-27T08:39:00.000Z</time>
      </trkpt>
      <trkpt lat="50.734871" lon="-2.276427">
        <ele>79.606492</ele>
        <time>2021-06-27T08:39:04.000Z</time>
      </trkpt>
      <trkpt lat="50.734378" lon="-2.276798">
        <ele>82.39426</ele>
        <time>2021-06-27T08:39:10.000Z</time>
      </trkpt>
      <trkpt lat="50.733599" lon="-2.277678">
        <ele>85.54713</ele>
        <time>2021-06-27T08:39:21.000Z</time>
      </trkpt>
      <trkpt lat="50.733293" lon="-2.27793">
        <ele>86.387824</ele>
        <time>2021-06-27T08:39:25.000Z</time>
      </trkpt>
      <trkpt lat="50.732948" lon="-2.278411">
        <ele>87.513402</ele>
        <time>2021-06-27T08:39:30.000Z</time>
      </trkpt>
      <trkpt lat="50.732807" lon="-2.278536">
        <ele>87.910366</ele>
        <time>2021-06-27T08:39:32.000Z</time>
      </trkpt>
      <trkpt lat="50.732649" lon="-2.278591">
        <ele>88.310737</ele>
        <time>2021-06-27T08:39:34.000Z</time>
      </trkpt>
      <trkpt lat="50.731944" lon="-2.278866">
        <ele>87.372506</ele>
        <time>2021-06-27T08:39:42.000Z</time>
      </trkpt>
      <trkpt lat="50.731471" lon="-2.278964">
        <ele>86.753129</ele>
        <time>2021-06-27T08:39:47.000Z</time>
      </trkpt>
      <trkpt lat="50.731321" lon="-2.278995">
        <ele>86.554161</ele>
        <time>2021-06-27T08:39:49.000Z</time>
      </trkpt>
      <trkpt lat="50.73069" lon="-2.27897">
        <ele>85.129806</ele>
        <time>2021-06-27T08:39:56.000Z</time>
      </trkpt>
      <trkpt lat="50.730242" lon="-2.278794">
        <ele>82.96421</ele>
        <time>2021-06-27T08:40:01.000Z</time>
      </trkpt>
      <trkpt lat="50.729468" lon="-2.279161">
        <ele>79.311873</ele>
        <time>2021-06-27T08:40:10.000Z</time>
      </trkpt>
      <trkpt lat="50.729367" lon="-2.279225">
        <ele>78.789734</ele>
        <time>2021-06-27T08:40:11.000Z</time>
      </trkpt>
      <trkpt lat="50.728436" lon="-2.27957">
        <ele>75.144939</ele>
        <time>2021-06-27T08:40:22.000Z</time>
      </trkpt>
      <trkpt lat="50.719148" lon="-2.285293">
        <ele>40.681772</ele>
        <time>2021-06-27T08:42:13.000Z</time>
      </trkpt>
      <trkpt lat="50.718932" lon="-2.285422">
        <ele>40.325642</ele>
        <time>2021-06-27T08:42:16.000Z</time>
      </trkpt>
      <trkpt lat="50.719244" lon="-2.282405">
        <ele>39.470599</ele>
        <time>2021-06-27T08:42:38.000Z</time>
      </trkpt>
      <trkpt lat="50.719245" lon="-2.282244">
        <ele>39.49416</ele>
        <time>2021-06-27T08:42:39.000Z</time>
      </trkpt>
      <trkpt lat="50.719533" lon="-2.273663">
        <ele>41.716342</ele>
        <time>2021-06-27T08:43:39.000Z</time>
      </trkpt>
      <trkpt lat="50.719546" lon="-2.273392">
        <ele>42.111672</ele>
        <time>2021-06-27T08:43:41.000Z</time>
      </trkpt>
      <trkpt lat="50.719691" lon="-2.268695">
        <ele>50.010107</ele>
        <time>2021-06-27T08:44:14.000Z</time>
      </trkpt>
      <trkpt lat="50.719688" lon="-2.268689">
        <ele>50.010102</ele>
        <time>2021-06-27T08:44:14.000Z</time>
      </trkpt>
      <trkpt lat="50.719688" lon="-2.268694">
        <ele>50.010105</ele>
        <time>2021-06-27T08:44:14.000Z</time>
      </trkpt>
      <trkpt lat="50.71979" lon="-2.265772">
        <ele>54.736806</ele>
        <time>2021-06-27T08:44:35.000Z</time>
      </trkpt>
      <trkpt lat="50.719877" lon="-2.262632">
        <ele>58.014737</ele>
        <time>2021-06-27T08:44:57.000Z</time>
      </trkpt>
      <trkpt lat="50.719977" lon="-2.260812">
        <ele>59.900122</ele>
        <time>2021-06-27T08:45:10.000Z</time>
      </trkpt>
      <trkpt lat="50.719895" lon="-2.258696">
        <ele>62.799887</ele>
        <time>2021-06-27T08:45:25.000Z</time>
      </trkpt>
      <trkpt lat="50.719754" lon="-2.257142">
        <ele>65.22006</ele>
        <time>2021-06-27T08:45:36.000Z</time>
      </trkpt>
      <trkpt lat="50.719724" lon="-2.256988">
        <ele>65.491393</ele>
        <time>2021-06-27T08:45:37.000Z</time>
      </trkpt>
      <trkpt lat="50.719701" lon="-2.256821">
        <ele>65.763368</ele>
        <time>2021-06-27T08:45:38.000Z</time>
      </trkpt>
      <trkpt lat="50.719606" lon="-2.256356">
        <ele>66.579874</ele>
        <time>2021-06-27T08:45:41.000Z</time>
      </trkpt>
      <trkpt lat="50.718771" lon="-2.251681">
        <ele>73.774749</ele>
        <time>2021-06-27T08:46:15.000Z</time>
      </trkpt>
      <trkpt lat="50.718728" lon="-2.251542">
        <ele>73.783774</ele>
        <time>2021-06-27T08:46:16.000Z</time>
      </trkpt>
      <trkpt lat="50.718681" lon="-2.25157">
        <ele>73.788918</ele>
        <time>2021-06-27T08:46:17.000Z</time>
      </trkpt>
      <trkpt lat="50.718431" lon="-2.251627">
        <ele>73.811759</ele>
        <time>2021-06-27T08:46:20.000Z</time>
      </trkpt>
      <trkpt lat="50.718219" lon="-2.251546">
        <ele>73.833</ele>
        <time>2021-06-27T08:46:22.000Z</time>
      </trkpt>
      <trkpt lat="50.718045" lon="-2.251484">
        <ele>73.847873</ele>
        <time>2021-06-27T08:46:24.000Z</time>
      </trkpt>
      <trkpt lat="50.717652" lon="-2.251286">
        <ele>73.885326</ele>
        <time>2021-06-27T08:46:29.000Z</time>
      </trkpt>
      <trkpt lat="50.716349" lon="-2.250581">
        <ele>72.141122</ele>
        <time>2021-06-27T08:46:44.000Z</time>
      </trkpt>
      <trkpt lat="50.712946" lon="-2.247992">
        <ele>64.529445</ele>
        <time>2021-06-27T08:47:26.000Z</time>
      </trkpt>
      <trkpt lat="50.712879" lon="-2.247934">
        <ele>64.37724</ele>
        <time>2021-06-27T08:47:27.000Z</time>
      </trkpt>
      <trkpt lat="50.712782" lon="-2.247872">
        <ele>64.190287</ele>
        <time>2021-06-27T08:47:28.000Z</time>
      </trkpt>
      <trkpt lat="50.708138" lon="-2.244224">
        <ele>55.571301</ele>
        <time>2021-06-27T08:48:26.000Z</time>
      </trkpt>
      <trkpt lat="50.706609" lon="-2.243019">
        <ele>52.586228</ele>
        <time>2021-06-27T08:48:45.000Z</time>
      </trkpt>
      <trkpt lat="50.704302" lon="-2.24124">
        <ele>49.930904</ele>
        <time>2021-06-27T08:49:14.000Z</time>
      </trkpt>
      <trkpt lat="50.703739" lon="-2.240874">
        <ele>50.085231</ele>
        <time>2021-06-27T08:49:21.000Z</time>
      </trkpt>
      <trkpt lat="50.703233" lon="-2.240877">
        <ele>50.265832</ele>
        <time>2021-06-27T08:49:27.000Z</time>
      </trkpt>
      <trkpt lat="50.703025" lon="-2.240939">
        <ele>50.342052</ele>
        <time>2021-06-27T08:49:29.000Z</time>
      </trkpt>
      <trkpt lat="50.702429" lon="-2.241201">
        <ele>50.447217</ele>
        <time>2021-06-27T08:49:36.000Z</time>
      </trkpt>
      <trkpt lat="50.701561" lon="-2.241596">
        <ele>49.255095</ele>
        <time>2021-06-27T08:49:46.000Z</time>
      </trkpt>
      <trkpt lat="50.70136" lon="-2.241678">
        <ele>48.980261</ele>
        <time>2021-06-27T08:49:48.000Z</time>
      </trkpt>
      <trkpt lat="50.700754" lon="-2.241915">
        <ele>48.161066</ele>
        <time>2021-06-27T08:49:55.000Z</time>
      </trkpt>
      <trkpt lat="50.700669" lon="-2.241953">
        <ele>47.882905</ele>
        <time>2021-06-27T08:49:56.000Z</time>
      </trkpt>
      <trkpt lat="50.700316" lon="-2.242099">
        <ele>46.753496</ele>
        <time>2021-06-27T08:50:00.000Z</time>
      </trkpt>
      <trkpt lat="50.700005" lon="-2.242286">
        <ele>45.717218</ele>
        <time>2021-06-27T08:50:04.000Z</time>
      </trkpt>
      <trkpt lat="50.699849" lon="-2.242423">
        <ele>45.177441</ele>
        <time>2021-06-27T08:50:06.000Z</time>
      </trkpt>
      <trkpt lat="50.699523" lon="-2.242765">
        <ele>43.973368</ele>
        <time>2021-06-27T08:50:10.000Z</time>
      </trkpt>
      <trkpt lat="50.699268" lon="-2.242984">
        <ele>43.125886</ele>
        <time>2021-06-27T08:50:13.000Z</time>
      </trkpt>
      <trkpt lat="50.699219" lon="-2.24303">
        <ele>42.941183</ele>
        <time>2021-06-27T08:50:14.000Z</time>
      </trkpt>
      <trkpt lat="50.699102" lon="-2.243182">
        <ele>42.423425</ele>
        <time>2021-06-27T08:50:16.000Z</time>
      </trkpt>
      <trkpt lat="50.698794" lon="-2.243431">
        <ele>41.163314</ele>
        <time>2021-06-27T08:50:20.000Z</time>
      </trkpt>
      <trkpt lat="50.69854" lon="-2.243598">
        <ele>40.151069</ele>
        <time>2021-06-27T08:50:23.000Z</time>
      </trkpt>
      <trkpt lat="50.697055" lon="-2.244007">
        <ele>34.454042</ele>
        <time>2021-06-27T08:50:40.000Z</time>
      </trkpt>
      <trkpt lat="50.696887" lon="-2.244031">
        <ele>33.742585</ele>
        <time>2021-06-27T08:50:42.000Z</time>
      </trkpt>
      <trkpt lat="50.696693" lon="-2.244082">
        <ele>32.934453</ele>
        <time>2021-06-27T08:50:44.000Z</time>
      </trkpt>
      <trkpt lat="50.69585" lon="-2.244278">
        <ele>29.390882</ele>
        <time>2021-06-27T08:50:53.000Z</time>
      </trkpt>
      <trkpt lat="50.695164" lon="-2.24443">
        <ele>27.304925</ele>
        <time>2021-06-27T08:51:01.000Z</time>
      </trkpt>
      <trkpt lat="50.695097" lon="-2.244443">
        <ele>27.138673</ele>
        <time>2021-06-27T08:51:02.000Z</time>
      </trkpt>
      <trkpt lat="50.694666" lon="-2.244484">
        <ele>26.092855</ele>
        <time>2021-06-27T08:51:07.000Z</time>
      </trkpt>
      <trkpt lat="50.694356" lon="-2.244373">
        <ele>25.298772</ele>
        <time>2021-06-27T08:51:11.000Z</time>
      </trkpt>
      <trkpt lat="50.694243" lon="-2.244309">
        <ele>24.980667</ele>
        <time>2021-06-27T08:51:12.000Z</time>
      </trkpt>
      <trkpt lat="50.694106" lon="-2.244206">
        <ele>24.596928</ele>
        <time>2021-06-27T08:51:14.000Z</time>
      </trkpt>
      <trkpt lat="50.693889" lon="-2.243961">
        <ele>24.083655</ele>
        <time>2021-06-27T08:51:17.000Z</time>
      </trkpt>
      <trkpt lat="50.693623" lon="-2.243433">
        <ele>23.94805</ele>
        <time>2021-06-27T08:51:22.000Z</time>
      </trkpt>
      <trkpt lat="50.693266" lon="-2.241987">
        <ele>23.634748</ele>
        <time>2021-06-27T08:51:33.000Z</time>
      </trkpt>
      <trkpt lat="50.692832" lon="-2.239747">
        <ele>23.262059</ele>
        <time>2021-06-27T08:51:49.000Z</time>
      </trkpt>
      <trkpt lat="50.692722" lon="-2.239004">
        <ele>23.151375</ele>
        <time>2021-06-27T08:51:54.000Z</time>
      </trkpt>
      <trkpt lat="50.692634" lon="-2.2383">
        <ele>23.059905</ele>
        <time>2021-06-27T08:51:59.000Z</time>
      </trkpt>
      <trkpt lat="50.692681" lon="-2.238279">
        <ele>23.050561</ele>
        <time>2021-06-27T08:52:00.000Z</time>
      </trkpt>
      <trkpt lat="50.692164" lon="-2.234277">
        <ele>23.118617</ele>
        <time>2021-06-27T08:52:29.000Z</time>
      </trkpt>
      <trkpt lat="50.691852" lon="-2.230645">
        <ele>24.723658</ele>
        <time>2021-06-27T08:52:55.000Z</time>
      </trkpt>
      <trkpt lat="50.691644" lon="-2.228104">
        <ele>25.652201</ele>
        <time>2021-06-27T08:53:13.000Z</time>
      </trkpt>
      <trkpt lat="50.691568" lon="-2.227265">
        <ele>25.887664</ele>
        <time>2021-06-27T08:53:19.000Z</time>
      </trkpt>
      <trkpt lat="50.691424" lon="-2.226722">
        <ele>25.998438</ele>
        <time>2021-06-27T08:53:23.000Z</time>
      </trkpt>
      <trkpt lat="50.691385" lon="-2.226579">
        <ele>26.029324</ele>
        <time>2021-06-27T08:53:24.000Z</time>
      </trkpt>
      <trkpt lat="50.690996" lon="-2.225426">
        <ele>26.270293</ele>
        <time>2021-06-27T08:53:33.000Z</time>
      </trkpt>
      <trkpt lat="50.690801" lon="-2.22487">
        <ele>26.457304</ele>
        <time>2021-06-27T08:53:37.000Z</time>
      </trkpt>
      <trkpt lat="50.690709" lon="-2.224578">
        <ele>26.63588</ele>
        <time>2021-06-27T08:53:39.000Z</time>
      </trkpt>
      <trkpt lat="50.690621" lon="-2.224316">
        <ele>26.798175</ele>
        <time>2021-06-27T08:53:41.000Z</time>
      </trkpt>
      <trkpt lat="50.690563" lon="-2.224347">
        <ele>26.846115</ele>
        <time>2021-06-27T08:53:42.000Z</time>
      </trkpt>
      <trkpt lat="50.689409" lon="-2.220902">
        <ele>29.703871</ele>
        <time>2021-06-27T08:54:09.000Z</time>
      </trkpt>
      <trkpt lat="50.689403" lon="-2.220907">
        <ele>29.703866</ele>
        <time>2021-06-27T08:54:09.000Z</time>
      </trkpt>
      <trkpt lat="50.689403" lon="-2.220895">
        <ele>29.703865</ele>
        <time>2021-06-27T08:54:09.000Z</time>
      </trkpt>
      <trkpt lat="50.690065" lon="-2.220471">
        <ele>30.810946</ele>
        <time>2021-06-27T08:54:17.000Z</time>
      </trkpt>
      <trkpt lat="50.69123" lon="-2.219616">
        <ele>33.331363</ele>
        <time>2021-06-27T08:54:31.000Z</time>
      </trkpt>
      <trkpt lat="50.692284" lon="-2.218764">
        <ele>35.291603</ele>
        <time>2021-06-27T08:54:44.000Z</time>
      </trkpt>
      <trkpt lat="50.692584" lon="-2.21857">
        <ele>35.804268</ele>
        <time>2021-06-27T08:54:48.000Z</time>
      </trkpt>
      <trkpt lat="50.693326" lon="-2.21831">
        <ele>37.030604</ele>
        <time>2021-06-27T08:54:56.000Z</time>
      </trkpt>
      <trkpt lat="50.694395" lon="-2.218406">
        <ele>39.177875</ele>
        <time>2021-06-27T08:55:08.000Z</time>
      </trkpt>
      <trkpt lat="50.694482" lon="-2.21842">
        <ele>39.366332</ele>
        <time>2021-06-27T08:55:09.000Z</time>
      </trkpt>
      <trkpt lat="50.696284" lon="-2.218826">
        <ele>42.873318</ele>
        <time>2021-06-27T08:55:29.000Z</time>
      </trkpt>
      <trkpt lat="50.698045" lon="-2.219255">
        <ele>45.946068</ele>
        <time>2021-06-27T08:55:49.000Z</time>
      </trkpt>
      <trkpt lat="50.701303" lon="-2.220001">
        <ele>51.120549</ele>
        <time>2021-06-27T08:56:26.000Z</time>
      </trkpt>
      <trkpt lat="50.701443" lon="-2.220019">
        <ele>51.333544</ele>
        <time>2021-06-27T08:56:28.000Z</time>
      </trkpt>
      <trkpt lat="50.712195" lon="-2.222514">
        <ele>68.251496</ele>
        <time>2021-06-27T08:58:29.000Z</time>
      </trkpt>
      <trkpt lat="50.713435" lon="-2.22279">
        <ele>68.736965</ele>
        <time>2021-06-27T08:58:43.000Z</time>
      </trkpt>
      <trkpt lat="50.71343" lon="-2.222718">
        <ele>68.725506</ele>
        <time>2021-06-27T08:58:44.000Z</time>
      </trkpt>
      <trkpt lat="50.713535" lon="-2.221401">
        <ele>68.509154</ele>
        <time>2021-06-27T08:58:53.000Z</time>
      </trkpt>
      <trkpt lat="50.7135" lon="-2.220811">
        <ele>68.412739</ele>
        <time>2021-06-27T08:58:57.000Z</time>
      </trkpt>
      <trkpt lat="50.71333" lon="-2.219682">
        <ele>68.21094</ele>
        <time>2021-06-27T08:59:05.000Z</time>
      </trkpt>
      <trkpt lat="50.713178" lon="-2.219238">
        <ele>68.122295</ele>
        <time>2021-06-27T08:59:09.000Z</time>
      </trkpt>
      <trkpt lat="50.712465" lon="-2.217481">
        <ele>67.606596</ele>
        <time>2021-06-27T08:59:24.000Z</time>
      </trkpt>
      <trkpt lat="50.711934" lon="-2.216213">
        <ele>67.129803</ele>
        <time>2021-06-27T08:59:35.000Z</time>
      </trkpt>
      <trkpt lat="50.710961" lon="-2.213869">
        <ele>65.547784</ele>
        <time>2021-06-27T08:59:55.000Z</time>
      </trkpt>
      <trkpt lat="50.710626" lon="-2.213016">
        <ele>65.291645</ele>
        <time>2021-06-27T09:00:02.000Z</time>
      </trkpt>
      <trkpt lat="50.709487" lon="-2.210224">
        <ele>65.1306</ele>
        <time>2021-06-27T09:00:25.000Z</time>
      </trkpt>
      <trkpt lat="50.708777" lon="-2.208571">
        <ele>65.240914</ele>
        <time>2021-06-27T09:00:39.000Z</time>
      </trkpt>
      <trkpt lat="50.70869" lon="-2.208368">
        <ele>65.200732</ele>
        <time>2021-06-27T09:00:41.000Z</time>
      </trkpt>
      <trkpt lat="50.708474" lon="-2.207868">
        <ele>65.095424</ele>
        <time>2021-06-27T09:00:45.000Z</time>
      </trkpt>
      <trkpt lat="50.708028" lon="-2.206851">
        <ele>64.886309</ele>
        <time>2021-06-27T09:00:54.000Z</time>
      </trkpt>
      <trkpt lat="50.706695" lon="-2.203809">
        <ele>61.794617</ele>
        <time>2021-06-27T09:01:20.000Z</time>
      </trkpt>
      <trkpt lat="50.70645" lon="-2.203266">
        <ele>60.995043</ele>
        <time>2021-06-27T09:01:25.000Z</time>
      </trkpt>
      <trkpt lat="50.706005" lon="-2.202512">
        <ele>59.800191</ele>
        <time>2021-06-27T09:01:32.000Z</time>
      </trkpt>
      <trkpt lat="50.702422" lon="-2.197496">
        <ele>51.07874</ele>
        <time>2021-06-27T09:02:25.000Z</time>
      </trkpt>
      <trkpt lat="50.701941" lon="-2.196732">
        <ele>50.021063</ele>
        <time>2021-06-27T09:02:33.000Z</time>
      </trkpt>
      <trkpt lat="50.701635" lon="-2.196165">
        <ele>49.374621</ele>
        <time>2021-06-27T09:02:38.000Z</time>
      </trkpt>
      <trkpt lat="50.700866" lon="-2.194804">
        <ele>48.154507</ele>
        <time>2021-06-27T09:02:51.000Z</time>
      </trkpt>
      <trkpt lat="50.700669" lon="-2.19447">
        <ele>47.852202</ele>
        <time>2021-06-27T09:02:54.000Z</time>
      </trkpt>
      <trkpt lat="50.700399" lon="-2.19389">
        <ele>47.529166</ele>
        <time>2021-06-27T09:02:59.000Z</time>
      </trkpt>
      <trkpt lat="50.700065" lon="-2.193136">
        <ele>47.30274</ele>
        <time>2021-06-27T09:03:05.000Z</time>
      </trkpt>
      <trkpt lat="50.699817" lon="-2.192584">
        <ele>47.132151</ele>
        <time>2021-06-27T09:03:10.000Z</time>
      </trkpt>
      <trkpt lat="50.699632" lon="-2.19199">
        <ele>46.969663</ele>
        <time>2021-06-27T09:03:15.000Z</time>
      </trkpt>
      <trkpt lat="50.699448" lon="-2.191477">
        <ele>46.869146</ele>
        <time>2021-06-27T09:03:19.000Z</time>
      </trkpt>
      <trkpt lat="50.699377" lon="-2.19127">
        <ele>46.842026</ele>
        <time>2021-06-27T09:03:21.000Z</time>
      </trkpt>
      <trkpt lat="50.698967" lon="-2.190035">
        <ele>46.672015</ele>
        <time>2021-06-27T09:03:31.000Z</time>
      </trkpt>
      <trkpt lat="50.698753" lon="-2.189554">
        <ele>46.602914</ele>
        <time>2021-06-27T09:03:35.000Z</time>
      </trkpt>
      <trkpt lat="50.696891" lon="-2.185562">
        <ele>44.597314</ele>
        <time>2021-06-27T09:04:10.000Z</time>
      </trkpt>
      <trkpt lat="50.694872" lon="-2.181351">
        <ele>44.581604</ele>
        <time>2021-06-27T09:04:47.000Z</time>
      </trkpt>
      <trkpt lat="50.694784" lon="-2.181129">
        <ele>44.598868</ele>
        <time>2021-06-27T09:04:49.000Z</time>
      </trkpt>
      <trkpt lat="50.69315" lon="-2.177506">
        <ele>44.328146</ele>
        <time>2021-06-27T09:05:20.000Z</time>
      </trkpt>
      <trkpt lat="50.692672" lon="-2.176355">
        <ele>43.715203</ele>
        <time>2021-06-27T09:05:30.000Z</time>
      </trkpt>
      <trkpt lat="50.692534" lon="-2.175874">
        <ele>43.475309</ele>
        <time>2021-06-27T09:05:34.000Z</time>
      </trkpt>
      <trkpt lat="50.692235" lon="-2.174554">
        <ele>42.656778</ele>
        <time>2021-06-27T09:05:44.000Z</time>
      </trkpt>
      <trkpt lat="50.692152" lon="-2.173529">
        <ele>41.99054</ele>
        <time>2021-06-27T09:05:51.000Z</time>
      </trkpt>
      <trkpt lat="50.692175" lon="-2.170162">
        <ele>40.312321</ele>
        <time>2021-06-27T09:06:15.000Z</time>
      </trkpt>
      <trkpt lat="50.692046" lon="-2.169404">
        <ele>39.883179</ele>
        <time>2021-06-27T09:06:21.000Z</time>
      </trkpt>
      <trkpt lat="50.691613" lon="-2.167998">
        <ele>38.895389</ele>
        <time>2021-06-27T09:06:32.000Z</time>
      </trkpt>
      <trkpt lat="50.691582" lon="-2.167928">
        <ele>38.847706</ele>
        <time>2021-06-27T09:06:33.000Z</time>
      </trkpt>
      <trkpt lat="50.691107" lon="-2.166522">
        <ele>37.674729</ele>
        <time>2021-06-27T09:06:44.000Z</time>
      </trkpt>
      <trkpt lat="50.690784" lon="-2.165511">
        <ele>36.728839</ele>
        <time>2021-06-27T09:06:52.000Z</time>
      </trkpt>
      <trkpt lat="50.690607" lon="-2.164998">
        <ele>36.242999</ele>
        <time>2021-06-27T09:06:56.000Z</time>
      </trkpt>
      <trkpt lat="50.689964" lon="-2.163225">
        <ele>35.382588</ele>
        <time>2021-06-27T09:07:10.000Z</time>
      </trkpt>
      <trkpt lat="50.686963" lon="-2.154703">
        <ele>34.216972</ele>
        <time>2021-06-27T09:08:19.000Z</time>
      </trkpt>
      <trkpt lat="50.685868" lon="-2.151606">
        <ele>35.303621</ele>
        <time>2021-06-27T09:08:44.000Z</time>
      </trkpt>
      <trkpt lat="50.685686" lon="-2.151001">
        <ele>35.498547</ele>
        <time>2021-06-27T09:08:49.000Z</time>
      </trkpt>
      <trkpt lat="50.685622" lon="-2.15086">
        <ele>35.546257</ele>
        <time>2021-06-27T09:08:50.000Z</time>
      </trkpt>
      <trkpt lat="50.685588" lon="-2.150712">
        <ele>35.593898</ele>
        <time>2021-06-27T09:08:51.000Z</time>
      </trkpt>
      <trkpt lat="50.685565" lon="-2.150629">
        <ele>35.617329</ele>
        <time>2021-06-27T09:08:52.000Z</time>
      </trkpt>
      <trkpt lat="50.685435" lon="-2.150162">
        <ele>35.761746</ele>
        <time>2021-06-27T09:08:56.000Z</time>
      </trkpt>
      <trkpt lat="50.68498" lon="-2.148655">
        <ele>35.333101</ele>
        <time>2021-06-27T09:09:08.000Z</time>
      </trkpt>
      <trkpt lat="50.684947" lon="-2.148533">
        <ele>35.278629</ele>
        <time>2021-06-27T09:09:09.000Z</time>
      </trkpt>
      <trkpt lat="50.684391" lon="-2.145962">
        <ele>33.83603</ele>
        <time>2021-06-27T09:09:28.000Z</time>
      </trkpt>
      <trkpt lat="50.684355" lon="-2.145789">
        <ele>33.70872</ele>
        <time>2021-06-27T09:09:29.000Z</time>
      </trkpt>
      <trkpt lat="50.684333" lon="-2.145645">
        <ele>33.608274</ele>
        <time>2021-06-27T09:09:30.000Z</time>
      </trkpt>
      <trkpt lat="50.684282" lon="-2.145184">
        <ele>33.293017</ele>
        <time>2021-06-27T09:09:33.000Z</time>
      </trkpt>
      <trkpt lat="50.684171" lon="-2.144386">
        <ele>32.792699</ele>
        <time>2021-06-27T09:09:39.000Z</time>
      </trkpt>
      <trkpt lat="50.684163" lon="-2.144368">
        <ele>32.787242</ele>
        <time>2021-06-27T09:09:39.000Z</time>
      </trkpt>
      <trkpt lat="50.683958" lon="-2.14366">
        <ele>32.614432</ele>
        <time>2021-06-27T09:09:44.000Z</time>
      </trkpt>
      <trkpt lat="50.6835" lon="-2.142438">
        <ele>32.302472</ele>
        <time>2021-06-27T09:09:54.000Z</time>
      </trkpt>
      <trkpt lat="50.683276" lon="-2.141133">
        <ele>31.605919</ele>
        <time>2021-06-27T09:10:04.000Z</time>
      </trkpt>
      <trkpt lat="50.683199" lon="-2.140762">
        <ele>31.344301</ele>
        <time>2021-06-27T09:10:07.000Z</time>
      </trkpt>
      <trkpt lat="50.683096" lon="-2.140089">
        <ele>30.861128</ele>
        <time>2021-06-27T09:10:12.000Z</time>
      </trkpt>
      <trkpt lat="50.682893" lon="-2.138944">
        <ele>29.69795</ele>
        <time>2021-06-27T09:10:20.000Z</time>
      </trkpt>
      <trkpt lat="50.682777" lon="-2.138176">
        <ele>28.088034</ele>
        <time>2021-06-27T09:10:26.000Z</time>
      </trkpt>
      <trkpt lat="50.68276" lon="-2.138106">
        <ele>27.93217</ele>
        <time>2021-06-27T09:10:27.000Z</time>
      </trkpt>
      <trkpt lat="50.682653" lon="-2.137569">
        <ele>26.828309</ele>
        <time>2021-06-27T09:10:31.000Z</time>
      </trkpt>
      <trkpt lat="50.682594" lon="-2.137325">
        <ele>26.320454</ele>
        <time>2021-06-27T09:10:33.000Z</time>
      </trkpt>
      <trkpt lat="50.682534" lon="-2.137223">
        <ele>25.986817</ele>
        <time>2021-06-27T09:10:34.000Z</time>
      </trkpt>
      <trkpt lat="50.682478" lon="-2.137194">
        <ele>25.828658</ele>
        <time>2021-06-27T09:10:35.000Z</time>
      </trkpt>
      <trkpt lat="50.682632" lon="-2.135503">
        <ele>22.322131</ele>
        <time>2021-06-27T09:10:47.000Z</time>
      </trkpt>
      <trkpt lat="50.682706" lon="-2.134636">
        <ele>20.520433</ele>
        <time>2021-06-27T09:10:53.000Z</time>
      </trkpt>
      <trkpt lat="50.682728" lon="-2.134336">
        <ele>19.879473</ele>
        <time>2021-06-27T09:10:55.000Z</time>
      </trkpt>
      <trkpt lat="50.682773" lon="-2.13363">
        <ele>18.554718</ele>
        <time>2021-06-27T09:11:00.000Z</time>
      </trkpt>
      <trkpt lat="50.682799" lon="-2.133096">
        <ele>18.044425</ele>
        <time>2021-06-27T09:11:04.000Z</time>
      </trkpt>
      <trkpt lat="50.682806" lon="-2.133007">
        <ele>17.970841</ele>
        <time>2021-06-27T09:11:05.000Z</time>
      </trkpt>
      <trkpt lat="50.682829" lon="-2.132655">
        <ele>17.637545</ele>
        <time>2021-06-27T09:11:07.000Z</time>
      </trkpt>
      <trkpt lat="50.6829" lon="-2.132059">
        <ele>17.063105</ele>
        <time>2021-06-27T09:11:11.000Z</time>
      </trkpt>
      <trkpt lat="50.682953" lon="-2.131409">
        <ele>16.439464</ele>
        <time>2021-06-27T09:11:16.000Z</time>
      </trkpt>
      <trkpt lat="50.683004" lon="-2.13064">
        <ele>15.918398</ele>
        <time>2021-06-27T09:11:21.000Z</time>
      </trkpt>
      <trkpt lat="50.683049" lon="-2.129994">
        <ele>15.797146</ele>
        <time>2021-06-27T09:11:26.000Z</time>
      </trkpt>
      <trkpt lat="50.683055" lon="-2.129713">
        <ele>15.745672</ele>
        <time>2021-06-27T09:11:28.000Z</time>
      </trkpt>
      <trkpt lat="50.683063" lon="-2.129628">
        <ele>15.72687</ele>
        <time>2021-06-27T09:11:29.000Z</time>
      </trkpt>
      <trkpt lat="50.68308" lon="-2.129586">
        <ele>15.718973</ele>
        <time>2021-06-27T09:11:29.000Z</time>
      </trkpt>
      <trkpt lat="50.683213" lon="-2.127554">
        <ele>15.408531</ele>
        <time>2021-06-27T09:11:43.000Z</time>
      </trkpt>
      <trkpt lat="50.683232" lon="-2.127306">
        <ele>15.392767</ele>
        <time>2021-06-27T09:11:45.000Z</time>
      </trkpt>
      <trkpt lat="50.683241" lon="-2.127206">
        <ele>15.387001</ele>
        <time>2021-06-27T09:11:46.000Z</time>
      </trkpt>
      <trkpt lat="50.683277" lon="-2.126677">
        <ele>15.354312</ele>
        <time>2021-06-27T09:11:50.000Z</time>
      </trkpt>
      <trkpt lat="50.683321" lon="-2.12627">
        <ele>15.330057</ele>
        <time>2021-06-27T09:11:53.000Z</time>
      </trkpt>
      <trkpt lat="50.683312" lon="-2.125989">
        <ele>15.312442</ele>
        <time>2021-06-27T09:11:55.000Z</time>
      </trkpt>
      <trkpt lat="50.683408" lon="-2.125735">
        <ele>15.295782</ele>
        <time>2021-06-27T09:11:57.000Z</time>
      </trkpt>
      <trkpt lat="50.683475" lon="-2.125559">
        <ele>15.283421</ele>
        <time>2021-06-27T09:11:58.000Z</time>
      </trkpt>
      <trkpt lat="50.683542" lon="-2.125526">
        <ele>15.275684</ele>
        <time>2021-06-27T09:11:59.000Z</time>
      </trkpt>
      <trkpt lat="50.683593" lon="-2.125437">
        <ele>15.26139</ele>
        <time>2021-06-27T09:12:00.000Z</time>
      </trkpt>
      <trkpt lat="50.683629" lon="-2.125353">
        <ele>15.191057</ele>
        <time>2021-06-27T09:12:01.000Z</time>
      </trkpt>
      <trkpt lat="50.683673" lon="-2.125119">
        <ele>15.050582</ele>
        <time>2021-06-27T09:12:03.000Z</time>
      </trkpt>
      <trkpt lat="50.683646" lon="-2.125014">
        <ele>14.979751</ele>
        <time>2021-06-27T09:12:04.000Z</time>
      </trkpt>
      <trkpt lat="50.683624" lon="-2.124922">
        <ele>14.920598</ele>
        <time>2021-06-27T09:12:05.000Z</time>
      </trkpt>
      <trkpt lat="50.683589" lon="-2.124849">
        <ele>14.861705</ele>
        <time>2021-06-27T09:12:06.000Z</time>
      </trkpt>
      <trkpt lat="50.683534" lon="-2.124782">
        <ele>14.793449</ele>
        <time>2021-06-27T09:12:07.000Z</time>
      </trkpt>
      <trkpt lat="50.683384" lon="-2.124735">
        <ele>14.655652</ele>
        <time>2021-06-27T09:12:09.000Z</time>
      </trkpt>
      <trkpt lat="50.683311" lon="-2.124755">
        <ele>14.586011</ele>
        <time>2021-06-27T09:12:10.000Z</time>
      </trkpt>
      <trkpt lat="50.683276" lon="-2.124795">
        <ele>14.535458</ele>
        <time>2021-06-27T09:12:10.000Z</time>
      </trkpt>
      <trkpt lat="50.683227" lon="-2.124837">
        <ele>14.48495</ele>
        <time>2021-06-27T09:12:11.000Z</time>
      </trkpt>
      <trkpt lat="50.683201" lon="-2.124875">
        <ele>14.452992</ele>
        <time>2021-06-27T09:12:11.000Z</time>
      </trkpt>
      <trkpt lat="50.683031" lon="-2.124951">
        <ele>14.279315</ele>
        <time>2021-06-27T09:12:13.000Z</time>
      </trkpt>
      <trkpt lat="50.682995" lon="-2.12497">
        <ele>14.237078</ele>
        <time>2021-06-27T09:12:13.000Z</time>
      </trkpt>
      <trkpt lat="50.682643" lon="-2.125051">
        <ele>13.901939</ele>
        <time>2021-06-27T09:12:17.000Z</time>
      </trkpt>
      <trkpt lat="50.682318" lon="-2.12498">
        <ele>13.59105</ele>
        <time>2021-06-27T09:12:21.000Z</time>
      </trkpt>
      <trkpt lat="50.681533" lon="-2.124667">
        <ele>11.503538</ele>
        <time>2021-06-27T09:12:30.000Z</time>
      </trkpt>
      <trkpt lat="50.680617" lon="-2.12409">
        <ele>8.877819</ele>
        <time>2021-06-27T09:12:41.000Z</time>
      </trkpt>
      <trkpt lat="50.679912" lon="-2.123484">
        <ele>6.344179</ele>
        <time>2021-06-27T09:12:50.000Z</time>
      </trkpt>
      <trkpt lat="50.679407" lon="-2.122886">
        <ele>4.293154</ele>
        <time>2021-06-27T09:12:57.000Z</time>
      </trkpt>
      <trkpt lat="50.679126" lon="-2.122464">
        <ele>3.077361</ele>
        <time>2021-06-27T09:13:01.000Z</time>
      </trkpt>
      <trkpt lat="50.679016" lon="-2.122304">
        <ele>2.851571</ele>
        <time>2021-06-27T09:13:03.000Z</time>
      </trkpt>
      <trkpt lat="50.678442" lon="-2.121102">
        <ele>1.714243</ele>
        <time>2021-06-27T09:13:14.000Z</time>
      </trkpt>
      <trkpt lat="50.677477" lon="-2.118584">
        <ele>1.206082</ele>
        <time>2021-06-27T09:13:35.000Z</time>
      </trkpt>
      <trkpt lat="50.677" lon="-2.117242">
        <ele>1.713065</ele>
        <time>2021-06-27T09:13:46.000Z</time>
      </trkpt>
      <trkpt lat="50.676742" lon="-2.116544">
        <ele>2.206756</ele>
        <time>2021-06-27T09:13:52.000Z</time>
      </trkpt>
      <trkpt lat="50.676169" lon="-2.115037">
        <ele>3.275065</ele>
        <time>2021-06-27T09:14:04.000Z</time>
      </trkpt>
      <trkpt lat="50.675789" lon="-2.114196">
        <ele>3.871033</ele>
        <time>2021-06-27T09:14:11.000Z</time>
      </trkpt>
      <trkpt lat="50.675527" lon="-2.11376">
        <ele>4.214329</ele>
        <time>2021-06-27T09:14:15.000Z</time>
      </trkpt>
      <trkpt lat="50.675418" lon="-2.113575">
        <ele>4.364153</ele>
        <time>2021-06-27T09:14:17.000Z</time>
      </trkpt>
      <trkpt lat="50.674855" lon="-2.112884">
        <ele>4.904719</ele>
        <time>2021-06-27T09:14:25.000Z</time>
      </trkpt>
      <trkpt lat="50.673961" lon="-2.112032">
        <ele>5.41976</ele>
        <time>2021-06-27T09:14:37.000Z</time>
      </trkpt>
      <trkpt lat="50.673966" lon="-2.112022">
        <ele>5.419769</ele>
        <time>2021-06-27T09:14:37.000Z</time>
      </trkpt>
      <trkpt lat="50.673813" lon="-2.111881">
        <ele>5.51273</ele>
        <time>2021-06-27T09:14:39.000Z</time>
      </trkpt>
      <trkpt lat="50.673793" lon="-2.111849">
        <ele>5.524237</ele>
        <time>2021-06-27T09:14:39.000Z</time>
      </trkpt>
      <trkpt lat="50.67321" lon="-2.111305">
        <ele>6.053245</ele>
        <time>2021-06-27T09:14:47.000Z</time>
      </trkpt>
      <trkpt lat="50.673209" lon="-2.111299">
        <ele>6.053253</ele>
        <time>2021-06-27T09:14:47.000Z</time>
      </trkpt>
      <trkpt lat="50.67295" lon="-2.111078">
        <ele>6.342671</ele>
        <time>2021-06-27T09:14:50.000Z</time>
      </trkpt>
      <trkpt lat="50.671648" lon="-2.109882">
        <ele>8.203506</ele>
        <time>2021-06-27T09:15:07.000Z</time>
      </trkpt>
      <trkpt lat="50.669891" lon="-2.108174">
        <ele>12.648418</ele>
        <time>2021-06-27T09:15:30.000Z</time>
      </trkpt>
      <trkpt lat="50.669829" lon="-2.108102">
        <ele>12.826623</ele>
        <time>2021-06-27T09:15:31.000Z</time>
      </trkpt>
      <trkpt lat="50.669646" lon="-2.107881">
        <ele>13.408824</ele>
        <time>2021-06-27T09:15:34.000Z</time>
      </trkpt>
      <trkpt lat="50.668961" lon="-2.106788">
        <ele>15.747794</ele>
        <time>2021-06-27T09:15:45.000Z</time>
      </trkpt>
      <trkpt lat="50.668454" lon="-2.105363">
        <ele>17.778941</ele>
        <time>2021-06-27T09:15:57.000Z</time>
      </trkpt>
      <trkpt lat="50.668268" lon="-2.104671">
        <ele>18.718645</ele>
        <time>2021-06-27T09:16:02.000Z</time>
      </trkpt>
      <trkpt lat="50.668173" lon="-2.104241">
        <ele>19.111803</ele>
        <time>2021-06-27T09:16:05.000Z</time>
      </trkpt>
      <trkpt lat="50.668148" lon="-2.104063">
        <ele>19.19181</ele>
        <time>2021-06-27T09:16:06.000Z</time>
      </trkpt>
      <trkpt lat="50.668064" lon="-2.10353">
        <ele>19.420145</ele>
        <time>2021-06-27T09:16:10.000Z</time>
      </trkpt>
      <trkpt lat="50.668025" lon="-2.103234">
        <ele>19.546187</ele>
        <time>2021-06-27T09:16:12.000Z</time>
      </trkpt>
      <trkpt lat="50.668047" lon="-2.103092">
        <ele>19.608217</ele>
        <time>2021-06-27T09:16:13.000Z</time>
      </trkpt>
      <trkpt lat="50.668157" lon="-2.102853">
        <ele>19.733854</ele>
        <time>2021-06-27T09:16:15.000Z</time>
      </trkpt>
      <trkpt lat="50.668208" lon="-2.102708">
        <ele>19.804448</ele>
        <time>2021-06-27T09:16:16.000Z</time>
      </trkpt>
      <trkpt lat="50.668244" lon="-2.10267">
        <ele>19.832261</ele>
        <time>2021-06-27T09:16:16.000Z</time>
      </trkpt>
      <trkpt lat="50.66826" lon="-2.102637">
        <ele>19.853617</ele>
        <time>2021-06-27T09:16:16.000Z</time>
      </trkpt>
      <trkpt lat="50.668276" lon="-2.102582">
        <ele>19.881904</ele>
        <time>2021-06-27T09:16:16.000Z</time>
      </trkpt>
      <trkpt lat="50.66829" lon="-2.102429">
        <ele>19.943029</ele>
        <time>2021-06-27T09:16:17.000Z</time>
      </trkpt>
      <trkpt lat="50.66828" lon="-2.102413">
        <ele>19.951753</ele>
        <time>2021-06-27T09:16:17.000Z</time>
      </trkpt>
      <trkpt lat="50.668275" lon="-2.102368">
        <ele>19.976339</ele>
        <time>2021-06-27T09:16:17.000Z</time>
      </trkpt>
      <trkpt lat="50.668254" lon="-2.102338">
        <ele>19.992764</ele>
        <time>2021-06-27T09:16:17.000Z</time>
      </trkpt>
      <trkpt lat="50.668247" lon="-2.102347">
        <ele>19.99276</ele>
        <time>2021-06-27T09:16:17.000Z</time>
      </trkpt>
      <trkpt lat="50.668259" lon="-2.102102">
        <ele>20.089907</ele>
        <time>2021-06-27T09:16:19.000Z</time>
      </trkpt>
      <trkpt lat="50.668177" lon="-2.101814">
        <ele>20.224445</ele>
        <time>2021-06-27T09:16:21.000Z</time>
      </trkpt>
      <trkpt lat="50.668121" lon="-2.101687">
        <ele>20.173936</ele>
        <time>2021-06-27T09:16:22.000Z</time>
      </trkpt>
      <trkpt lat="50.668137" lon="-2.101735">
        <ele>20.154887</ele>
        <time>2021-06-27T09:16:22.000Z</time>
      </trkpt>
      <trkpt lat="50.668137" lon="-2.102137">
        <ele>20.026066</ele>
        <time>2021-06-27T09:16:25.000Z</time>
      </trkpt>
      <trkpt lat="50.66809" lon="-2.102295">
        <ele>19.973601</ele>
        <time>2021-06-27T09:16:26.000Z</time>
      </trkpt>
      <trkpt lat="50.668057" lon="-2.10231">
        <ele>19.959911</ele>
        <time>2021-06-27T09:16:26.000Z</time>
      </trkpt>
      <trkpt lat="50.668022" lon="-2.102373">
        <ele>19.934668</ele>
        <time>2021-06-27T09:16:27.000Z</time>
      </trkpt>
      <trkpt lat="50.668026" lon="-2.102404">
        <ele>19.920447</ele>
        <time>2021-06-27T09:16:27.000Z</time>
      </trkpt>
      <trkpt lat="50.668013" lon="-2.102452">
        <ele>19.909453</ele>
        <time>2021-06-27T09:16:27.000Z</time>
      </trkpt>
      <trkpt lat="50.668006" lon="-2.102555">
        <ele>19.87397</ele>
        <time>2021-06-27T09:16:28.000Z</time>
      </trkpt>
      <trkpt lat="50.66801" lon="-2.102575">
        <ele>19.864478</ele>
        <time>2021-06-27T09:16:28.000Z</time>
      </trkpt>
      <trkpt lat="50.668031" lon="-2.102631">
        <ele>19.848881</ele>
        <time>2021-06-27T09:16:28.000Z</time>
      </trkpt>
      <trkpt lat="50.668048" lon="-2.102648">
        <ele>19.836914</ele>
        <time>2021-06-27T09:16:28.000Z</time>
      </trkpt>
      <trkpt lat="50.668056" lon="-2.102676">
        <ele>19.827062</ele>
        <time>2021-06-27T09:16:28.000Z</time>
      </trkpt>
      <trkpt lat="50.668038" lon="-2.102747">
        <ele>19.803276</ele>
        <time>2021-06-27T09:16:29.000Z</time>
      </trkpt>
      <trkpt lat="50.668012" lon="-2.103031">
        <ele>19.71134</ele>
        <time>2021-06-27T09:16:31.000Z</time>
      </trkpt>
      <trkpt lat="50.668027" lon="-2.10324">
        <ele>19.643589</ele>
        <time>2021-06-27T09:16:32.000Z</time>
      </trkpt>
      <trkpt lat="50.668065" lon="-2.103536">
        <ele>19.54849</ele>
        <time>2021-06-27T09:16:34.000Z</time>
      </trkpt>
      <trkpt lat="50.668144" lon="-2.104066">
        <ele>19.376224</ele>
        <time>2021-06-27T09:16:38.000Z</time>
      </trkpt>
      <trkpt lat="50.668176" lon="-2.104244">
        <ele>19.309587</ele>
        <time>2021-06-27T09:16:39.000Z</time>
      </trkpt>
      <trkpt lat="50.66826" lon="-2.104672">
        <ele>18.751998</ele>
        <time>2021-06-27T09:16:42.000Z</time>
      </trkpt>
      <trkpt lat="50.668455" lon="-2.105374">
        <ele>17.825558</ele>
        <time>2021-06-27T09:16:47.000Z</time>
      </trkpt>
      <trkpt lat="50.668973" lon="-2.106787">
        <ele>15.819786</ele>
        <time>2021-06-27T09:16:59.000Z</time>
      </trkpt>
      <trkpt lat="50.669638" lon="-2.107884">
        <ele>13.39929</ele>
        <time>2021-06-27T09:17:10.000Z</time>
      </trkpt>
      <trkpt lat="50.669818" lon="-2.108107">
        <ele>12.813717</ele>
        <time>2021-06-27T09:17:13.000Z</time>
      </trkpt>
      <trkpt lat="50.669893" lon="-2.108172">
        <ele>12.634487</ele>
        <time>2021-06-27T09:17:14.000Z</time>
      </trkpt>
      <trkpt lat="50.671656" lon="-2.109881">
        <ele>8.173603</ele>
        <time>2021-06-27T09:17:37.000Z</time>
      </trkpt>
      <trkpt lat="50.672948" lon="-2.111075">
        <ele>6.792996</ele>
        <time>2021-06-27T09:17:54.000Z</time>
      </trkpt>
      <trkpt lat="50.673195" lon="-2.11131">
        <ele>6.585578</ele>
        <time>2021-06-27T09:17:57.000Z</time>
      </trkpt>
      <trkpt lat="50.673209" lon="-2.111299">
        <ele>6.585587</ele>
        <time>2021-06-27T09:17:57.000Z</time>
      </trkpt>
      <trkpt lat="50.673194" lon="-2.111309">
        <ele>6.585582</ele>
        <time>2021-06-27T09:17:57.000Z</time>
      </trkpt>
      <trkpt lat="50.673064" lon="-2.111636">
        <ele>6.410507</ele>
        <time>2021-06-27T09:18:00.000Z</time>
      </trkpt>
      <trkpt lat="50.67293" lon="-2.112016">
        <ele>6.721758</ele>
        <time>2021-06-27T09:18:03.000Z</time>
      </trkpt>
      <trkpt lat="50.672853" lon="-2.112163">
        <ele>6.856007</ele>
        <time>2021-06-27T09:18:04.000Z</time>
      </trkpt>
      <trkpt lat="50.672803" lon="-2.11228">
        <ele>6.959022</ele>
        <time>2021-06-27T09:18:05.000Z</time>
      </trkpt>
      <trkpt lat="50.672755" lon="-2.112383">
        <ele>7.056459</ele>
        <time>2021-06-27T09:18:06.000Z</time>
      </trkpt>
      <trkpt lat="50.672725" lon="-2.112432">
        <ele>7.101037</ele>
        <time>2021-06-27T09:18:06.000Z</time>
      </trkpt>
      <trkpt lat="50.672659" lon="-2.112498">
        <ele>7.186238</ele>
        <time>2021-06-27T09:18:07.000Z</time>
      </trkpt>
      <trkpt lat="50.672578" lon="-2.112596">
        <ele>7.30594</ele>
        <time>2021-06-27T09:18:08.000Z</time>
      </trkpt>
      <trkpt lat="50.671948" lon="-2.113073">
        <ele>8.080594</ele>
        <time>2021-06-27T09:18:16.000Z</time>
      </trkpt>
      <trkpt lat="50.671778" lon="-2.113178">
        <ele>8.285871</ele>
        <time>2021-06-27T09:18:18.000Z</time>
      </trkpt>
      <trkpt lat="50.671722" lon="-2.113217">
        <ele>8.369032</ele>
        <time>2021-06-27T09:18:19.000Z</time>
      </trkpt>
      <trkpt lat="50.670961" lon="-2.113518">
        <ele>9.185367</ele>
        <time>2021-06-27T09:18:28.000Z</time>
      </trkpt>
      <trkpt lat="50.670817" lon="-2.113556">
        <ele>9.32196</ele>
        <time>2021-06-27T09:18:30.000Z</time>
      </trkpt>
      <trkpt lat="50.670507" lon="-2.113627">
        <ele>9.647795</ele>
        <time>2021-06-27T09:18:33.000Z</time>
      </trkpt>
      <trkpt lat="50.670186" lon="-2.113687">
        <ele>9.996057</ele>
        <time>2021-06-27T09:18:37.000Z</time>
      </trkpt>
      <trkpt lat="50.670177" lon="-2.113737">
        <ele>10.024923</ele>
        <time>2021-06-27T09:18:37.000Z</time>
      </trkpt>
      <trkpt lat="50.670184" lon="-2.11379">
        <ele>10.063617</ele>
        <time>2021-06-27T09:18:37.000Z</time>
      </trkpt>
      <trkpt lat="50.670016" lon="-2.11539">
        <ele>10.720243</ele>
        <time>2021-06-27T09:18:48.000Z</time>
      </trkpt>
      <trkpt lat="50.669859" lon="-2.116877">
        <ele>11.232449</ele>
        <time>2021-06-27T09:18:59.000Z</time>
      </trkpt>
      <trkpt lat="50.669661" lon="-2.119003">
        <ele>11.143791</ele>
        <time>2021-06-27T09:19:14.000Z</time>
      </trkpt>
      <trkpt lat="50.669396" lon="-2.121523">
        <ele>10.791982</ele>
        <time>2021-06-27T09:19:32.000Z</time>
      </trkpt>
      <trkpt lat="50.669056" lon="-2.124561">
        <ele>10.671161</ele>
        <time>2021-06-27T09:19:54.000Z</time>
      </trkpt>
      <trkpt lat="50.669033" lon="-2.124785">
        <ele>10.677729</ele>
        <time>2021-06-27T09:19:56.000Z</time>
      </trkpt>
      <trkpt lat="50.668956" lon="-2.125454">
        <ele>10.698503</ele>
        <time>2021-06-27T09:20:01.000Z</time>
      </trkpt>
      <trkpt lat="50.668884" lon="-2.12629">
        <ele>10.730872</ele>
        <time>2021-06-27T09:20:07.000Z</time>
      </trkpt>
      <trkpt lat="50.668886" lon="-2.126959">
        <ele>10.756836</ele>
        <time>2021-06-27T09:20:12.000Z</time>
      </trkpt>
      <trkpt lat="50.668934" lon="-2.128906">
        <ele>11.280259</ele>
        <time>2021-06-27T09:20:26.000Z</time>
      </trkpt>
      <trkpt lat="50.668962" lon="-2.129665">
        <ele>11.772974</ele>
        <time>2021-06-27T09:20:31.000Z</time>
      </trkpt>
      <trkpt lat="50.668961" lon="-2.129937">
        <ele>11.939861</ele>
        <time>2021-06-27T09:20:33.000Z</time>
      </trkpt>
      <trkpt lat="50.668948" lon="-2.130573">
        <ele>12.34748</ele>
        <time>2021-06-27T09:20:37.000Z</time>
      </trkpt>
      <trkpt lat="50.669027" lon="-2.131288">
        <ele>12.743022</ele>
        <time>2021-06-27T09:20:42.000Z</time>
      </trkpt>
      <trkpt lat="50.669362" lon="-2.132641">
        <ele>13.336435</ele>
        <time>2021-06-27T09:20:52.000Z</time>
      </trkpt>
      <trkpt lat="50.66985" lon="-2.133709">
        <ele>13.567191</ele>
        <time>2021-06-27T09:21:01.000Z</time>
      </trkpt>
      <trkpt lat="50.669957" lon="-2.134135">
        <ele>13.18615</ele>
        <time>2021-06-27T09:21:04.000Z</time>
      </trkpt>
      <trkpt lat="50.670002" lon="-2.134636">
        <ele>12.739391</ele>
        <time>2021-06-27T09:21:08.000Z</time>
      </trkpt>
      <trkpt lat="50.670006" lon="-2.136657">
        <ele>10.976516</ele>
        <time>2021-06-27T09:21:22.000Z</time>
      </trkpt>
      <trkpt lat="50.670089" lon="-2.137314">
        <ele>10.344233</ele>
        <time>2021-06-27T09:21:27.000Z</time>
      </trkpt>
      <trkpt lat="50.670298" lon="-2.137984">
        <ele>9.648721</ele>
        <time>2021-06-27T09:21:32.000Z</time>
      </trkpt>
      <trkpt lat="50.670681" lon="-2.138898">
        <ele>8.686731</ele>
        <time>2021-06-27T09:21:40.000Z</time>
      </trkpt>
      <trkpt lat="50.670702" lon="-2.139218">
        <ele>8.754352</ele>
        <time>2021-06-27T09:21:42.000Z</time>
      </trkpt>
      <trkpt lat="50.670624" lon="-2.140013">
        <ele>8.931102</ele>
        <time>2021-06-27T09:21:48.000Z</time>
      </trkpt>
      <trkpt lat="50.670608" lon="-2.141154">
        <ele>9.183</ele>
        <time>2021-06-27T09:21:56.000Z</time>
      </trkpt>
      <trkpt lat="50.670635" lon="-2.141956">
        <ele>9.640814</ele>
        <time>2021-06-27T09:22:02.000Z</time>
      </trkpt>
      <trkpt lat="50.670882" lon="-2.144337">
        <ele>12.469453</ele>
        <time>2021-06-27T09:22:19.000Z</time>
      </trkpt>
      <trkpt lat="50.67103" lon="-2.146722">
        <ele>15.56671</ele>
        <time>2021-06-27T09:22:36.000Z</time>
      </trkpt>
      <trkpt lat="50.671108" lon="-2.147924">
        <ele>16.288135</ele>
        <time>2021-06-27T09:22:45.000Z</time>
      </trkpt>
      <trkpt lat="50.67111" lon="-2.148027">
        <ele>16.279306</ele>
        <time>2021-06-27T09:22:46.000Z</time>
      </trkpt>
      <trkpt lat="50.671124" lon="-2.148148">
        <ele>16.27034</ele>
        <time>2021-06-27T09:22:47.000Z</time>
      </trkpt>
      <trkpt lat="50.671118" lon="-2.148933">
        <ele>16.210505</ele>
        <time>2021-06-27T09:22:53.000Z</time>
      </trkpt>
      <trkpt lat="50.671116" lon="-2.150042">
        <ele>16.12382</ele>
        <time>2021-06-27T09:23:01.000Z</time>
      </trkpt>
      <trkpt lat="50.671079" lon="-2.150761">
        <ele>15.945955</ele>
        <time>2021-06-27T09:23:06.000Z</time>
      </trkpt>
      <trkpt lat="50.671097" lon="-2.150949">
        <ele>15.890292</ele>
        <time>2021-06-27T09:23:07.000Z</time>
      </trkpt>
      <trkpt lat="50.671112" lon="-2.151337">
        <ele>15.786951</ele>
        <time>2021-06-27T09:23:10.000Z</time>
      </trkpt>
      <trkpt lat="50.67113" lon="-2.151607">
        <ele>15.711401</ele>
        <time>2021-06-27T09:23:12.000Z</time>
      </trkpt>
      <trkpt lat="50.671123" lon="-2.15246">
        <ele>15.477984</ele>
        <time>2021-06-27T09:23:18.000Z</time>
      </trkpt>
      <trkpt lat="50.671033" lon="-2.154385">
        <ele>15.468621</ele>
        <time>2021-06-27T09:23:32.000Z</time>
      </trkpt>
      <trkpt lat="50.670937" lon="-2.154823">
        <ele>15.510918</ele>
        <time>2021-06-27T09:23:35.000Z</time>
      </trkpt>
      <trkpt lat="50.670626" lon="-2.155216">
        <ele>15.569708</ele>
        <time>2021-06-27T09:23:39.000Z</time>
      </trkpt>
      <trkpt lat="50.670051" lon="-2.156172">
        <ele>15.518986</ele>
        <time>2021-06-27T09:23:48.000Z</time>
      </trkpt>
      <trkpt lat="50.669877" lon="-2.15655">
        <ele>15.482179</ele>
        <time>2021-06-27T09:23:51.000Z</time>
      </trkpt>
      <trkpt lat="50.669626" lon="-2.157412">
        <ele>15.406801</ele>
        <time>2021-06-27T09:23:58.000Z</time>
      </trkpt>
      <trkpt lat="50.669506" lon="-2.158215">
        <ele>15.56035</ele>
        <time>2021-06-27T09:24:04.000Z</time>
      </trkpt>
      <trkpt lat="50.669559" lon="-2.160089">
        <ele>16.395694</ele>
        <time>2021-06-27T09:24:17.000Z</time>
      </trkpt>
      <trkpt lat="50.669525" lon="-2.16049">
        <ele>16.580993</ele>
        <time>2021-06-27T09:24:20.000Z</time>
      </trkpt>
      <trkpt lat="50.669201" lon="-2.161708">
        <ele>17.098939</ele>
        <time>2021-06-27T09:24:29.000Z</time>
      </trkpt>
      <trkpt lat="50.669148" lon="-2.162113">
        <ele>17.26615</ele>
        <time>2021-06-27T09:24:32.000Z</time>
      </trkpt>
      <trkpt lat="50.669148" lon="-2.162419">
        <ele>17.386205</ele>
        <time>2021-06-27T09:24:34.000Z</time>
      </trkpt>
      <trkpt lat="50.669147" lon="-2.162677">
        <ele>17.480899</ele>
        <time>2021-06-27T09:24:36.000Z</time>
      </trkpt>
      <trkpt lat="50.669174" lon="-2.163152">
        <ele>17.673832</ele>
        <time>2021-06-27T09:24:39.000Z</time>
      </trkpt>
      <trkpt lat="50.669308" lon="-2.16541">
        <ele>18.517495</ele>
        <time>2021-06-27T09:24:55.000Z</time>
      </trkpt>
      <trkpt lat="50.669439" lon="-2.16655">
        <ele>19.068565</ele>
        <time>2021-06-27T09:25:03.000Z</time>
      </trkpt>
      <trkpt lat="50.669616" lon="-2.167095">
        <ele>19.500424</ele>
        <time>2021-06-27T09:25:07.000Z</time>
      </trkpt>
      <trkpt lat="50.669948" lon="-2.167452">
        <ele>19.942827</ele>
        <time>2021-06-27T09:25:11.000Z</time>
      </trkpt>
      <trkpt lat="50.669962" lon="-2.167497">
        <ele>19.984285</ele>
        <time>2021-06-27T09:25:11.000Z</time>
      </trkpt>
      <trkpt lat="50.669972" lon="-2.167526">
        <ele>20.01068</ele>
        <time>2021-06-27T09:25:11.000Z</time>
      </trkpt>
      <trkpt lat="50.670115" lon="-2.167993">
        <ele>20.370928</ele>
        <time>2021-06-27T09:25:15.000Z</time>
      </trkpt>
      <trkpt lat="50.670232" lon="-2.169472">
        <ele>21.472372</ele>
        <time>2021-06-27T09:25:26.000Z</time>
      </trkpt>
      <trkpt lat="50.670356" lon="-2.170408">
        <ele>22.207016</ele>
        <time>2021-06-27T09:25:33.000Z</time>
      </trkpt>
      <trkpt lat="50.670349" lon="-2.171427">
        <ele>22.99206</ele>
        <time>2021-06-27T09:25:40.000Z</time>
      </trkpt>
      <trkpt lat="50.670391" lon="-2.171642">
        <ele>22.960585</ele>
        <time>2021-06-27T09:25:42.000Z</time>
      </trkpt>
      <trkpt lat="50.671164" lon="-2.172895">
        <ele>22.668133</ele>
        <time>2021-06-27T09:25:54.000Z</time>
      </trkpt>
      <trkpt lat="50.671386" lon="-2.173368">
        <ele>22.571616</ele>
        <time>2021-06-27T09:25:58.000Z</time>
      </trkpt>
      <trkpt lat="50.672039" lon="-2.174745">
        <ele>20.601279</ele>
        <time>2021-06-27T09:26:10.000Z</time>
      </trkpt>
      <trkpt lat="50.672092" lon="-2.174822">
        <ele>20.440388</ele>
        <time>2021-06-27T09:26:11.000Z</time>
      </trkpt>
      <trkpt lat="50.672263" lon="-2.175104">
        <ele>19.897247</ele>
        <time>2021-06-27T09:26:14.000Z</time>
      </trkpt>
      <trkpt lat="50.672614" lon="-2.175645">
        <ele>18.871601</ele>
        <time>2021-06-27T09:26:19.000Z</time>
      </trkpt>
      <trkpt lat="50.672922" lon="-2.176155">
        <ele>17.982213</ele>
        <time>2021-06-27T09:26:24.000Z</time>
      </trkpt>
      <trkpt lat="50.673022" lon="-2.176308">
        <ele>17.720399</ele>
        <time>2021-06-27T09:26:26.000Z</time>
      </trkpt>
      <trkpt lat="50.674556" lon="-2.178689">
        <ele>14.107078</ele>
        <time>2021-06-27T09:26:50.000Z</time>
      </trkpt>
      <trkpt lat="50.67486" lon="-2.179153">
        <ele>13.547049</ele>
        <time>2021-06-27T09:26:55.000Z</time>
      </trkpt>
      <trkpt lat="50.675058" lon="-2.179516">
        <ele>13.135709</ele>
        <time>2021-06-27T09:26:58.000Z</time>
      </trkpt>
      <trkpt lat="50.675106" lon="-2.179762">
        <ele>12.923652</ele>
        <time>2021-06-27T09:27:00.000Z</time>
      </trkpt>
      <trkpt lat="50.675127" lon="-2.180359">
        <ele>12.70269</ele>
        <time>2021-06-27T09:27:04.000Z</time>
      </trkpt>
      <trkpt lat="50.675143" lon="-2.181457">
        <ele>12.355741</ele>
        <time>2021-06-27T09:27:12.000Z</time>
      </trkpt>
      <trkpt lat="50.675142" lon="-2.181882">
        <ele>12.219677</ele>
        <time>2021-06-27T09:27:15.000Z</time>
      </trkpt>
      <trkpt lat="50.675156" lon="-2.182833">
        <ele>11.987718</ele>
        <time>2021-06-27T09:27:22.000Z</time>
      </trkpt>
      <trkpt lat="50.675155" lon="-2.183084">
        <ele>12.010918</ele>
        <time>2021-06-27T09:27:24.000Z</time>
      </trkpt>
      <trkpt lat="50.675171" lon="-2.183427">
        <ele>12.043051</ele>
        <time>2021-06-27T09:27:26.000Z</time>
      </trkpt>
      <trkpt lat="50.675273" lon="-2.184572">
        <ele>12.148563</ele>
        <time>2021-06-27T09:27:34.000Z</time>
      </trkpt>
      <trkpt lat="50.675271" lon="-2.18493">
        <ele>12.182654</ele>
        <time>2021-06-27T09:27:37.000Z</time>
      </trkpt>
      <trkpt lat="50.674614" lon="-2.189957">
        <ele>14.603418</ele>
        <time>2021-06-27T09:28:13.000Z</time>
      </trkpt>
      <trkpt lat="50.6746" lon="-2.190209">
        <ele>14.734872</ele>
        <time>2021-06-27T09:28:15.000Z</time>
      </trkpt>
      <trkpt lat="50.67459" lon="-2.190225">
        <ele>14.737506</ele>
        <time>2021-06-27T09:28:15.000Z</time>
      </trkpt>
      <trkpt lat="50.67464" lon="-2.190589">
        <ele>14.93906</ele>
        <time>2021-06-27T09:28:18.000Z</time>
      </trkpt>
      <trkpt lat="50.67469" lon="-2.190814">
        <ele>15.067778</ele>
        <time>2021-06-27T09:28:20.000Z</time>
      </trkpt>
      <trkpt lat="50.674763" lon="-2.191106">
        <ele>15.21669</ele>
        <time>2021-06-27T09:28:22.000Z</time>
      </trkpt>
      <trkpt lat="50.674827" lon="-2.191496">
        <ele>15.38462</ele>
        <time>2021-06-27T09:28:25.000Z</time>
      </trkpt>
      <trkpt lat="50.674827" lon="-2.191594">
        <ele>15.420632</ele>
        <time>2021-06-27T09:28:26.000Z</time>
      </trkpt>
      <trkpt lat="50.674901" lon="-2.192523">
        <ele>15.808008</ele>
        <time>2021-06-27T09:28:33.000Z</time>
      </trkpt>
      <trkpt lat="50.674889" lon="-2.192614">
        <ele>15.844376</ele>
        <time>2021-06-27T09:28:34.000Z</time>
      </trkpt>
      <trkpt lat="50.674868" lon="-2.192941">
        <ele>15.98205</ele>
        <time>2021-06-27T09:28:36.000Z</time>
      </trkpt>
      <trkpt lat="50.674828" lon="-2.193797">
        <ele>16.330427</ele>
        <time>2021-06-27T09:28:42.000Z</time>
      </trkpt>
      <trkpt lat="50.674669" lon="-2.194798">
        <ele>16.229567</ele>
        <time>2021-06-27T09:28:49.000Z</time>
      </trkpt>
      <trkpt lat="50.67472" lon="-2.195584">
        <ele>16.13242</ele>
        <time>2021-06-27T09:28:55.000Z</time>
      </trkpt>
      <trkpt lat="50.674838" lon="-2.195917">
        <ele>16.086989</ele>
        <time>2021-06-27T09:28:58.000Z</time>
      </trkpt>
      <trkpt lat="50.674898" lon="-2.196098">
        <ele>16.061516</ele>
        <time>2021-06-27T09:28:59.000Z</time>
      </trkpt>
      <trkpt lat="50.675188" lon="-2.196211">
        <ele>16.004254</ele>
        <time>2021-06-27T09:29:02.000Z</time>
      </trkpt>
      <trkpt lat="50.675373" lon="-2.196272">
        <ele>15.770848</ele>
        <time>2021-06-27T09:29:04.000Z</time>
      </trkpt>
      <trkpt lat="50.675525" lon="-2.196411">
        <ele>15.520842</ele>
        <time>2021-06-27T09:29:06.000Z</time>
      </trkpt>
      <trkpt lat="50.67657" lon="-2.198395">
        <ele>13.561674</ele>
        <time>2021-06-27T09:29:24.000Z</time>
      </trkpt>
      <trkpt lat="50.676918" lon="-2.199064">
        <ele>13.247839</ele>
        <time>2021-06-27T09:29:30.000Z</time>
      </trkpt>
      <trkpt lat="50.677222" lon="-2.1998">
        <ele>12.933721</ele>
        <time>2021-06-27T09:29:36.000Z</time>
      </trkpt>
      <trkpt lat="50.677665" lon="-2.203666">
        <ele>13.228017</ele>
        <time>2021-06-27T09:30:04.000Z</time>
      </trkpt>
      <trkpt lat="50.677767" lon="-2.205284">
        <ele>13.833186</ele>
        <time>2021-06-27T09:30:15.000Z</time>
      </trkpt>
      <trkpt lat="50.678129" lon="-2.207376">
        <ele>14.470882</ele>
        <time>2021-06-27T09:30:30.000Z</time>
      </trkpt>
      <trkpt lat="50.678208" lon="-2.207811">
        <ele>14.574148</ele>
        <time>2021-06-27T09:30:33.000Z</time>
      </trkpt>
      <trkpt lat="50.678337" lon="-2.208288">
        <ele>14.694398</ele>
        <time>2021-06-27T09:30:37.000Z</time>
      </trkpt>
      <trkpt lat="50.678419" lon="-2.208351">
        <ele>14.728204</ele>
        <time>2021-06-27T09:30:38.000Z</time>
      </trkpt>
      <trkpt lat="50.678596" lon="-2.208506">
        <ele>14.798768</ele>
        <time>2021-06-27T09:30:40.000Z</time>
      </trkpt>
      <trkpt lat="50.678807" lon="-2.208671">
        <ele>14.755534</ele>
        <time>2021-06-27T09:30:43.000Z</time>
      </trkpt>
      <trkpt lat="50.679216" lon="-2.209401">
        <ele>14.422779</ele>
        <time>2021-06-27T09:30:50.000Z</time>
      </trkpt>
      <trkpt lat="50.679539" lon="-2.209765">
        <ele>14.20389</ele>
        <time>2021-06-27T09:30:54.000Z</time>
      </trkpt>
      <trkpt lat="50.679666" lon="-2.20988">
        <ele>14.119042</ele>
        <time>2021-06-27T09:30:56.000Z</time>
      </trkpt>
      <trkpt lat="50.679761" lon="-2.209926">
        <ele>14.067041</ele>
        <time>2021-06-27T09:30:57.000Z</time>
      </trkpt>
      <trkpt lat="50.680248" lon="-2.210075">
        <ele>13.80113</ele>
        <time>2021-06-27T09:31:03.000Z</time>
      </trkpt>
      <trkpt lat="50.680407" lon="-2.210101">
        <ele>13.710855</ele>
        <time>2021-06-27T09:31:05.000Z</time>
      </trkpt>
      <trkpt lat="50.680789" lon="-2.210158">
        <ele>13.51434</ele>
        <time>2021-06-27T09:31:09.000Z</time>
      </trkpt>
      <trkpt lat="50.680943" lon="-2.210312">
        <ele>13.413873</ele>
        <time>2021-06-27T09:31:11.000Z</time>
      </trkpt>
      <trkpt lat="50.681036" lon="-2.210629">
        <ele>13.298101</ele>
        <time>2021-06-27T09:31:13.000Z</time>
      </trkpt>
      <trkpt lat="50.681405" lon="-2.213164">
        <ele>13.358145</ele>
        <time>2021-06-27T09:31:31.000Z</time>
      </trkpt>
      <trkpt lat="50.68153" lon="-2.214672">
        <ele>13.888027</ele>
        <time>2021-06-27T09:31:42.000Z</time>
      </trkpt>
      <trkpt lat="50.681537" lon="-2.215047">
        <ele>14.196425</ele>
        <time>2021-06-27T09:31:45.000Z</time>
      </trkpt>
      <trkpt lat="50.68142" lon="-2.216652">
        <ele>15.46929</ele>
        <time>2021-06-27T09:31:56.000Z</time>
      </trkpt>
      <trkpt lat="50.681374" lon="-2.217124">
        <ele>15.837957</ele>
        <time>2021-06-27T09:31:59.000Z</time>
      </trkpt>
      <trkpt lat="50.681349" lon="-2.217402">
        <ele>16.058508</ele>
        <time>2021-06-27T09:32:01.000Z</time>
      </trkpt>
      <trkpt lat="50.681192" lon="-2.218447">
        <ele>16.388976</ele>
        <time>2021-06-27T09:32:09.000Z</time>
      </trkpt>
      <trkpt lat="50.681082" lon="-2.218816">
        <ele>16.518483</ele>
        <time>2021-06-27T09:32:12.000Z</time>
      </trkpt>
      <trkpt lat="50.680891" lon="-2.219072">
        <ele>16.641179</ele>
        <time>2021-06-27T09:32:15.000Z</time>
      </trkpt>
      <trkpt lat="50.680989" lon="-2.219318">
        <ele>16.728739</ele>
        <time>2021-06-27T09:32:17.000Z</time>
      </trkpt>
      <trkpt lat="50.681016" lon="-2.219638">
        <ele>16.827393</ele>
        <time>2021-06-27T09:32:19.000Z</time>
      </trkpt>
      <trkpt lat="50.681012" lon="-2.219712">
        <ele>16.852868</ele>
        <time>2021-06-27T09:32:20.000Z</time>
      </trkpt>
      <trkpt lat="50.681058" lon="-2.220211">
        <ele>16.925472</ele>
        <time>2021-06-27T09:32:24.000Z</time>
      </trkpt>
      <trkpt lat="50.681087" lon="-2.220376">
        <ele>16.915888</ele>
        <time>2021-06-27T09:32:25.000Z</time>
      </trkpt>
      <trkpt lat="50.681228" lon="-2.22108">
        <ele>16.876908</ele>
        <time>2021-06-27T09:32:30.000Z</time>
      </trkpt>
      <trkpt lat="50.681239" lon="-2.221209">
        <ele>16.869245</ele>
        <time>2021-06-27T09:32:31.000Z</time>
      </trkpt>
      <trkpt lat="50.681291" lon="-2.221475">
        <ele>16.854692</ele>
        <time>2021-06-27T09:32:33.000Z</time>
      </trkpt>
      <trkpt lat="50.681304" lon="-2.221698">
        <ele>16.841868</ele>
        <time>2021-06-27T09:32:35.000Z</time>
      </trkpt>
      <trkpt lat="50.681334" lon="-2.222149">
        <ele>16.817251</ele>
        <time>2021-06-27T09:32:38.000Z</time>
      </trkpt>
      <trkpt lat="50.681333" lon="-2.222328">
        <ele>16.807669</ele>
        <time>2021-06-27T09:32:39.000Z</time>
      </trkpt>
      <trkpt lat="50.681346" lon="-2.22244">
        <ele>16.801806</ele>
        <time>2021-06-27T09:32:40.000Z</time>
      </trkpt>
      <trkpt lat="50.681387" lon="-2.222594">
        <ele>16.792824</ele>
        <time>2021-06-27T09:32:41.000Z</time>
      </trkpt>
      <trkpt lat="50.681317" lon="-2.222765">
        <ele>16.796046</ele>
        <time>2021-06-27T09:32:42.000Z</time>
      </trkpt>
      <trkpt lat="50.681294" lon="-2.223133">
        <ele>16.93777</ele>
        <time>2021-06-27T09:32:45.000Z</time>
      </trkpt>
      <trkpt lat="50.681263" lon="-2.223478">
        <ele>17.067772</ele>
        <time>2021-06-27T09:32:47.000Z</time>
      </trkpt>
      <trkpt lat="50.681227" lon="-2.223704">
        <ele>17.156552</ele>
        <time>2021-06-27T09:32:49.000Z</time>
      </trkpt>
      <trkpt lat="50.681199" lon="-2.223931">
        <ele>17.244534</ele>
        <time>2021-06-27T09:32:51.000Z</time>
      </trkpt>
      <trkpt lat="50.681119" lon="-2.224373">
        <ele>17.416513</ele>
        <time>2021-06-27T09:32:54.000Z</time>
      </trkpt>
      <trkpt lat="50.681006" lon="-2.224965">
        <ele>17.647552</ele>
        <time>2021-06-27T09:32:58.000Z</time>
      </trkpt>
      <trkpt lat="50.680991" lon="-2.225021">
        <ele>17.672174</ele>
        <time>2021-06-27T09:32:58.000Z</time>
      </trkpt>
      <trkpt lat="50.680943" lon="-2.225221">
        <ele>17.748711</ele>
        <time>2021-06-27T09:33:00.000Z</time>
      </trkpt>
      <trkpt lat="50.680892" lon="-2.225438">
        <ele>17.836429</ele>
        <time>2021-06-27T09:33:02.000Z</time>
      </trkpt>
      <trkpt lat="50.680819" lon="-2.225622">
        <ele>18.000235</ele>
        <time>2021-06-27T09:33:04.000Z</time>
      </trkpt>
      <trkpt lat="50.680744" lon="-2.225779">
        <ele>18.182114</ele>
        <time>2021-06-27T09:33:05.000Z</time>
      </trkpt>
      <trkpt lat="50.680633" lon="-2.226011">
        <ele>18.433927</ele>
        <time>2021-06-27T09:33:07.000Z</time>
      </trkpt>
      <trkpt lat="50.68002" lon="-2.226915">
        <ele>19.604677</ele>
        <time>2021-06-27T09:33:16.000Z</time>
      </trkpt>
      <trkpt lat="50.679954" lon="-2.227005">
        <ele>19.719229</ele>
        <time>2021-06-27T09:33:17.000Z</time>
      </trkpt>
      <trkpt lat="50.67914" lon="-2.228187">
        <ele>21.553243</ele>
        <time>2021-06-27T09:33:29.000Z</time>
      </trkpt>
      <trkpt lat="50.678842" lon="-2.228632">
        <ele>22.297244</ele>
        <time>2021-06-27T09:33:34.000Z</time>
      </trkpt>
      <trkpt lat="50.678543" lon="-2.229057">
        <ele>23.039658</ele>
        <time>2021-06-27T09:33:38.000Z</time>
      </trkpt>
      <trkpt lat="50.678422" lon="-2.229216">
        <ele>23.328904</ele>
        <time>2021-06-27T09:33:40.000Z</time>
      </trkpt>
      <trkpt lat="50.678332" lon="-2.229366">
        <ele>23.575378</ele>
        <time>2021-06-27T09:33:41.000Z</time>
      </trkpt>
      <trkpt lat="50.678316" lon="-2.229396">
        <ele>23.628144</ele>
        <time>2021-06-27T09:33:41.000Z</time>
      </trkpt>
      <trkpt lat="50.678185" lon="-2.229603">
        <ele>23.82829</ele>
        <time>2021-06-27T09:33:43.000Z</time>
      </trkpt>
      <trkpt lat="50.678122" lon="-2.229724">
        <ele>23.918776</ele>
        <time>2021-06-27T09:33:44.000Z</time>
      </trkpt>
      <trkpt lat="50.678047" lon="-2.229886">
        <ele>24.05801</ele>
        <time>2021-06-27T09:33:45.000Z</time>
      </trkpt>
      <trkpt lat="50.678001" lon="-2.229999">
        <ele>24.151723</ele>
        <time>2021-06-27T09:33:46.000Z</time>
      </trkpt>
      <trkpt lat="50.677952" lon="-2.230088">
        <ele>24.214593</ele>
        <time>2021-06-27T09:33:47.000Z</time>
      </trkpt>
      <trkpt lat="50.677901" lon="-2.230218">
        <ele>24.320357</ele>
        <time>2021-06-27T09:33:48.000Z</time>
      </trkpt>
      <trkpt lat="50.67784" lon="-2.230402">
        <ele>24.447975</ele>
        <time>2021-06-27T09:33:49.000Z</time>
      </trkpt>
      <trkpt lat="50.677735" lon="-2.230714">
        <ele>24.678761</ele>
        <time>2021-06-27T09:33:51.000Z</time>
      </trkpt>
      <trkpt lat="50.677726" lon="-2.23074">
        <ele>24.707506</ele>
        <time>2021-06-27T09:33:51.000Z</time>
      </trkpt>
      <trkpt lat="50.677677" lon="-2.230962">
        <ele>24.862487</ele>
        <time>2021-06-27T09:33:53.000Z</time>
      </trkpt>
      <trkpt lat="50.677549" lon="-2.231447">
        <ele>25.199918</ele>
        <time>2021-06-27T09:33:57.000Z</time>
      </trkpt>
      <trkpt lat="50.676843" lon="-2.234144">
        <ele>26.252035</ele>
        <time>2021-06-27T09:34:18.000Z</time>
      </trkpt>
      <trkpt lat="50.676535" lon="-2.235417">
        <ele>26.903742</ele>
        <time>2021-06-27T09:34:28.000Z</time>
      </trkpt>
      <trkpt lat="50.67598" lon="-2.237791">
        <ele>28.160687</ele>
        <time>2021-06-27T09:34:46.000Z</time>
      </trkpt>
      <trkpt lat="50.675969" lon="-2.238002">
        <ele>28.238174</ele>
        <time>2021-06-27T09:34:47.000Z</time>
      </trkpt>
      <trkpt lat="50.675962" lon="-2.238096">
        <ele>28.267731</ele>
        <time>2021-06-27T09:34:48.000Z</time>
      </trkpt>
      <trkpt lat="50.675958" lon="-2.238367">
        <ele>28.366515</ele>
        <time>2021-06-27T09:34:50.000Z</time>
      </trkpt>
      <trkpt lat="50.675943" lon="-2.238475">
        <ele>28.407297</ele>
        <time>2021-06-27T09:34:51.000Z</time>
      </trkpt>
      <trkpt lat="50.675909" lon="-2.23861">
        <ele>28.461042</ele>
        <time>2021-06-27T09:34:52.000Z</time>
      </trkpt>
      <trkpt lat="50.675879" lon="-2.238706">
        <ele>28.495032</ele>
        <time>2021-06-27T09:34:53.000Z</time>
      </trkpt>
      <trkpt lat="50.675817" lon="-2.238731">
        <ele>28.532649</ele>
        <time>2021-06-27T09:34:54.000Z</time>
      </trkpt>
      <trkpt lat="50.675767" lon="-2.238778">
        <ele>28.563994</ele>
        <time>2021-06-27T09:34:55.000Z</time>
      </trkpt>
      <trkpt lat="50.675741" lon="-2.238843">
        <ele>28.593697</ele>
        <time>2021-06-27T09:34:56.000Z</time>
      </trkpt>
      <trkpt lat="50.675698" lon="-2.238909">
        <ele>28.623954</ele>
        <time>2021-06-27T09:34:57.000Z</time>
      </trkpt>
      <trkpt lat="50.675675" lon="-2.23898">
        <ele>28.656198</ele>
        <time>2021-06-27T09:34:58.000Z</time>
      </trkpt>
      <trkpt lat="50.675661" lon="-2.239115">
        <ele>28.702346</ele>
        <time>2021-06-27T09:34:59.000Z</time>
      </trkpt>
      <trkpt lat="50.675667" lon="-2.239184">
        <ele>28.729748</ele>
        <time>2021-06-27T09:34:59.000Z</time>
      </trkpt>
      <trkpt lat="50.67569" lon="-2.239304">
        <ele>28.772753</ele>
        <time>2021-06-27T09:35:00.000Z</time>
      </trkpt>
      <trkpt lat="50.675651" lon="-2.239419">
        <ele>28.815304</ele>
        <time>2021-06-27T09:35:01.000Z</time>
      </trkpt>
      <trkpt lat="50.675635" lon="-2.239542">
        <ele>28.863126</ele>
        <time>2021-06-27T09:35:02.000Z</time>
      </trkpt>
      <trkpt lat="50.67561" lon="-2.239695">
        <ele>28.916009</ele>
        <time>2021-06-27T09:35:03.000Z</time>
      </trkpt>
      <trkpt lat="50.675474" lon="-2.23998">
        <ele>28.923983</ele>
        <time>2021-06-27T09:35:06.000Z</time>
      </trkpt>
      <trkpt lat="50.675224" lon="-2.240649">
        <ele>28.890949</ele>
        <time>2021-06-27T09:35:11.000Z</time>
      </trkpt>
      <trkpt lat="50.674844" lon="-2.241859">
        <ele>28.832755</ele>
        <time>2021-06-27T09:35:21.000Z</time>
      </trkpt>
      <trkpt lat="50.673949" lon="-2.244633">
        <ele>29.218314</ele>
        <time>2021-06-27T09:35:43.000Z</time>
      </trkpt>
      <trkpt lat="50.673231" lon="-2.246188">
        <ele>29.854711</ele>
        <time>2021-06-27T09:35:57.000Z</time>
      </trkpt>
      <trkpt lat="50.673098" lon="-2.246434">
        <ele>29.963155</ele>
        <time>2021-06-27T09:35:59.000Z</time>
      </trkpt>
      <trkpt lat="50.672849" lon="-2.246909">
        <ele>30.175423</ele>
        <time>2021-06-27T09:36:03.000Z</time>
      </trkpt>
      <trkpt lat="50.672087" lon="-2.248301">
        <ele>30.617034</ele>
        <time>2021-06-27T09:36:16.000Z</time>
      </trkpt>
      <trkpt lat="50.671614" lon="-2.249149">
        <ele>30.879852</ele>
        <time>2021-06-27T09:36:24.000Z</time>
      </trkpt>
      <trkpt lat="50.671274" lon="-2.249843">
        <ele>31.042874</ele>
        <time>2021-06-27T09:36:30.000Z</time>
      </trkpt>
      <trkpt lat="50.670912" lon="-2.250832">
        <ele>31.259918</ele>
        <time>2021-06-27T09:36:38.000Z</time>
      </trkpt>
      <trkpt lat="50.670645" lon="-2.251703">
        <ele>31.433919</ele>
        <time>2021-06-27T09:36:45.000Z</time>
      </trkpt>
      <trkpt lat="50.670529" lon="-2.252142">
        <ele>31.505459</ele>
        <time>2021-06-27T09:36:48.000Z</time>
      </trkpt>
      <trkpt lat="50.670412" lon="-2.252683">
        <ele>31.58928</ele>
        <time>2021-06-27T09:36:52.000Z</time>
      </trkpt>
      <trkpt lat="50.67027" lon="-2.253401">
        <ele>31.704242</ele>
        <time>2021-06-27T09:36:57.000Z</time>
      </trkpt>
      <trkpt lat="50.670176" lon="-2.253991">
        <ele>31.794017</ele>
        <time>2021-06-27T09:37:01.000Z</time>
      </trkpt>
      <trkpt lat="50.670128" lon="-2.254385">
        <ele>31.853688</ele>
        <time>2021-06-27T09:37:04.000Z</time>
      </trkpt>
      <trkpt lat="50.670076" lon="-2.254986">
        <ele>31.941102</ele>
        <time>2021-06-27T09:37:08.000Z</time>
      </trkpt>
      <trkpt lat="50.669891" lon="-2.257453">
        <ele>32.32308</ele>
        <time>2021-06-27T09:37:26.000Z</time>
      </trkpt>
      <trkpt lat="50.669622" lon="-2.261287">
        <ele>32.742202</ele>
        <time>2021-06-27T09:37:53.000Z</time>
      </trkpt>
      <trkpt lat="50.669581" lon="-2.261976">
        <ele>32.709403</ele>
        <time>2021-06-27T09:37:58.000Z</time>
      </trkpt>
      <trkpt lat="50.669543" lon="-2.262705">
        <ele>32.67606</ele>
        <time>2021-06-27T09:38:03.000Z</time>
      </trkpt>
      <trkpt lat="50.669471" lon="-2.263753">
        <ele>33.068115</ele>
        <time>2021-06-27T09:38:10.000Z</time>
      </trkpt>
      <trkpt lat="50.669445" lon="-2.264452">
        <ele>33.332595</ele>
        <time>2021-06-27T09:38:15.000Z</time>
      </trkpt>
      <trkpt lat="50.66945" lon="-2.264622">
        <ele>33.393701</ele>
        <time>2021-06-27T09:38:16.000Z</time>
      </trkpt>
      <trkpt lat="50.66945" lon="-2.265676">
        <ele>33.957679</ele>
        <time>2021-06-27T09:38:23.000Z</time>
      </trkpt>
      <trkpt lat="50.669453" lon="-2.266029">
        <ele>34.508353</ele>
        <time>2021-06-27T09:38:25.000Z</time>
      </trkpt>
      <trkpt lat="50.669529" lon="-2.267202">
        <ele>36.359063</ele>
        <time>2021-06-27T09:38:33.000Z</time>
      </trkpt>
      <trkpt lat="50.669572" lon="-2.267778">
        <ele>37.278149</ele>
        <time>2021-06-27T09:38:37.000Z</time>
      </trkpt>
      <trkpt lat="50.6696" lon="-2.2685">
        <ele>38.281645</ele>
        <time>2021-06-27T09:38:42.000Z</time>
      </trkpt>
      <trkpt lat="50.669587" lon="-2.269258">
        <ele>38.687103</ele>
        <time>2021-06-27T09:38:47.000Z</time>
      </trkpt>
      <trkpt lat="50.669566" lon="-2.269499">
        <ele>38.81557</ele>
        <time>2021-06-27T09:38:49.000Z</time>
      </trkpt>
      <trkpt lat="50.669461" lon="-2.270529">
        <ele>39.383981</ele>
        <time>2021-06-27T09:38:56.000Z</time>
      </trkpt>
      <trkpt lat="50.669403" lon="-2.27096">
        <ele>39.626018</ele>
        <time>2021-06-27T09:38:59.000Z</time>
      </trkpt>
      <trkpt lat="50.669398" lon="-2.271009">
        <ele>39.647027</ele>
        <time>2021-06-27T09:38:59.000Z</time>
      </trkpt>
      <trkpt lat="50.669301" lon="-2.271489">
        <ele>39.573267</ele>
        <time>2021-06-27T09:39:03.000Z</time>
      </trkpt>
      <trkpt lat="50.669222" lon="-2.271837">
        <ele>39.385965</ele>
        <time>2021-06-27T09:39:06.000Z</time>
      </trkpt>
      <trkpt lat="50.669178" lon="-2.27207">
        <ele>39.258029</ele>
        <time>2021-06-27T09:39:08.000Z</time>
      </trkpt>
      <trkpt lat="50.668982" lon="-2.272677">
        <ele>38.920092</ele>
        <time>2021-06-27T09:39:13.000Z</time>
      </trkpt>
      <trkpt lat="50.668091" lon="-2.275545">
        <ele>37.265684</ele>
        <time>2021-06-27T09:39:36.000Z</time>
      </trkpt>
      <trkpt lat="50.667888" lon="-2.276203">
        <ele>36.875623</ele>
        <time>2021-06-27T09:39:41.000Z</time>
      </trkpt>
      <trkpt lat="50.667866" lon="-2.276271">
        <ele>36.833226</ele>
        <time>2021-06-27T09:39:42.000Z</time>
      </trkpt>
      <trkpt lat="50.667642" lon="-2.276969">
        <ele>36.602035</ele>
        <time>2021-06-27T09:39:48.000Z</time>
      </trkpt>
      <trkpt lat="50.6674" lon="-2.277681">
        <ele>36.374193</ele>
        <time>2021-06-27T09:39:54.000Z</time>
      </trkpt>
      <trkpt lat="50.667094" lon="-2.278567">
        <ele>36.092544</ele>
        <time>2021-06-27T09:40:01.000Z</time>
      </trkpt>
      <trkpt lat="50.666863" lon="-2.279145">
        <ele>36.148242</ele>
        <time>2021-06-27T09:40:06.000Z</time>
      </trkpt>
      <trkpt lat="50.666532" lon="-2.27994">
        <ele>36.452151</ele>
        <time>2021-06-27T09:40:13.000Z</time>
      </trkpt>
      <trkpt lat="50.666283" lon="-2.280808">
        <ele>36.760619</ele>
        <time>2021-06-27T09:40:20.000Z</time>
      </trkpt>
      <trkpt lat="50.665688" lon="-2.283218">
        <ele>38.477779</ele>
        <time>2021-06-27T09:40:38.000Z</time>
      </trkpt>
      <trkpt lat="50.665437" lon="-2.284247">
        <ele>39.350371</ele>
        <time>2021-06-27T09:40:46.000Z</time>
      </trkpt>
      <trkpt lat="50.664947" lon="-2.285732">
        <ele>40.91134</ele>
        <time>2021-06-27T09:40:58.000Z</time>
      </trkpt>
      <trkpt lat="50.664482" lon="-2.286619">
        <ele>41.963838</ele>
        <time>2021-06-27T09:41:06.000Z</time>
      </trkpt>
      <trkpt lat="50.664172" lon="-2.287202">
        <ele>42.673671</ele>
        <time>2021-06-27T09:41:11.000Z</time>
      </trkpt>
      <trkpt lat="50.664042" lon="-2.287481">
        <ele>42.979729</ele>
        <time>2021-06-27T09:41:13.000Z</time>
      </trkpt>
      <trkpt lat="50.663691" lon="-2.288602">
        <ele>44.125541</ele>
        <time>2021-06-27T09:41:22.000Z</time>
      </trkpt>
      <trkpt lat="50.663551" lon="-2.289534">
        <ele>44.511889</ele>
        <time>2021-06-27T09:41:29.000Z</time>
      </trkpt>
      <trkpt lat="50.663534" lon="-2.289989">
        <ele>44.640041</ele>
        <time>2021-06-27T09:41:32.000Z</time>
      </trkpt>
      <trkpt lat="50.663542" lon="-2.292065">
        <ele>45.23587</ele>
        <time>2021-06-27T09:41:47.000Z</time>
      </trkpt>
      <trkpt lat="50.663523" lon="-2.293299">
        <ele>45.601349</ele>
        <time>2021-06-27T09:41:56.000Z</time>
      </trkpt>
      <trkpt lat="50.66348" lon="-2.293971">
        <ele>45.801433</ele>
        <time>2021-06-27T09:42:01.000Z</time>
      </trkpt>
      <trkpt lat="50.663386" lon="-2.295082">
        <ele>46.412161</ele>
        <time>2021-06-27T09:42:09.000Z</time>
      </trkpt>
      <trkpt lat="50.663209" lon="-2.296782">
        <ele>47.639626</ele>
        <time>2021-06-27T09:42:21.000Z</time>
      </trkpt>
      <trkpt lat="50.663206" lon="-2.297192">
        <ele>47.932029</ele>
        <time>2021-06-27T09:42:24.000Z</time>
      </trkpt>
      <trkpt lat="50.663215" lon="-2.29764">
        <ele>48.190949</ele>
        <time>2021-06-27T09:42:27.000Z</time>
      </trkpt>
      <trkpt lat="50.663284" lon="-2.300175">
        <ele>49.584341</ele>
        <time>2021-06-27T09:42:45.000Z</time>
      </trkpt>
      <trkpt lat="50.66324" lon="-2.301104">
        <ele>50.097981</ele>
        <time>2021-06-27T09:42:52.000Z</time>
      </trkpt>
      <trkpt lat="50.663108" lon="-2.302454">
        <ele>50.844344</ele>
        <time>2021-06-27T09:43:02.000Z</time>
      </trkpt>
      <trkpt lat="50.663094" lon="-2.302607">
        <ele>50.930156</ele>
        <time>2021-06-27T09:43:03.000Z</time>
      </trkpt>
      <trkpt lat="50.663038" lon="-2.303065">
        <ele>51.203751</ele>
        <time>2021-06-27T09:43:06.000Z</time>
      </trkpt>
      <trkpt lat="50.662989" lon="-2.304314">
        <ele>51.966728</ele>
        <time>2021-06-27T09:43:15.000Z</time>
      </trkpt>
      <trkpt lat="50.663196" lon="-2.308067">
        <ele>54.169888</ele>
        <time>2021-06-27T09:43:42.000Z</time>
      </trkpt>
      <trkpt lat="50.663244" lon="-2.311094">
        <ele>55.881556</ele>
        <time>2021-06-27T09:44:03.000Z</time>
      </trkpt>
      <trkpt lat="50.663301" lon="-2.316027">
        <ele>58.57906</ele>
        <time>2021-06-27T09:44:38.000Z</time>
      </trkpt>
      <trkpt lat="50.663367" lon="-2.316743">
        <ele>58.805218</ele>
        <time>2021-06-27T09:44:43.000Z</time>
      </trkpt>
      <trkpt lat="50.663447" lon="-2.317229">
        <ele>58.704936</ele>
        <time>2021-06-27T09:44:47.000Z</time>
      </trkpt>
      <trkpt lat="50.663523" lon="-2.317538">
        <ele>58.405066</ele>
        <time>2021-06-27T09:44:49.000Z</time>
      </trkpt>
      <trkpt lat="50.663689" lon="-2.317998">
        <ele>57.923441</ele>
        <time>2021-06-27T09:44:53.000Z</time>
      </trkpt>
      <trkpt lat="50.664025" lon="-2.31868">
        <ele>57.139707</ele>
        <time>2021-06-27T09:44:59.000Z</time>
      </trkpt>
      <trkpt lat="50.664451" lon="-2.319291">
        <ele>56.301787</ele>
        <time>2021-06-27T09:45:05.000Z</time>
      </trkpt>
      <trkpt lat="50.664794" lon="-2.319758">
        <ele>55.892531</ele>
        <time>2021-06-27T09:45:10.000Z</time>
      </trkpt>
      <trkpt lat="50.664855" lon="-2.319851">
        <ele>55.801689</ele>
        <time>2021-06-27T09:45:11.000Z</time>
      </trkpt>
      <trkpt lat="50.665116" lon="-2.320295">
        <ele>55.452126</ele>
        <time>2021-06-27T09:45:15.000Z</time>
      </trkpt>
      <trkpt lat="50.665369" lon="-2.320992">
        <ele>54.984066</ele>
        <time>2021-06-27T09:45:21.000Z</time>
      </trkpt>
      <trkpt lat="50.665672" lon="-2.322359">
        <ele>55.499731</ele>
        <time>2021-06-27T09:45:31.000Z</time>
      </trkpt>
      <trkpt lat="50.665696" lon="-2.323033">
        <ele>56.175329</ele>
        <time>2021-06-27T09:45:36.000Z</time>
      </trkpt>
      <trkpt lat="50.665696" lon="-2.323479">
        <ele>56.630402</ele>
        <time>2021-06-27T09:45:39.000Z</time>
      </trkpt>
      <trkpt lat="50.665669" lon="-2.323974">
        <ele>57.121754</ele>
        <time>2021-06-27T09:45:43.000Z</time>
      </trkpt>
      <trkpt lat="50.665616" lon="-2.324525">
        <ele>57.740886</ele>
        <time>2021-06-27T09:45:47.000Z</time>
      </trkpt>
      <trkpt lat="50.665466" lon="-2.325295">
        <ele>58.786844</ele>
        <time>2021-06-27T09:45:53.000Z</time>
      </trkpt>
      <trkpt lat="50.66544" lon="-2.325377">
        <ele>58.892967</ele>
        <time>2021-06-27T09:45:54.000Z</time>
      </trkpt>
      <trkpt lat="50.665431" lon="-2.32543">
        <ele>58.970566</ele>
        <time>2021-06-27T09:45:54.000Z</time>
      </trkpt>
      <trkpt lat="50.665352" lon="-2.325825">
        <ele>59.513168</ele>
        <time>2021-06-27T09:45:57.000Z</time>
      </trkpt>
      <trkpt lat="50.665162" lon="-2.32669">
        <ele>60.699525</ele>
        <time>2021-06-27T09:46:03.000Z</time>
      </trkpt>
      <trkpt lat="50.665104" lon="-2.327111">
        <ele>61.148854</ele>
        <time>2021-06-27T09:46:06.000Z</time>
      </trkpt>
      <trkpt lat="50.664905" lon="-2.329085">
        <ele>60.9136</ele>
        <time>2021-06-27T09:46:20.000Z</time>
      </trkpt>
      <trkpt lat="50.664841" lon="-2.329414">
        <ele>60.873553</ele>
        <time>2021-06-27T09:46:22.000Z</time>
      </trkpt>
      <trkpt lat="50.664786" lon="-2.329719">
        <ele>60.835538</ele>
        <time>2021-06-27T09:46:24.000Z</time>
      </trkpt>
      <trkpt lat="50.664716" lon="-2.330054">
        <ele>60.972139</ele>
        <time>2021-06-27T09:46:26.000Z</time>
      </trkpt>
      <trkpt lat="50.664202" lon="-2.332968">
        <ele>62.46286</ele>
        <time>2021-06-27T09:46:47.000Z</time>
      </trkpt>
      <trkpt lat="50.664119" lon="-2.333301">
        <ele>62.48569</ele>
        <time>2021-06-27T09:46:50.000Z</time>
      </trkpt>
      <trkpt lat="50.663958" lon="-2.334207">
        <ele>62.546387</ele>
        <time>2021-06-27T09:46:57.000Z</time>
      </trkpt>
      <trkpt lat="50.663888" lon="-2.335107">
        <ele>62.60527</ele>
        <time>2021-06-27T09:47:03.000Z</time>
      </trkpt>
      <trkpt lat="50.663887" lon="-2.336114">
        <ele>62.616147</ele>
        <time>2021-06-27T09:47:10.000Z</time>
      </trkpt>
      <trkpt lat="50.663936" lon="-2.33723">
        <ele>62.615128</ele>
        <time>2021-06-27T09:47:18.000Z</time>
      </trkpt>
      <trkpt lat="50.663973" lon="-2.337762">
        <ele>62.614642</ele>
        <time>2021-06-27T09:47:22.000Z</time>
      </trkpt>
      <trkpt lat="50.664064" lon="-2.338487">
        <ele>62.954231</ele>
        <time>2021-06-27T09:47:27.000Z</time>
      </trkpt>
      <trkpt lat="50.66443" lon="-2.3409">
        <ele>65.162798</ele>
        <time>2021-06-27T09:47:44.000Z</time>
      </trkpt>
      <trkpt lat="50.664613" lon="-2.341793">
        <ele>64.437494</ele>
        <time>2021-06-27T09:47:51.000Z</time>
      </trkpt>
      <trkpt lat="50.665302" lon="-2.344444">
        <ele>61.730353</ele>
        <time>2021-06-27T09:48:11.000Z</time>
      </trkpt>
      <trkpt lat="50.665471" lon="-2.344941">
        <ele>60.996492</ele>
        <time>2021-06-27T09:48:15.000Z</time>
      </trkpt>
      <trkpt lat="50.665515" lon="-2.345037">
        <ele>60.866984</ele>
        <time>2021-06-27T09:48:16.000Z</time>
      </trkpt>
      <trkpt lat="50.66667" lon="-2.347988">
        <ele>57.460097</ele>
        <time>2021-06-27T09:48:40.000Z</time>
      </trkpt>
      <trkpt lat="50.667033" lon="-2.349266">
        <ele>57.188817</ele>
        <time>2021-06-27T09:48:50.000Z</time>
      </trkpt>
      <trkpt lat="50.667191" lon="-2.350368">
        <ele>57.43235</ele>
        <time>2021-06-27T09:48:58.000Z</time>
      </trkpt>
      <trkpt lat="50.667337" lon="-2.353406">
        <ele>60.329838</ele>
        <time>2021-06-27T09:49:19.000Z</time>
      </trkpt>
      <trkpt lat="50.66753" lon="-2.354664">
        <ele>61.722224</ele>
        <time>2021-06-27T09:49:28.000Z</time>
      </trkpt>
      <trkpt lat="50.667545" lon="-2.354979">
        <ele>61.999589</ele>
        <time>2021-06-27T09:49:30.000Z</time>
      </trkpt>
      <trkpt lat="50.667475" lon="-2.355123">
        <ele>62.155186</ele>
        <time>2021-06-27T09:49:31.000Z</time>
      </trkpt>
      <trkpt lat="50.66743" lon="-2.355287">
        <ele>62.312216</ele>
        <time>2021-06-27T09:49:32.000Z</time>
      </trkpt>
      <trkpt lat="50.667459" lon="-2.355534">
        <ele>62.538411</ele>
        <time>2021-06-27T09:49:34.000Z</time>
      </trkpt>
      <trkpt lat="50.665019" lon="-2.357854">
        <ele>64.717477</ele>
        <time>2021-06-27T09:50:06.000Z</time>
      </trkpt>
      <trkpt lat="50.659177" lon="-2.363617">
        <ele>77.886075</ele>
        <time>2021-06-27T09:51:23.000Z</time>
      </trkpt>
      <trkpt lat="50.658992" lon="-2.363882">
        <ele>78.475263</ele>
        <time>2021-06-27T09:51:26.000Z</time>
      </trkpt>
      <trkpt lat="50.658716" lon="-2.364367">
        <ele>79.485943</ele>
        <time>2021-06-27T09:51:31.000Z</time>
      </trkpt>
      <trkpt lat="50.658519" lon="-2.364775">
        <ele>80.292385</ele>
        <time>2021-06-27T09:51:35.000Z</time>
      </trkpt>
      <trkpt lat="50.658018" lon="-2.365451">
        <ele>81.892541</ele>
        <time>2021-06-27T09:51:42.000Z</time>
      </trkpt>
      <trkpt lat="50.657445" lon="-2.366002">
        <ele>83.027507</ele>
        <time>2021-06-27T09:51:49.000Z</time>
      </trkpt>
      <trkpt lat="50.657428" lon="-2.36602">
        <ele>83.051262</ele>
        <time>2021-06-27T09:51:49.000Z</time>
      </trkpt>
      <trkpt lat="50.657243" lon="-2.366151">
        <ele>83.317231</ele>
        <time>2021-06-27T09:51:51.000Z</time>
      </trkpt>
      <trkpt lat="50.656927" lon="-2.366304">
        <ele>83.758596</ele>
        <time>2021-06-27T09:51:55.000Z</time>
      </trkpt>
      <trkpt lat="50.656708" lon="-2.366285">
        <ele>84.07145</ele>
        <time>2021-06-27T09:51:57.000Z</time>
      </trkpt>
      <trkpt lat="50.656534" lon="-2.366278">
        <ele>84.30338</ele>
        <time>2021-06-27T09:51:59.000Z</time>
      </trkpt>
      <trkpt lat="50.656106" lon="-2.366086">
        <ele>84.889192</ele>
        <time>2021-06-27T09:52:04.000Z</time>
      </trkpt>
      <trkpt lat="50.65573" lon="-2.366069">
        <ele>85.268375</ele>
        <time>2021-06-27T09:52:08.000Z</time>
      </trkpt>
      <trkpt lat="50.654692" lon="-2.3661">
        <ele>86.346654</ele>
        <time>2021-06-27T09:52:20.000Z</time>
      </trkpt>
      <trkpt lat="50.654579" lon="-2.366113">
        <ele>86.468954</ele>
        <time>2021-06-27T09:52:21.000Z</time>
      </trkpt>
      <trkpt lat="50.653759" lon="-2.366151">
        <ele>86.942516</ele>
        <time>2021-06-27T09:52:30.000Z</time>
      </trkpt>
      <trkpt lat="50.653527" lon="-2.366159">
        <ele>87.03594</ele>
        <time>2021-06-27T09:52:33.000Z</time>
      </trkpt>
      <trkpt lat="50.652223" lon="-2.365682">
        <ele>86.197943</ele>
        <time>2021-06-27T09:52:48.000Z</time>
      </trkpt>
      <trkpt lat="50.65161" lon="-2.365721">
        <ele>84.142973</ele>
        <time>2021-06-27T09:52:55.000Z</time>
      </trkpt>
      <trkpt lat="50.651228" lon="-2.365818">
        <ele>82.853189</ele>
        <time>2021-06-27T09:52:59.000Z</time>
      </trkpt>
      <trkpt lat="50.651031" lon="-2.365908">
        <ele>82.202915</ele>
        <time>2021-06-27T09:53:01.000Z</time>
      </trkpt>
      <trkpt lat="50.650967" lon="-2.365943">
        <ele>81.977478</ele>
        <time>2021-06-27T09:53:02.000Z</time>
      </trkpt>
      <trkpt lat="50.650865" lon="-2.366009">
        <ele>81.615602</ele>
        <time>2021-06-27T09:53:03.000Z</time>
      </trkpt>
      <trkpt lat="50.650746" lon="-2.366104">
        <ele>80.855351</ele>
        <time>2021-06-27T09:53:04.000Z</time>
      </trkpt>
      <trkpt lat="50.65062" lon="-2.366223">
        <ele>80.051913</ele>
        <time>2021-06-27T09:53:06.000Z</time>
      </trkpt>
      <trkpt lat="50.65055" lon="-2.366286">
        <ele>79.608988</ele>
        <time>2021-06-27T09:53:07.000Z</time>
      </trkpt>
      <trkpt lat="50.650383" lon="-2.366794">
        <ele>77.474812</ele>
        <time>2021-06-27T09:53:11.000Z</time>
      </trkpt>
      <trkpt lat="50.650084" lon="-2.368231">
        <ele>71.83986</ele>
        <time>2021-06-27T09:53:22.000Z</time>
      </trkpt>
      <trkpt lat="50.649867" lon="-2.369445">
        <ele>68.920429</ele>
        <time>2021-06-27T09:53:31.000Z</time>
      </trkpt>
      <trkpt lat="50.649767" lon="-2.37115">
        <ele>65.524361</ele>
        <time>2021-06-27T09:53:43.000Z</time>
      </trkpt>
      <trkpt lat="50.649642" lon="-2.372504">
        <ele>64.659408</ele>
        <time>2021-06-27T09:53:53.000Z</time>
      </trkpt>
      <trkpt lat="50.649397" lon="-2.373552">
        <ele>64.091884</ele>
        <time>2021-06-27T09:54:01.000Z</time>
      </trkpt>
      <trkpt lat="50.649129" lon="-2.374741">
        <ele>63.816197</ele>
        <time>2021-06-27T09:54:10.000Z</time>
      </trkpt>
      <trkpt lat="50.64898" lon="-2.37561">
        <ele>63.772642</ele>
        <time>2021-06-27T09:54:16.000Z</time>
      </trkpt>
      <trkpt lat="50.648912" lon="-2.377193">
        <ele>63.877615</ele>
        <time>2021-06-27T09:54:27.000Z</time>
      </trkpt>
      <trkpt lat="50.648726" lon="-2.378116">
        <ele>64.229533</ele>
        <time>2021-06-27T09:54:34.000Z</time>
      </trkpt>
      <trkpt lat="50.648323" lon="-2.379741">
        <ele>65.310946</ele>
        <time>2021-06-27T09:54:46.000Z</time>
      </trkpt>
      <trkpt lat="50.648189" lon="-2.380304">
        <ele>66.342993</ele>
        <time>2021-06-27T09:54:50.000Z</time>
      </trkpt>
      <trkpt lat="50.647588" lon="-2.382382">
        <ele>70.469656</ele>
        <time>2021-06-27T09:55:06.000Z</time>
      </trkpt>
      <trkpt lat="50.647394" lon="-2.382901">
        <ele>71.881258</ele>
        <time>2021-06-27T09:55:10.000Z</time>
      </trkpt>
      <trkpt lat="50.647191" lon="-2.383256">
        <ele>73.054122</ele>
        <time>2021-06-27T09:55:13.000Z</time>
      </trkpt>
      <trkpt lat="50.64697" lon="-2.383456">
        <ele>73.932641</ele>
        <time>2021-06-27T09:55:16.000Z</time>
      </trkpt>
      <trkpt lat="50.646764" lon="-2.383647">
        <ele>74.873763</ele>
        <time>2021-06-27T09:55:19.000Z</time>
      </trkpt>
      <trkpt lat="50.646213" lon="-2.384186">
        <ele>76.77907</ele>
        <time>2021-06-27T09:55:26.000Z</time>
      </trkpt>
      <trkpt lat="50.645776" lon="-2.384652">
        <ele>77.743249</ele>
        <time>2021-06-27T09:55:32.000Z</time>
      </trkpt>
      <trkpt lat="50.645538" lon="-2.385099">
        <ele>78.41505</ele>
        <time>2021-06-27T09:55:36.000Z</time>
      </trkpt>
      <trkpt lat="50.645347" lon="-2.385567">
        <ele>79.050811</ele>
        <time>2021-06-27T09:55:40.000Z</time>
      </trkpt>
      <trkpt lat="50.645128" lon="-2.386676">
        <ele>79.611888</ele>
        <time>2021-06-27T09:55:48.000Z</time>
      </trkpt>
      <trkpt lat="50.64512" lon="-2.3867">
        <ele>79.613276</ele>
        <time>2021-06-27T09:55:48.000Z</time>
      </trkpt>
      <trkpt lat="50.645069" lon="-2.387417">
        <ele>79.655469</ele>
        <time>2021-06-27T09:55:53.000Z</time>
      </trkpt>
      <trkpt lat="50.64506" lon="-2.38769">
        <ele>79.671265</ele>
        <time>2021-06-27T09:55:55.000Z</time>
      </trkpt>
      <trkpt lat="50.645091" lon="-2.388425">
        <ele>79.713894</ele>
        <time>2021-06-27T09:56:00.000Z</time>
      </trkpt>
      <trkpt lat="50.645027" lon="-2.388967">
        <ele>80.052897</ele>
        <time>2021-06-27T09:56:04.000Z</time>
      </trkpt>
      <trkpt lat="50.644881" lon="-2.389381">
        <ele>80.926101</ele>
        <time>2021-06-27T09:56:07.000Z</time>
      </trkpt>
      <trkpt lat="50.644849" lon="-2.389481">
        <ele>81.106716</ele>
        <time>2021-06-27T09:56:08.000Z</time>
      </trkpt>
      <trkpt lat="50.644796" lon="-2.389706">
        <ele>81.517963</ele>
        <time>2021-06-27T09:56:10.000Z</time>
      </trkpt>
      <trkpt lat="50.644748" lon="-2.39014">
        <ele>82.301087</ele>
        <time>2021-06-27T09:56:13.000Z</time>
      </trkpt>
      <trkpt lat="50.644649" lon="-2.390704">
        <ele>83.368435</ele>
        <time>2021-06-27T09:56:17.000Z</time>
      </trkpt>
      <trkpt lat="50.644564" lon="-2.390995">
        <ele>83.912957</ele>
        <time>2021-06-27T09:56:19.000Z</time>
      </trkpt>
      <trkpt lat="50.644471" lon="-2.391242">
        <ele>84.402882</ele>
        <time>2021-06-27T09:56:21.000Z</time>
      </trkpt>
      <trkpt lat="50.644425" lon="-2.391405">
        <ele>84.74464</ele>
        <time>2021-06-27T09:56:22.000Z</time>
      </trkpt>
      <trkpt lat="50.644333" lon="-2.391745">
        <ele>85.924886</ele>
        <time>2021-06-27T09:56:25.000Z</time>
      </trkpt>
      <trkpt lat="50.644312" lon="-2.392136">
        <ele>87.247746</ele>
        <time>2021-06-27T09:56:28.000Z</time>
      </trkpt>
      <trkpt lat="50.644315" lon="-2.392258">
        <ele>87.649916</ele>
        <time>2021-06-27T09:56:29.000Z</time>
      </trkpt>
      <trkpt lat="50.644348" lon="-2.39294">
        <ele>89.943709</ele>
        <time>2021-06-27T09:56:34.000Z</time>
      </trkpt>
      <trkpt lat="50.644353" lon="-2.393054">
        <ele>90.325958</ele>
        <time>2021-06-27T09:56:35.000Z</time>
      </trkpt>
      <trkpt lat="50.644364" lon="-2.393621">
        <ele>92.215022</ele>
        <time>2021-06-27T09:56:39.000Z</time>
      </trkpt>
      <trkpt lat="50.644395" lon="-2.394123">
        <ele>93.886985</ele>
        <time>2021-06-27T09:56:43.000Z</time>
      </trkpt>
      <trkpt lat="50.644446" lon="-2.395277">
        <ele>95.724664</ele>
        <time>2021-06-27T09:56:51.000Z</time>
      </trkpt>
      <trkpt lat="50.64446" lon="-2.395579">
        <ele>96.160379</ele>
        <time>2021-06-27T09:56:53.000Z</time>
      </trkpt>
      <trkpt lat="50.644465" lon="-2.39571">
        <ele>96.331587</ele>
        <time>2021-06-27T09:56:54.000Z</time>
      </trkpt>
      <trkpt lat="50.644512" lon="-2.397074">
        <ele>98.261295</ele>
        <time>2021-06-27T09:57:04.000Z</time>
      </trkpt>
      <trkpt lat="50.644862" lon="-2.398415">
        <ele>96.381793</ele>
        <time>2021-06-27T09:57:14.000Z</time>
      </trkpt>
      <trkpt lat="50.644905" lon="-2.398512">
        <ele>96.231329</ele>
        <time>2021-06-27T09:57:15.000Z</time>
      </trkpt>
      <trkpt lat="50.645091" lon="-2.398953">
        <ele>95.531401</ele>
        <time>2021-06-27T09:57:19.000Z</time>
      </trkpt>
      <trkpt lat="50.645942" lon="-2.401075">
        <ele>90.577125</ele>
        <time>2021-06-27T09:57:37.000Z</time>
      </trkpt>
      <trkpt lat="50.646457" lon="-2.402507">
        <ele>86.56073</ele>
        <time>2021-06-27T09:57:49.000Z</time>
      </trkpt>
      <trkpt lat="50.646901" lon="-2.404218">
        <ele>81.309104</ele>
        <time>2021-06-27T09:58:02.000Z</time>
      </trkpt>
      <trkpt lat="50.647194" lon="-2.405596">
        <ele>74.918078</ele>
        <time>2021-06-27T09:58:12.000Z</time>
      </trkpt>
      <trkpt lat="50.647242" lon="-2.406082">
        <ele>72.488026</ele>
        <time>2021-06-27T09:58:15.000Z</time>
      </trkpt>
      <trkpt lat="50.647253" lon="-2.406224">
        <ele>71.790262</ele>
        <time>2021-06-27T09:58:16.000Z</time>
      </trkpt>
      <trkpt lat="50.647311" lon="-2.406714">
        <ele>69.364301</ele>
        <time>2021-06-27T09:58:20.000Z</time>
      </trkpt>
      <trkpt lat="50.647345" lon="-2.407325">
        <ele>66.315021</ele>
        <time>2021-06-27T09:58:24.000Z</time>
      </trkpt>
      <trkpt lat="50.647346" lon="-2.40736">
        <ele>66.100959</ele>
        <time>2021-06-27T09:58:24.000Z</time>
      </trkpt>
      <trkpt lat="50.647354" lon="-2.408114">
        <ele>62.150561</ele>
        <time>2021-06-27T09:58:29.000Z</time>
      </trkpt>
      <trkpt lat="50.647421" lon="-2.408913">
        <ele>57.853992</ele>
        <time>2021-06-27T09:58:35.000Z</time>
      </trkpt>
      <trkpt lat="50.647464" lon="-2.409518">
        <ele>54.664068</ele>
        <time>2021-06-27T09:58:39.000Z</time>
      </trkpt>
      <trkpt lat="50.647358" lon="-2.410364">
        <ele>50.418881</ele>
        <time>2021-06-27T09:58:45.000Z</time>
      </trkpt>
      <trkpt lat="50.647205" lon="-2.411127">
        <ele>47.595226</ele>
        <time>2021-06-27T09:58:51.000Z</time>
      </trkpt>
      <trkpt lat="50.646365" lon="-2.413751">
        <ele>37.906934</ele>
        <time>2021-06-27T09:59:12.000Z</time>
      </trkpt>
      <trkpt lat="50.64624" lon="-2.414466">
        <ele>35.78752</ele>
        <time>2021-06-27T09:59:17.000Z</time>
      </trkpt>
      <trkpt lat="50.646206" lon="-2.415057">
        <ele>34.027488</ele>
        <time>2021-06-27T09:59:21.000Z</time>
      </trkpt>
      <trkpt lat="50.646208" lon="-2.415764">
        <ele>31.926442</ele>
        <time>2021-06-27T09:59:26.000Z</time>
      </trkpt>
      <trkpt lat="50.646264" lon="-2.416473">
        <ele>29.74266</ele>
        <time>2021-06-27T09:59:31.000Z</time>
      </trkpt>
      <trkpt lat="50.646566" lon="-2.417848">
        <ele>25.259431</ele>
        <time>2021-06-27T09:59:41.000Z</time>
      </trkpt>
      <trkpt lat="50.64661" lon="-2.418326">
        <ele>23.842784</ele>
        <time>2021-06-27T09:59:44.000Z</time>
      </trkpt>
      <trkpt lat="50.646611" lon="-2.41873">
        <ele>22.87745</ele>
        <time>2021-06-27T09:59:47.000Z</time>
      </trkpt>
      <trkpt lat="50.646644" lon="-2.419227">
        <ele>21.678044</ele>
        <time>2021-06-27T09:59:51.000Z</time>
      </trkpt>
      <trkpt lat="50.646631" lon="-2.41995">
        <ele>19.924017</ele>
        <time>2021-06-27T09:59:56.000Z</time>
      </trkpt>
      <trkpt lat="50.646577" lon="-2.420468">
        <ele>18.648761</ele>
        <time>2021-06-27T10:00:00.000Z</time>
      </trkpt>
      <trkpt lat="50.64657" lon="-2.420604">
        <ele>18.305447</ele>
        <time>2021-06-27T10:00:01.000Z</time>
      </trkpt>
      <trkpt lat="50.646463" lon="-2.421205">
        <ele>17.2902</ele>
        <time>2021-06-27T10:00:05.000Z</time>
      </trkpt>
      <trkpt lat="50.646443" lon="-2.421287">
        <ele>17.302192</ele>
        <time>2021-06-27T10:00:06.000Z</time>
      </trkpt>
      <trkpt lat="50.64632" lon="-2.422222">
        <ele>17.436525</ele>
        <time>2021-06-27T10:00:13.000Z</time>
      </trkpt>
      <trkpt lat="50.646292" lon="-2.422434">
        <ele>17.467787</ele>
        <time>2021-06-27T10:00:15.000Z</time>
      </trkpt>
      <trkpt lat="50.646247" lon="-2.422609">
        <ele>17.496098</ele>
        <time>2021-06-27T10:00:16.000Z</time>
      </trkpt>
      <trkpt lat="50.64615" lon="-2.423025">
        <ele>17.558782</ele>
        <time>2021-06-27T10:00:19.000Z</time>
      </trkpt>
      <trkpt lat="50.645878" lon="-2.423901">
        <ele>17.768344</ele>
        <time>2021-06-27T10:00:26.000Z</time>
      </trkpt>
      <trkpt lat="50.645591" lon="-2.424743">
        <ele>18.207407</ele>
        <time>2021-06-27T10:00:33.000Z</time>
      </trkpt>
      <trkpt lat="50.644824" lon="-2.427268">
        <ele>18.904134</ele>
        <time>2021-06-27T10:00:53.000Z</time>
      </trkpt>
      <trkpt lat="50.64455" lon="-2.428173">
        <ele>18.857152</ele>
        <time>2021-06-27T10:01:00.000Z</time>
      </trkpt>
      <trkpt lat="50.644328" lon="-2.428941">
        <ele>18.795961</ele>
        <time>2021-06-27T10:01:06.000Z</time>
      </trkpt>
      <trkpt lat="50.643961" lon="-2.42983">
        <ele>18.588831</ele>
        <time>2021-06-27T10:01:13.000Z</time>
      </trkpt>
      <trkpt lat="50.643957" lon="-2.429799">
        <ele>18.580975</ele>
        <time>2021-06-27T10:01:13.000Z</time>
      </trkpt>
      <trkpt lat="50.643857" lon="-2.429791">
        <ele>18.554308</ele>
        <time>2021-06-27T10:01:14.000Z</time>
      </trkpt>
      <trkpt lat="50.643836" lon="-2.42982">
        <ele>18.542778</ele>
        <time>2021-06-27T10:01:14.000Z</time>
      </trkpt>
      <trkpt lat="50.643794" lon="-2.429862">
        <ele>18.529018</ele>
        <time>2021-06-27T10:01:15.000Z</time>
      </trkpt>
      <trkpt lat="50.643778" lon="-2.430058">
        <ele>18.489658</ele>
        <time>2021-06-27T10:01:16.000Z</time>
      </trkpt>
      <trkpt lat="50.643796" lon="-2.4301">
        <ele>18.481698</ele>
        <time>2021-06-27T10:01:16.000Z</time>
      </trkpt>
      <trkpt lat="50.643585" lon="-2.43029">
        <ele>18.409716</ele>
        <time>2021-06-27T10:01:19.000Z</time>
      </trkpt>
      <trkpt lat="50.642982" lon="-2.43078">
        <ele>18.185279</ele>
        <time>2021-06-27T10:01:27.000Z</time>
      </trkpt>
      <trkpt lat="50.642422" lon="-2.431162">
        <ele>17.970714</ele>
        <time>2021-06-27T10:01:34.000Z</time>
      </trkpt>
      <trkpt lat="50.642125" lon="-2.431321">
        <ele>17.861479</ele>
        <time>2021-06-27T10:01:37.000Z</time>
      </trkpt>
      <trkpt lat="50.641768" lon="-2.431453">
        <ele>17.735634</ele>
        <time>2021-06-27T10:01:41.000Z</time>
      </trkpt>
      <trkpt lat="50.641374" lon="-2.431618">
        <ele>17.533335</ele>
        <time>2021-06-27T10:01:46.000Z</time>
      </trkpt>
      <trkpt lat="50.641129" lon="-2.431696">
        <ele>17.344885</ele>
        <time>2021-06-27T10:01:49.000Z</time>
      </trkpt>
      <trkpt lat="50.640806" lon="-2.431783">
        <ele>17.083647</ele>
        <time>2021-06-27T10:01:53.000Z</time>
      </trkpt>
      <trkpt lat="50.640729" lon="-2.431822">
        <ele>17.018308</ele>
        <time>2021-06-27T10:01:54.000Z</time>
      </trkpt>
      <trkpt lat="50.640604" lon="-2.431845">
        <ele>16.931491</ele>
        <time>2021-06-27T10:01:55.000Z</time>
      </trkpt>
      <trkpt lat="50.64037" lon="-2.431939">
        <ele>16.744375</ele>
        <time>2021-06-27T10:01:58.000Z</time>
      </trkpt>
      <trkpt lat="50.639686" lon="-2.43211">
        <ele>16.171793</ele>
        <time>2021-06-27T10:02:06.000Z</time>
      </trkpt>
      <trkpt lat="50.639508" lon="-2.432154">
        <ele>15.90025</ele>
        <time>2021-06-27T10:02:08.000Z</time>
      </trkpt>
      <trkpt lat="50.638958" lon="-2.432293">
        <ele>15.05205</ele>
        <time>2021-06-27T10:02:14.000Z</time>
      </trkpt>
      <trkpt lat="50.638688" lon="-2.432386">
        <ele>14.6261</ele>
        <time>2021-06-27T10:02:17.000Z</time>
      </trkpt>
      <trkpt lat="50.638431" lon="-2.432447">
        <ele>14.226331</ele>
        <time>2021-06-27T10:02:20.000Z</time>
      </trkpt>
      <trkpt lat="50.638086" lon="-2.432608">
        <ele>13.686149</ele>
        <time>2021-06-27T10:02:24.000Z</time>
      </trkpt>
      <trkpt lat="50.637937" lon="-2.432663">
        <ele>13.402293</ele>
        <time>2021-06-27T10:02:26.000Z</time>
      </trkpt>
      <trkpt lat="50.637521" lon="-2.432856">
        <ele>12.244247</ele>
        <time>2021-06-27T10:02:31.000Z</time>
      </trkpt>
      <trkpt lat="50.637242" lon="-2.43296">
        <ele>11.48098</ele>
        <time>2021-06-27T10:02:34.000Z</time>
      </trkpt>
      <trkpt lat="50.636441" lon="-2.4331">
        <ele>9.354436</ele>
        <time>2021-06-27T10:02:43.000Z</time>
      </trkpt>
      <trkpt lat="50.636322" lon="-2.433118">
        <ele>9.051043</ele>
        <time>2021-06-27T10:02:44.000Z</time>
      </trkpt>
      <trkpt lat="50.636154" lon="-2.43309">
        <ele>8.624434</ele>
        <time>2021-06-27T10:02:46.000Z</time>
      </trkpt>
      <trkpt lat="50.635784" lon="-2.432821">
        <ele>7.873842</ele>
        <time>2021-06-27T10:02:51.000Z</time>
      </trkpt>
      <trkpt lat="50.635754" lon="-2.432793">
        <ele>7.82875</ele>
        <time>2021-06-27T10:02:51.000Z</time>
      </trkpt>
      <trkpt lat="50.635551" lon="-2.432591">
        <ele>7.371998</ele>
        <time>2021-06-27T10:02:54.000Z</time>
      </trkpt>
      <trkpt lat="50.635456" lon="-2.43247">
        <ele>7.156974</ele>
        <time>2021-06-27T10:02:55.000Z</time>
      </trkpt>
      <trkpt lat="50.635388" lon="-2.43238">
        <ele>7.000892</ele>
        <time>2021-06-27T10:02:56.000Z</time>
      </trkpt>
      <trkpt lat="50.635244" lon="-2.432199">
        <ele>6.668915</ele>
        <time>2021-06-27T10:02:58.000Z</time>
      </trkpt>
      <trkpt lat="50.635227" lon="-2.432185">
        <ele>6.635413</ele>
        <time>2021-06-27T10:02:58.000Z</time>
      </trkpt>
      <trkpt lat="50.635048" lon="-2.431973">
        <ele>6.242318</ele>
        <time>2021-06-27T10:03:00.000Z</time>
      </trkpt>
      <trkpt lat="50.63501" lon="-2.43191">
        <ele>6.124084</ele>
        <time>2021-06-27T10:03:01.000Z</time>
      </trkpt>
      <trkpt lat="50.634547" lon="-2.431593">
        <ele>5.275615</ele>
        <time>2021-06-27T10:03:07.000Z</time>
      </trkpt>
      <trkpt lat="50.634311" lon="-2.431506">
        <ele>4.964442</ele>
        <time>2021-06-27T10:03:10.000Z</time>
      </trkpt>
      <trkpt lat="50.634198" lon="-2.431467">
        <ele>4.801226</ele>
        <time>2021-06-27T10:03:11.000Z</time>
      </trkpt>
      <trkpt lat="50.633981" lon="-2.431422">
        <ele>4.526787</ele>
        <time>2021-06-27T10:03:13.000Z</time>
      </trkpt>
      <trkpt lat="50.633844" lon="-2.431395">
        <ele>4.338968</ele>
        <time>2021-06-27T10:03:15.000Z</time>
      </trkpt>
      <trkpt lat="50.633722" lon="-2.431352">
        <ele>4.171419</ele>
        <time>2021-06-27T10:03:16.000Z</time>
      </trkpt>
      <trkpt lat="50.633663" lon="-2.431346">
        <ele>4.094171</ele>
        <time>2021-06-27T10:03:17.000Z</time>
      </trkpt>
      <trkpt lat="50.633603" lon="-2.43135">
        <ele>4.026806</ele>
        <time>2021-06-27T10:03:18.000Z</time>
      </trkpt>
      <trkpt lat="50.633337" lon="-2.431332">
        <ele>3.6719</ele>
        <time>2021-06-27T10:03:21.000Z</time>
      </trkpt>
      <trkpt lat="50.633222" lon="-2.431347">
        <ele>3.519817</ele>
        <time>2021-06-27T10:03:22.000Z</time>
      </trkpt>
      <trkpt lat="50.633136" lon="-2.431377">
        <ele>3.399854</ele>
        <time>2021-06-27T10:03:23.000Z</time>
      </trkpt>
      <trkpt lat="50.633009" lon="-2.431523">
        <ele>3.195522</ele>
        <time>2021-06-27T10:03:25.000Z</time>
      </trkpt>
      <trkpt lat="50.632957" lon="-2.431603">
        <ele>3.083982</ele>
        <time>2021-06-27T10:03:26.000Z</time>
      </trkpt>
      <trkpt lat="50.632875" lon="-2.431748">
        <ele>2.98051</ele>
        <time>2021-06-27T10:03:27.000Z</time>
      </trkpt>
      <trkpt lat="50.632791" lon="-2.43186">
        <ele>2.89378</ele>
        <time>2021-06-27T10:03:28.000Z</time>
      </trkpt>
      <trkpt lat="50.632232" lon="-2.432847">
        <ele>2.178329</ele>
        <time>2021-06-27T10:03:37.000Z</time>
      </trkpt>
      <trkpt lat="50.631287" lon="-2.434442">
        <ele>1.448944</ele>
        <time>2021-06-27T10:03:52.000Z</time>
      </trkpt>
      <trkpt lat="50.630151" lon="-2.436495">
        <ele>1.224331</ele>
        <time>2021-06-27T10:04:11.000Z</time>
      </trkpt>
      <trkpt lat="50.62983" lon="-2.437004">
        <ele>1.188432</ele>
        <time>2021-06-27T10:04:16.000Z</time>
      </trkpt>
      <trkpt lat="50.629332" lon="-2.437813">
        <ele>1.132922</ele>
        <time>2021-06-27T10:04:24.000Z</time>
      </trkpt>
      <trkpt lat="50.629209" lon="-2.438019">
        <ele>1.135909</ele>
        <time>2021-06-27T10:04:26.000Z</time>
      </trkpt>
      <trkpt lat="50.628754" lon="-2.438674">
        <ele>1.178881</ele>
        <time>2021-06-27T10:04:33.000Z</time>
      </trkpt>
      <trkpt lat="50.62822" lon="-2.439425">
        <ele>1.227422</ele>
        <time>2021-06-27T10:04:41.000Z</time>
      </trkpt>
      <trkpt lat="50.628164" lon="-2.439507">
        <ele>1.232676</ele>
        <time>2021-06-27T10:04:42.000Z</time>
      </trkpt>
      <trkpt lat="50.626781" lon="-2.441294">
        <ele>1.672728</ele>
        <time>2021-06-27T10:05:02.000Z</time>
      </trkpt>
      <trkpt lat="50.626553" lon="-2.441582">
        <ele>1.759684</ele>
        <time>2021-06-27T10:05:05.000Z</time>
      </trkpt>
      <trkpt lat="50.626347" lon="-2.44187">
        <ele>2.057553</ele>
        <time>2021-06-27T10:05:08.000Z</time>
      </trkpt>
      <trkpt lat="50.625898" lon="-2.442422">
        <ele>2.67913</ele>
        <time>2021-06-27T10:05:14.000Z</time>
      </trkpt>
      <trkpt lat="50.625632" lon="-2.442772">
        <ele>3.049789</ele>
        <time>2021-06-27T10:05:18.000Z</time>
      </trkpt>
      <trkpt lat="50.625541" lon="-2.442916">
        <ele>3.192466</ele>
        <time>2021-06-27T10:05:19.000Z</time>
      </trkpt>
      <trkpt lat="50.62541" lon="-2.443128">
        <ele>3.40412</ele>
        <time>2021-06-27T10:05:21.000Z</time>
      </trkpt>
      <trkpt lat="50.625275" lon="-2.443349">
        <ele>3.616274</ele>
        <time>2021-06-27T10:05:23.000Z</time>
      </trkpt>
      <trkpt lat="50.624996" lon="-2.443785">
        <ele>4.118556</ele>
        <time>2021-06-27T10:05:27.000Z</time>
      </trkpt>
      <trkpt lat="50.6247" lon="-2.444261">
        <ele>4.713465</ele>
        <time>2021-06-27T10:05:32.000Z</time>
      </trkpt>
      <trkpt lat="50.624431" lon="-2.444708">
        <ele>5.256839</ele>
        <time>2021-06-27T10:05:36.000Z</time>
      </trkpt>
      <trkpt lat="50.624291" lon="-2.444939">
        <ele>5.539729</ele>
        <time>2021-06-27T10:05:38.000Z</time>
      </trkpt>
      <trkpt lat="50.62414" lon="-2.445122">
        <ele>5.801988</ele>
        <time>2021-06-27T10:05:40.000Z</time>
      </trkpt>
      <trkpt lat="50.623629" lon="-2.4457">
        <ele>6.466919</ele>
        <time>2021-06-27T10:05:47.000Z</time>
      </trkpt>
      <trkpt lat="50.622965" lon="-2.446417">
        <ele>7.108183</ele>
        <time>2021-06-27T10:05:56.000Z</time>
      </trkpt>
      <trkpt lat="50.623048" lon="-2.446695">
        <ele>7.260193</ele>
        <time>2021-06-27T10:05:58.000Z</time>
      </trkpt>
      <trkpt lat="50.623122" lon="-2.446935">
        <ele>7.401771</ele>
        <time>2021-06-27T10:06:00.000Z</time>
      </trkpt>
      <trkpt lat="50.623146" lon="-2.447006">
        <ele>7.439138</ele>
        <time>2021-06-27T10:06:01.000Z</time>
      </trkpt>
      <trkpt lat="50.623179" lon="-2.447202">
        <ele>7.545885</ele>
        <time>2021-06-27T10:06:02.000Z</time>
      </trkpt>
      <trkpt lat="50.623289" lon="-2.448027">
        <ele>7.504565</ele>
        <time>2021-06-27T10:06:08.000Z</time>
      </trkpt>
      <trkpt lat="50.623126" lon="-2.448467">
        <ele>7.415734</ele>
        <time>2021-06-27T10:06:12.000Z</time>
      </trkpt>
      <trkpt lat="50.623057" lon="-2.448618">
        <ele>7.38575</ele>
        <time>2021-06-27T10:06:13.000Z</time>
      </trkpt>
      <trkpt lat="50.623084" lon="-2.448735">
        <ele>7.366074</ele>
        <time>2021-06-27T10:06:14.000Z</time>
      </trkpt>
      <trkpt lat="50.62305" lon="-2.449842">
        <ele>7.175878</ele>
        <time>2021-06-27T10:06:22.000Z</time>
      </trkpt>
      <trkpt lat="50.623189" lon="-2.450523">
        <ele>7.08602090883</ele>
        <time>2021-06-27T10:06:27.000Z</time>
      </trkpt>
      <trkpt lat="50.623227" lon="-2.45068">
        <ele>7.06491406696</ele>
        <time>2021-06-27T10:06:28.000Z</time>
      </trkpt>
      <trkpt lat="50.623311" lon="-2.450899">
        <ele>7.03276930853</ele>
        <time>2021-06-27T10:06:30.000Z</time>
      </trkpt>
      <trkpt lat="50.623422" lon="-2.450814">
        <ele>7.00833635776</ele>
        <time>2021-06-27T10:06:31.000Z</time>
      </trkpt>
      <trkpt lat="50.623626" lon="-2.450619">
        <ele>6.96110018305</ele>
        <time>2021-06-27T10:06:34.000Z</time>
      </trkpt>
      <trkpt lat="50.623825" lon="-2.450293">
        <ele>6.90427539945</ele>
        <time>2021-06-27T10:06:37.000Z</time>
      </trkpt>
      <trkpt lat="50.623866" lon="-2.45021">
        <ele>6.89106247265</ele>
        <time>2021-06-27T10:06:38.000Z</time>
      </trkpt>
    </trkseg>
  </trk>
</gpx>

<!--
Performance optimized by W3 Total Cache. Learn more: https://www.boldgrid.com/w3-total-cache/?utm_source=w3tc&utm_medium=footer_comment&utm_campaign=free_plugin

Page Caching using Disk: Enhanced{w3tc_pagecache_reject_reason} 

Served from: www.aquabike.world @ 2026-05-06 21:17:16 by W3 Total Cache
-->